<?xml version="1.0" encoding="UTF-8"?>
<gpx xmlns="http://www.topografix.com/GPX/1/1"
     creator="GpsDump 4.89"
     version="1.1"
     xmlns:xsi="http://www.w3.org/2001/XMLSchema-instance"
     xsi:schemaLocation="http://www.topografix.com/GPX/1/1 http://www.topografix.com/GPX/1/1/gpx.xsd">
  <metadata>
    <link href="http://www.gethome.no/stein.sorensen/">
      <text>GPS dump for www.flightlog.org</text>
    </link>
    <time>2015-05-30T19:59:49Z</time>
    <bounds minlat="38.241267" minlon="-2.781717" maxlat="38.366217" maxlon="-2.638767"/>
  </metadata>
  <trk>
    <name>Track 001</name>
    <trkseg>
      <trkpt lat="38.254017" lon="-2.658567">
        <ele>1754.0</ele>
        <time>2015-05-30T12:43:26Z</time>
      </trkpt>
      <trkpt lat="38.253950" lon="-2.658600">
        <ele>1782.0</ele>
        <time>2015-05-30T12:43:31Z</time>
      </trkpt>
      <trkpt lat="38.253900" lon="-2.658633">
        <ele>1800.0</ele>
        <time>2015-05-30T12:43:36Z</time>
      </trkpt>
      <trkpt lat="38.253867" lon="-2.658650">
        <ele>1811.0</ele>
        <time>2015-05-30T12:43:41Z</time>
      </trkpt>
      <trkpt lat="38.253850" lon="-2.658650">
        <ele>1816.0</ele>
        <time>2015-05-30T12:43:46Z</time>
      </trkpt>
      <trkpt lat="38.253850" lon="-2.658650">
        <ele>1819.0</ele>
        <time>2015-05-30T12:43:51Z</time>
      </trkpt>
      <trkpt lat="38.253850" lon="-2.658650">
        <ele>1819.0</ele>
        <time>2015-05-30T12:43:56Z</time>
      </trkpt>
      <trkpt lat="38.253850" lon="-2.658650">
        <ele>1818.0</ele>
        <time>2015-05-30T12:44:01Z</time>
      </trkpt>
      <trkpt lat="38.253850" lon="-2.658650">
        <ele>1817.0</ele>
        <time>2015-05-30T12:44:06Z</time>
      </trkpt>
      <trkpt lat="38.253850" lon="-2.658650">
        <ele>1816.0</ele>
        <time>2015-05-30T12:44:11Z</time>
      </trkpt>
      <trkpt lat="38.253850" lon="-2.658633">
        <ele>1814.0</ele>
        <time>2015-05-30T12:44:16Z</time>
      </trkpt>
      <trkpt lat="38.253850" lon="-2.658633">
        <ele>1812.0</ele>
        <time>2015-05-30T12:44:21Z</time>
      </trkpt>
      <trkpt lat="38.253867" lon="-2.658633">
        <ele>1811.0</ele>
        <time>2015-05-30T12:44:26Z</time>
      </trkpt>
      <trkpt lat="38.253867" lon="-2.658633">
        <ele>1810.0</ele>
        <time>2015-05-30T12:44:31Z</time>
      </trkpt>
      <trkpt lat="38.253867" lon="-2.658633">
        <ele>1810.0</ele>
        <time>2015-05-30T12:44:36Z</time>
      </trkpt>
      <trkpt lat="38.253867" lon="-2.658633">
        <ele>1809.0</ele>
        <time>2015-05-30T12:44:41Z</time>
      </trkpt>
      <trkpt lat="38.253867" lon="-2.658633">
        <ele>1809.0</ele>
        <time>2015-05-30T12:44:46Z</time>
      </trkpt>
      <trkpt lat="38.253867" lon="-2.658633">
        <ele>1810.0</ele>
        <time>2015-05-30T12:44:51Z</time>
      </trkpt>
      <trkpt lat="38.253867" lon="-2.658633">
        <ele>1810.0</ele>
        <time>2015-05-30T12:44:56Z</time>
      </trkpt>
      <trkpt lat="38.253867" lon="-2.658633">
        <ele>1811.0</ele>
        <time>2015-05-30T12:45:01Z</time>
      </trkpt>
      <trkpt lat="38.253850" lon="-2.658633">
        <ele>1811.0</ele>
        <time>2015-05-30T12:45:06Z</time>
      </trkpt>
      <trkpt lat="38.253850" lon="-2.658633">
        <ele>1812.0</ele>
        <time>2015-05-30T12:45:11Z</time>
      </trkpt>
      <trkpt lat="38.253850" lon="-2.658633">
        <ele>1812.0</ele>
        <time>2015-05-30T12:45:16Z</time>
      </trkpt>
      <trkpt lat="38.253850" lon="-2.658633">
        <ele>1813.0</ele>
        <time>2015-05-30T12:45:21Z</time>
      </trkpt>
      <trkpt lat="38.253850" lon="-2.658633">
        <ele>1812.0</ele>
        <time>2015-05-30T12:45:26Z</time>
      </trkpt>
      <trkpt lat="38.253850" lon="-2.658633">
        <ele>1812.0</ele>
        <time>2015-05-30T12:45:31Z</time>
      </trkpt>
      <trkpt lat="38.253867" lon="-2.658633">
        <ele>1812.0</ele>
        <time>2015-05-30T12:45:36Z</time>
      </trkpt>
      <trkpt lat="38.253867" lon="-2.658633">
        <ele>1812.0</ele>
        <time>2015-05-30T12:45:41Z</time>
      </trkpt>
      <trkpt lat="38.253867" lon="-2.658633">
        <ele>1811.0</ele>
        <time>2015-05-30T12:45:46Z</time>
      </trkpt>
      <trkpt lat="38.253867" lon="-2.658633">
        <ele>1811.0</ele>
        <time>2015-05-30T12:45:51Z</time>
      </trkpt>
      <trkpt lat="38.253867" lon="-2.658633">
        <ele>1810.0</ele>
        <time>2015-05-30T12:45:56Z</time>
      </trkpt>
      <trkpt lat="38.253867" lon="-2.658633">
        <ele>1810.0</ele>
        <time>2015-05-30T12:46:01Z</time>
      </trkpt>
      <trkpt lat="38.253867" lon="-2.658633">
        <ele>1810.0</ele>
        <time>2015-05-30T12:46:06Z</time>
      </trkpt>
      <trkpt lat="38.253867" lon="-2.658633">
        <ele>1812.0</ele>
        <time>2015-05-30T12:46:11Z</time>
      </trkpt>
      <trkpt lat="38.253850" lon="-2.658633">
        <ele>1813.0</ele>
        <time>2015-05-30T12:46:16Z</time>
      </trkpt>
      <trkpt lat="38.253833" lon="-2.658650">
        <ele>1820.0</ele>
        <time>2015-05-30T12:46:21Z</time>
      </trkpt>
      <trkpt lat="38.253833" lon="-2.658667">
        <ele>1822.0</ele>
        <time>2015-05-30T12:46:26Z</time>
      </trkpt>
      <trkpt lat="38.253833" lon="-2.658667">
        <ele>1821.0</ele>
        <time>2015-05-30T12:46:31Z</time>
      </trkpt>
      <trkpt lat="38.253833" lon="-2.658667">
        <ele>1822.0</ele>
        <time>2015-05-30T12:46:36Z</time>
      </trkpt>
      <trkpt lat="38.253833" lon="-2.658667">
        <ele>1822.0</ele>
        <time>2015-05-30T12:46:41Z</time>
      </trkpt>
      <trkpt lat="38.253833" lon="-2.658667">
        <ele>1822.0</ele>
        <time>2015-05-30T12:46:46Z</time>
      </trkpt>
      <trkpt lat="38.253833" lon="-2.658667">
        <ele>1822.0</ele>
        <time>2015-05-30T12:46:51Z</time>
      </trkpt>
      <trkpt lat="38.253833" lon="-2.658667">
        <ele>1822.0</ele>
        <time>2015-05-30T12:46:56Z</time>
      </trkpt>
      <trkpt lat="38.253833" lon="-2.658667">
        <ele>1822.0</ele>
        <time>2015-05-30T12:47:01Z</time>
      </trkpt>
      <trkpt lat="38.253833" lon="-2.658667">
        <ele>1822.0</ele>
        <time>2015-05-30T12:47:06Z</time>
      </trkpt>
      <trkpt lat="38.253833" lon="-2.658667">
        <ele>1822.0</ele>
        <time>2015-05-30T12:47:11Z</time>
      </trkpt>
      <trkpt lat="38.253833" lon="-2.658667">
        <ele>1822.0</ele>
        <time>2015-05-30T12:47:16Z</time>
      </trkpt>
      <trkpt lat="38.253833" lon="-2.658667">
        <ele>1822.0</ele>
        <time>2015-05-30T12:47:21Z</time>
      </trkpt>
      <trkpt lat="38.253833" lon="-2.658667">
        <ele>1822.0</ele>
        <time>2015-05-30T12:47:26Z</time>
      </trkpt>
      <trkpt lat="38.253833" lon="-2.658667">
        <ele>1822.0</ele>
        <time>2015-05-30T12:47:31Z</time>
      </trkpt>
      <trkpt lat="38.253833" lon="-2.658667">
        <ele>1822.0</ele>
        <time>2015-05-30T12:47:36Z</time>
      </trkpt>
      <trkpt lat="38.253833" lon="-2.658667">
        <ele>1822.0</ele>
        <time>2015-05-30T12:47:41Z</time>
      </trkpt>
      <trkpt lat="38.253833" lon="-2.658667">
        <ele>1822.0</ele>
        <time>2015-05-30T12:47:46Z</time>
      </trkpt>
      <trkpt lat="38.253833" lon="-2.658667">
        <ele>1822.0</ele>
        <time>2015-05-30T12:47:51Z</time>
      </trkpt>
      <trkpt lat="38.253833" lon="-2.658667">
        <ele>1822.0</ele>
        <time>2015-05-30T12:47:56Z</time>
      </trkpt>
      <trkpt lat="38.253833" lon="-2.658667">
        <ele>1822.0</ele>
        <time>2015-05-30T12:48:01Z</time>
      </trkpt>
      <trkpt lat="38.253833" lon="-2.658667">
        <ele>1822.0</ele>
        <time>2015-05-30T12:48:06Z</time>
      </trkpt>
      <trkpt lat="38.253833" lon="-2.658667">
        <ele>1822.0</ele>
        <time>2015-05-30T12:48:11Z</time>
      </trkpt>
      <trkpt lat="38.253833" lon="-2.658667">
        <ele>1822.0</ele>
        <time>2015-05-30T12:48:16Z</time>
      </trkpt>
      <trkpt lat="38.253833" lon="-2.658667">
        <ele>1822.0</ele>
        <time>2015-05-30T12:48:21Z</time>
      </trkpt>
      <trkpt lat="38.253833" lon="-2.658667">
        <ele>1822.0</ele>
        <time>2015-05-30T12:48:26Z</time>
      </trkpt>
      <trkpt lat="38.253833" lon="-2.658667">
        <ele>1822.0</ele>
        <time>2015-05-30T12:48:31Z</time>
      </trkpt>
      <trkpt lat="38.253833" lon="-2.658667">
        <ele>1822.0</ele>
        <time>2015-05-30T12:48:36Z</time>
      </trkpt>
      <trkpt lat="38.253833" lon="-2.658667">
        <ele>1822.0</ele>
        <time>2015-05-30T12:48:41Z</time>
      </trkpt>
      <trkpt lat="38.253833" lon="-2.658667">
        <ele>1822.0</ele>
        <time>2015-05-30T12:48:46Z</time>
      </trkpt>
      <trkpt lat="38.253833" lon="-2.658667">
        <ele>1822.0</ele>
        <time>2015-05-30T12:48:51Z</time>
      </trkpt>
      <trkpt lat="38.253833" lon="-2.658667">
        <ele>1822.0</ele>
        <time>2015-05-30T12:48:56Z</time>
      </trkpt>
      <trkpt lat="38.253833" lon="-2.658667">
        <ele>1822.0</ele>
        <time>2015-05-30T12:49:01Z</time>
      </trkpt>
      <trkpt lat="38.253833" lon="-2.658667">
        <ele>1822.0</ele>
        <time>2015-05-30T12:49:06Z</time>
      </trkpt>
      <trkpt lat="38.253833" lon="-2.658667">
        <ele>1822.0</ele>
        <time>2015-05-30T12:49:11Z</time>
      </trkpt>
      <trkpt lat="38.253833" lon="-2.658667">
        <ele>1822.0</ele>
        <time>2015-05-30T12:49:16Z</time>
      </trkpt>
      <trkpt lat="38.253833" lon="-2.658667">
        <ele>1822.0</ele>
        <time>2015-05-30T12:49:21Z</time>
      </trkpt>
      <trkpt lat="38.253833" lon="-2.658667">
        <ele>1822.0</ele>
        <time>2015-05-30T12:49:26Z</time>
      </trkpt>
      <trkpt lat="38.253833" lon="-2.658667">
        <ele>1822.0</ele>
        <time>2015-05-30T12:49:31Z</time>
      </trkpt>
      <trkpt lat="38.253833" lon="-2.658667">
        <ele>1822.0</ele>
        <time>2015-05-30T12:49:36Z</time>
      </trkpt>
      <trkpt lat="38.253833" lon="-2.658667">
        <ele>1822.0</ele>
        <time>2015-05-30T12:49:41Z</time>
      </trkpt>
      <trkpt lat="38.253833" lon="-2.658667">
        <ele>1822.0</ele>
        <time>2015-05-30T12:49:46Z</time>
      </trkpt>
      <trkpt lat="38.253833" lon="-2.658667">
        <ele>1822.0</ele>
        <time>2015-05-30T12:49:51Z</time>
      </trkpt>
      <trkpt lat="38.253833" lon="-2.658667">
        <ele>1822.0</ele>
        <time>2015-05-30T12:49:56Z</time>
      </trkpt>
      <trkpt lat="38.253833" lon="-2.658667">
        <ele>1822.0</ele>
        <time>2015-05-30T12:50:01Z</time>
      </trkpt>
      <trkpt lat="38.253833" lon="-2.658667">
        <ele>1822.0</ele>
        <time>2015-05-30T12:50:06Z</time>
      </trkpt>
      <trkpt lat="38.253833" lon="-2.658667">
        <ele>1822.0</ele>
        <time>2015-05-30T12:50:11Z</time>
      </trkpt>
      <trkpt lat="38.253833" lon="-2.658667">
        <ele>1822.0</ele>
        <time>2015-05-30T12:50:16Z</time>
      </trkpt>
      <trkpt lat="38.253833" lon="-2.658667">
        <ele>1822.0</ele>
        <time>2015-05-30T12:50:21Z</time>
      </trkpt>
      <trkpt lat="38.253833" lon="-2.658667">
        <ele>1822.0</ele>
        <time>2015-05-30T12:50:26Z</time>
      </trkpt>
      <trkpt lat="38.253833" lon="-2.658667">
        <ele>1822.0</ele>
        <time>2015-05-30T12:50:31Z</time>
      </trkpt>
      <trkpt lat="38.253833" lon="-2.658667">
        <ele>1822.0</ele>
        <time>2015-05-30T12:50:36Z</time>
      </trkpt>
      <trkpt lat="38.253833" lon="-2.658667">
        <ele>1822.0</ele>
        <time>2015-05-30T12:50:41Z</time>
      </trkpt>
      <trkpt lat="38.253833" lon="-2.658667">
        <ele>1822.0</ele>
        <time>2015-05-30T12:50:46Z</time>
      </trkpt>
      <trkpt lat="38.253833" lon="-2.658667">
        <ele>1822.0</ele>
        <time>2015-05-30T12:50:51Z</time>
      </trkpt>
      <trkpt lat="38.253833" lon="-2.658667">
        <ele>1822.0</ele>
        <time>2015-05-30T12:50:56Z</time>
      </trkpt>
      <trkpt lat="38.253833" lon="-2.658667">
        <ele>1822.0</ele>
        <time>2015-05-30T12:51:01Z</time>
      </trkpt>
      <trkpt lat="38.253833" lon="-2.658667">
        <ele>1822.0</ele>
        <time>2015-05-30T12:51:06Z</time>
      </trkpt>
      <trkpt lat="38.253833" lon="-2.658667">
        <ele>1822.0</ele>
        <time>2015-05-30T12:51:11Z</time>
      </trkpt>
      <trkpt lat="38.253833" lon="-2.658667">
        <ele>1822.0</ele>
        <time>2015-05-30T12:51:16Z</time>
      </trkpt>
      <trkpt lat="38.253833" lon="-2.658667">
        <ele>1822.0</ele>
        <time>2015-05-30T12:51:21Z</time>
      </trkpt>
      <trkpt lat="38.253833" lon="-2.658667">
        <ele>1822.0</ele>
        <time>2015-05-30T12:51:26Z</time>
      </trkpt>
      <trkpt lat="38.253833" lon="-2.658667">
        <ele>1822.0</ele>
        <time>2015-05-30T12:51:31Z</time>
      </trkpt>
      <trkpt lat="38.253833" lon="-2.658667">
        <ele>1822.0</ele>
        <time>2015-05-30T12:51:36Z</time>
      </trkpt>
      <trkpt lat="38.253833" lon="-2.658667">
        <ele>1822.0</ele>
        <time>2015-05-30T12:51:41Z</time>
      </trkpt>
      <trkpt lat="38.253833" lon="-2.658667">
        <ele>1822.0</ele>
        <time>2015-05-30T12:51:46Z</time>
      </trkpt>
      <trkpt lat="38.253833" lon="-2.658667">
        <ele>1822.0</ele>
        <time>2015-05-30T12:51:51Z</time>
      </trkpt>
      <trkpt lat="38.253833" lon="-2.658667">
        <ele>1822.0</ele>
        <time>2015-05-30T12:51:56Z</time>
      </trkpt>
      <trkpt lat="38.253833" lon="-2.658667">
        <ele>1822.0</ele>
        <time>2015-05-30T12:52:01Z</time>
      </trkpt>
      <trkpt lat="38.253833" lon="-2.658667">
        <ele>1822.0</ele>
        <time>2015-05-30T12:52:06Z</time>
      </trkpt>
      <trkpt lat="38.253833" lon="-2.658667">
        <ele>1822.0</ele>
        <time>2015-05-30T12:52:11Z</time>
      </trkpt>
      <trkpt lat="38.253833" lon="-2.658667">
        <ele>1822.0</ele>
        <time>2015-05-30T12:52:16Z</time>
      </trkpt>
      <trkpt lat="38.253833" lon="-2.658667">
        <ele>1822.0</ele>
        <time>2015-05-30T12:52:21Z</time>
      </trkpt>
      <trkpt lat="38.253833" lon="-2.658667">
        <ele>1822.0</ele>
        <time>2015-05-30T12:52:26Z</time>
      </trkpt>
      <trkpt lat="38.253833" lon="-2.658667">
        <ele>1822.0</ele>
        <time>2015-05-30T12:52:31Z</time>
      </trkpt>
      <trkpt lat="38.253833" lon="-2.658667">
        <ele>1822.0</ele>
        <time>2015-05-30T12:52:36Z</time>
      </trkpt>
      <trkpt lat="38.253833" lon="-2.658667">
        <ele>1822.0</ele>
        <time>2015-05-30T12:52:41Z</time>
      </trkpt>
      <trkpt lat="38.253833" lon="-2.658667">
        <ele>1822.0</ele>
        <time>2015-05-30T12:52:46Z</time>
      </trkpt>
      <trkpt lat="38.253833" lon="-2.658667">
        <ele>1822.0</ele>
        <time>2015-05-30T12:52:51Z</time>
      </trkpt>
      <trkpt lat="38.253833" lon="-2.658667">
        <ele>1822.0</ele>
        <time>2015-05-30T12:52:56Z</time>
      </trkpt>
      <trkpt lat="38.253833" lon="-2.658667">
        <ele>1822.0</ele>
        <time>2015-05-30T12:53:01Z</time>
      </trkpt>
      <trkpt lat="38.253833" lon="-2.658667">
        <ele>1822.0</ele>
        <time>2015-05-30T12:53:06Z</time>
      </trkpt>
      <trkpt lat="38.253833" lon="-2.658667">
        <ele>1822.0</ele>
        <time>2015-05-30T12:53:11Z</time>
      </trkpt>
      <trkpt lat="38.253833" lon="-2.658667">
        <ele>1822.0</ele>
        <time>2015-05-30T12:53:16Z</time>
      </trkpt>
      <trkpt lat="38.253833" lon="-2.658667">
        <ele>1822.0</ele>
        <time>2015-05-30T12:53:21Z</time>
      </trkpt>
      <trkpt lat="38.253833" lon="-2.658667">
        <ele>1822.0</ele>
        <time>2015-05-30T12:53:26Z</time>
      </trkpt>
      <trkpt lat="38.253833" lon="-2.658667">
        <ele>1822.0</ele>
        <time>2015-05-30T12:53:31Z</time>
      </trkpt>
      <trkpt lat="38.253833" lon="-2.658667">
        <ele>1822.0</ele>
        <time>2015-05-30T12:53:36Z</time>
      </trkpt>
      <trkpt lat="38.253833" lon="-2.658667">
        <ele>1822.0</ele>
        <time>2015-05-30T12:53:41Z</time>
      </trkpt>
      <trkpt lat="38.253833" lon="-2.658667">
        <ele>1822.0</ele>
        <time>2015-05-30T12:53:46Z</time>
      </trkpt>
      <trkpt lat="38.253833" lon="-2.658667">
        <ele>1822.0</ele>
        <time>2015-05-30T12:53:51Z</time>
      </trkpt>
      <trkpt lat="38.253833" lon="-2.658667">
        <ele>1822.0</ele>
        <time>2015-05-30T12:53:56Z</time>
      </trkpt>
      <trkpt lat="38.253833" lon="-2.658667">
        <ele>1822.0</ele>
        <time>2015-05-30T12:54:01Z</time>
      </trkpt>
      <trkpt lat="38.253833" lon="-2.658667">
        <ele>1822.0</ele>
        <time>2015-05-30T12:54:06Z</time>
      </trkpt>
      <trkpt lat="38.253900" lon="-2.658700">
        <ele>1817.0</ele>
        <time>2015-05-30T12:54:11Z</time>
      </trkpt>
      <trkpt lat="38.253883" lon="-2.658933">
        <ele>1811.0</ele>
        <time>2015-05-30T12:54:16Z</time>
      </trkpt>
      <trkpt lat="38.253983" lon="-2.659017">
        <ele>1807.0</ele>
        <time>2015-05-30T12:54:21Z</time>
      </trkpt>
      <trkpt lat="38.254050" lon="-2.659233">
        <ele>1804.0</ele>
        <time>2015-05-30T12:54:26Z</time>
      </trkpt>
      <trkpt lat="38.254133" lon="-2.659467">
        <ele>1802.0</ele>
        <time>2015-05-30T12:54:31Z</time>
      </trkpt>
      <trkpt lat="38.254250" lon="-2.659733">
        <ele>1800.0</ele>
        <time>2015-05-30T12:54:36Z</time>
      </trkpt>
      <trkpt lat="38.254350" lon="-2.660017">
        <ele>1798.0</ele>
        <time>2015-05-30T12:54:41Z</time>
      </trkpt>
      <trkpt lat="38.254467" lon="-2.660333">
        <ele>1797.0</ele>
        <time>2015-05-30T12:54:46Z</time>
      </trkpt>
      <trkpt lat="38.254600" lon="-2.660700">
        <ele>1795.0</ele>
        <time>2015-05-30T12:54:51Z</time>
      </trkpt>
      <trkpt lat="38.254767" lon="-2.661050">
        <ele>1793.0</ele>
        <time>2015-05-30T12:54:56Z</time>
      </trkpt>
      <trkpt lat="38.254917" lon="-2.661417">
        <ele>1790.0</ele>
        <time>2015-05-30T12:55:01Z</time>
      </trkpt>
      <trkpt lat="38.255033" lon="-2.661833">
        <ele>1787.0</ele>
        <time>2015-05-30T12:55:06Z</time>
      </trkpt>
      <trkpt lat="38.255217" lon="-2.662267">
        <ele>1782.0</ele>
        <time>2015-05-30T12:55:11Z</time>
      </trkpt>
      <trkpt lat="38.255483" lon="-2.662650">
        <ele>1778.0</ele>
        <time>2015-05-30T12:55:16Z</time>
      </trkpt>
      <trkpt lat="38.255683" lon="-2.663067">
        <ele>1775.0</ele>
        <time>2015-05-30T12:55:21Z</time>
      </trkpt>
      <trkpt lat="38.255767" lon="-2.663483">
        <ele>1775.0</ele>
        <time>2015-05-30T12:55:26Z</time>
      </trkpt>
      <trkpt lat="38.255933" lon="-2.663883">
        <ele>1772.0</ele>
        <time>2015-05-30T12:55:31Z</time>
      </trkpt>
      <trkpt lat="38.256133" lon="-2.664300">
        <ele>1771.0</ele>
        <time>2015-05-30T12:55:36Z</time>
      </trkpt>
      <trkpt lat="38.256300" lon="-2.664600">
        <ele>1773.0</ele>
        <time>2015-05-30T12:55:41Z</time>
      </trkpt>
      <trkpt lat="38.256617" lon="-2.664800">
        <ele>1778.0</ele>
        <time>2015-05-30T12:55:46Z</time>
      </trkpt>
      <trkpt lat="38.256950" lon="-2.665000">
        <ele>1784.0</ele>
        <time>2015-05-30T12:55:51Z</time>
      </trkpt>
      <trkpt lat="38.257367" lon="-2.665133">
        <ele>1788.0</ele>
        <time>2015-05-30T12:55:56Z</time>
      </trkpt>
      <trkpt lat="38.257533" lon="-2.665500">
        <ele>1792.0</ele>
        <time>2015-05-30T12:56:01Z</time>
      </trkpt>
      <trkpt lat="38.257467" lon="-2.665833">
        <ele>1794.0</ele>
        <time>2015-05-30T12:56:06Z</time>
      </trkpt>
      <trkpt lat="38.257717" lon="-2.666133">
        <ele>1793.0</ele>
        <time>2015-05-30T12:56:11Z</time>
      </trkpt>
      <trkpt lat="38.257983" lon="-2.666433">
        <ele>1788.0</ele>
        <time>2015-05-30T12:56:16Z</time>
      </trkpt>
      <trkpt lat="38.258233" lon="-2.666817">
        <ele>1780.0</ele>
        <time>2015-05-30T12:56:21Z</time>
      </trkpt>
      <trkpt lat="38.258500" lon="-2.667233">
        <ele>1770.0</ele>
        <time>2015-05-30T12:56:26Z</time>
      </trkpt>
      <trkpt lat="38.258683" lon="-2.667600">
        <ele>1763.0</ele>
        <time>2015-05-30T12:56:31Z</time>
      </trkpt>
      <trkpt lat="38.258900" lon="-2.667917">
        <ele>1757.0</ele>
        <time>2015-05-30T12:56:36Z</time>
      </trkpt>
      <trkpt lat="38.259067" lon="-2.668133">
        <ele>1758.0</ele>
        <time>2015-05-30T12:56:41Z</time>
      </trkpt>
      <trkpt lat="38.258883" lon="-2.668350">
        <ele>1760.0</ele>
        <time>2015-05-30T12:56:46Z</time>
      </trkpt>
      <trkpt lat="38.258867" lon="-2.667833">
        <ele>1764.0</ele>
        <time>2015-05-30T12:56:51Z</time>
      </trkpt>
      <trkpt lat="38.259067" lon="-2.667917">
        <ele>1771.0</ele>
        <time>2015-05-30T12:56:56Z</time>
      </trkpt>
      <trkpt lat="38.259133" lon="-2.668283">
        <ele>1776.0</ele>
        <time>2015-05-30T12:57:01Z</time>
      </trkpt>
      <trkpt lat="38.259183" lon="-2.668733">
        <ele>1777.0</ele>
        <time>2015-05-30T12:57:06Z</time>
      </trkpt>
      <trkpt lat="38.259317" lon="-2.669183">
        <ele>1775.0</ele>
        <time>2015-05-30T12:57:11Z</time>
      </trkpt>
      <trkpt lat="38.259500" lon="-2.669533">
        <ele>1771.0</ele>
        <time>2015-05-30T12:57:16Z</time>
      </trkpt>
      <trkpt lat="38.259733" lon="-2.669850">
        <ele>1765.0</ele>
        <time>2015-05-30T12:57:21Z</time>
      </trkpt>
      <trkpt lat="38.259933" lon="-2.670167">
        <ele>1758.0</ele>
        <time>2015-05-30T12:57:26Z</time>
      </trkpt>
      <trkpt lat="38.260117" lon="-2.670533">
        <ele>1750.0</ele>
        <time>2015-05-30T12:57:31Z</time>
      </trkpt>
      <trkpt lat="38.260267" lon="-2.670917">
        <ele>1742.0</ele>
        <time>2015-05-30T12:57:36Z</time>
      </trkpt>
      <trkpt lat="38.260333" lon="-2.671367">
        <ele>1733.0</ele>
        <time>2015-05-30T12:57:41Z</time>
      </trkpt>
      <trkpt lat="38.260400" lon="-2.671767">
        <ele>1726.0</ele>
        <time>2015-05-30T12:57:46Z</time>
      </trkpt>
      <trkpt lat="38.260567" lon="-2.672150">
        <ele>1720.0</ele>
        <time>2015-05-30T12:57:51Z</time>
      </trkpt>
      <trkpt lat="38.260750" lon="-2.672533">
        <ele>1714.0</ele>
        <time>2015-05-30T12:57:56Z</time>
      </trkpt>
      <trkpt lat="38.260967" lon="-2.672900">
        <ele>1708.0</ele>
        <time>2015-05-30T12:58:01Z</time>
      </trkpt>
      <trkpt lat="38.261150" lon="-2.673283">
        <ele>1702.0</ele>
        <time>2015-05-30T12:58:06Z</time>
      </trkpt>
      <trkpt lat="38.261333" lon="-2.673633">
        <ele>1696.0</ele>
        <time>2015-05-30T12:58:11Z</time>
      </trkpt>
      <trkpt lat="38.261583" lon="-2.673983">
        <ele>1691.0</ele>
        <time>2015-05-30T12:58:16Z</time>
      </trkpt>
      <trkpt lat="38.261867" lon="-2.674300">
        <ele>1687.0</ele>
        <time>2015-05-30T12:58:21Z</time>
      </trkpt>
      <trkpt lat="38.262133" lon="-2.674600">
        <ele>1684.0</ele>
        <time>2015-05-30T12:58:26Z</time>
      </trkpt>
      <trkpt lat="38.262400" lon="-2.674933">
        <ele>1682.0</ele>
        <time>2015-05-30T12:58:31Z</time>
      </trkpt>
      <trkpt lat="38.262683" lon="-2.675217">
        <ele>1681.0</ele>
        <time>2015-05-30T12:58:36Z</time>
      </trkpt>
      <trkpt lat="38.263117" lon="-2.675367">
        <ele>1680.0</ele>
        <time>2015-05-30T12:58:41Z</time>
      </trkpt>
      <trkpt lat="38.263500" lon="-2.675600">
        <ele>1678.0</ele>
        <time>2015-05-30T12:58:46Z</time>
      </trkpt>
      <trkpt lat="38.263833" lon="-2.675900">
        <ele>1674.0</ele>
        <time>2015-05-30T12:58:51Z</time>
      </trkpt>
      <trkpt lat="38.264183" lon="-2.676183">
        <ele>1669.0</ele>
        <time>2015-05-30T12:58:56Z</time>
      </trkpt>
      <trkpt lat="38.264517" lon="-2.676450">
        <ele>1663.0</ele>
        <time>2015-05-30T12:59:01Z</time>
      </trkpt>
      <trkpt lat="38.264900" lon="-2.676683">
        <ele>1655.0</ele>
        <time>2015-05-30T12:59:06Z</time>
      </trkpt>
      <trkpt lat="38.265300" lon="-2.676850">
        <ele>1648.0</ele>
        <time>2015-05-30T12:59:11Z</time>
      </trkpt>
      <trkpt lat="38.265700" lon="-2.677050">
        <ele>1642.0</ele>
        <time>2015-05-30T12:59:16Z</time>
      </trkpt>
      <trkpt lat="38.266083" lon="-2.677300">
        <ele>1635.0</ele>
        <time>2015-05-30T12:59:21Z</time>
      </trkpt>
      <trkpt lat="38.266433" lon="-2.677550">
        <ele>1628.0</ele>
        <time>2015-05-30T12:59:26Z</time>
      </trkpt>
      <trkpt lat="38.266800" lon="-2.677800">
        <ele>1620.0</ele>
        <time>2015-05-30T12:59:31Z</time>
      </trkpt>
      <trkpt lat="38.267133" lon="-2.678117">
        <ele>1614.0</ele>
        <time>2015-05-30T12:59:36Z</time>
      </trkpt>
      <trkpt lat="38.267250" lon="-2.678417">
        <ele>1612.0</ele>
        <time>2015-05-30T12:59:41Z</time>
      </trkpt>
      <trkpt lat="38.267050" lon="-2.678650">
        <ele>1611.0</ele>
        <time>2015-05-30T12:59:46Z</time>
      </trkpt>
      <trkpt lat="38.266667" lon="-2.678750">
        <ele>1613.0</ele>
        <time>2015-05-30T12:59:51Z</time>
      </trkpt>
      <trkpt lat="38.266617" lon="-2.679117">
        <ele>1620.0</ele>
        <time>2015-05-30T12:59:56Z</time>
      </trkpt>
      <trkpt lat="38.266983" lon="-2.679100">
        <ele>1633.0</ele>
        <time>2015-05-30T13:00:01Z</time>
      </trkpt>
      <trkpt lat="38.267067" lon="-2.678283">
        <ele>1648.0</ele>
        <time>2015-05-30T13:00:06Z</time>
      </trkpt>
      <trkpt lat="38.266717" lon="-2.677933">
        <ele>1662.0</ele>
        <time>2015-05-30T13:00:11Z</time>
      </trkpt>
      <trkpt lat="38.266517" lon="-2.678250">
        <ele>1675.0</ele>
        <time>2015-05-30T13:00:16Z</time>
      </trkpt>
      <trkpt lat="38.266683" lon="-2.678600">
        <ele>1689.0</ele>
        <time>2015-05-30T13:00:21Z</time>
      </trkpt>
      <trkpt lat="38.266733" lon="-2.678833">
        <ele>1705.0</ele>
        <time>2015-05-30T13:00:26Z</time>
      </trkpt>
      <trkpt lat="38.266350" lon="-2.678683">
        <ele>1721.0</ele>
        <time>2015-05-30T13:00:31Z</time>
      </trkpt>
      <trkpt lat="38.266417" lon="-2.678000">
        <ele>1735.0</ele>
        <time>2015-05-30T13:00:36Z</time>
      </trkpt>
      <trkpt lat="38.266650" lon="-2.678183">
        <ele>1746.0</ele>
        <time>2015-05-30T13:00:41Z</time>
      </trkpt>
      <trkpt lat="38.266267" lon="-2.677850">
        <ele>1756.0</ele>
        <time>2015-05-30T13:00:46Z</time>
      </trkpt>
      <trkpt lat="38.266350" lon="-2.677250">
        <ele>1768.0</ele>
        <time>2015-05-30T13:00:51Z</time>
      </trkpt>
      <trkpt lat="38.266717" lon="-2.677317">
        <ele>1781.0</ele>
        <time>2015-05-30T13:00:56Z</time>
      </trkpt>
      <trkpt lat="38.266483" lon="-2.677283">
        <ele>1791.0</ele>
        <time>2015-05-30T13:01:01Z</time>
      </trkpt>
      <trkpt lat="38.266367" lon="-2.676600">
        <ele>1800.0</ele>
        <time>2015-05-30T13:01:06Z</time>
      </trkpt>
      <trkpt lat="38.266667" lon="-2.676517">
        <ele>1813.0</ele>
        <time>2015-05-30T13:01:11Z</time>
      </trkpt>
      <trkpt lat="38.266500" lon="-2.676633">
        <ele>1826.0</ele>
        <time>2015-05-30T13:01:16Z</time>
      </trkpt>
      <trkpt lat="38.266100" lon="-2.676083">
        <ele>1835.0</ele>
        <time>2015-05-30T13:01:21Z</time>
      </trkpt>
      <trkpt lat="38.266017" lon="-2.675400">
        <ele>1849.0</ele>
        <time>2015-05-30T13:01:26Z</time>
      </trkpt>
      <trkpt lat="38.266383" lon="-2.675200">
        <ele>1861.0</ele>
        <time>2015-05-30T13:01:31Z</time>
      </trkpt>
      <trkpt lat="38.266233" lon="-2.675467">
        <ele>1876.0</ele>
        <time>2015-05-30T13:01:36Z</time>
      </trkpt>
      <trkpt lat="38.265800" lon="-2.675500">
        <ele>1891.0</ele>
        <time>2015-05-30T13:01:41Z</time>
      </trkpt>
      <trkpt lat="38.265367" lon="-2.675050">
        <ele>1906.0</ele>
        <time>2015-05-30T13:01:46Z</time>
      </trkpt>
      <trkpt lat="38.265383" lon="-2.674400">
        <ele>1918.0</ele>
        <time>2015-05-30T13:01:51Z</time>
      </trkpt>
      <trkpt lat="38.265600" lon="-2.674583">
        <ele>1929.0</ele>
        <time>2015-05-30T13:01:56Z</time>
      </trkpt>
      <trkpt lat="38.265200" lon="-2.674467">
        <ele>1941.0</ele>
        <time>2015-05-30T13:02:01Z</time>
      </trkpt>
      <trkpt lat="38.265083" lon="-2.673783">
        <ele>1952.0</ele>
        <time>2015-05-30T13:02:06Z</time>
      </trkpt>
      <trkpt lat="38.265383" lon="-2.673700">
        <ele>1962.0</ele>
        <time>2015-05-30T13:02:11Z</time>
      </trkpt>
      <trkpt lat="38.265217" lon="-2.673967">
        <ele>1973.0</ele>
        <time>2015-05-30T13:02:16Z</time>
      </trkpt>
      <trkpt lat="38.264750" lon="-2.673717">
        <ele>1984.0</ele>
        <time>2015-05-30T13:02:21Z</time>
      </trkpt>
      <trkpt lat="38.264617" lon="-2.673033">
        <ele>1992.0</ele>
        <time>2015-05-30T13:02:26Z</time>
      </trkpt>
      <trkpt lat="38.264967" lon="-2.672867">
        <ele>1999.0</ele>
        <time>2015-05-30T13:02:31Z</time>
      </trkpt>
      <trkpt lat="38.265200" lon="-2.673117">
        <ele>2006.0</ele>
        <time>2015-05-30T13:02:36Z</time>
      </trkpt>
      <trkpt lat="38.264933" lon="-2.673333">
        <ele>2013.0</ele>
        <time>2015-05-30T13:02:41Z</time>
      </trkpt>
      <trkpt lat="38.264533" lon="-2.673067">
        <ele>2020.0</ele>
        <time>2015-05-30T13:02:46Z</time>
      </trkpt>
      <trkpt lat="38.264283" lon="-2.672400">
        <ele>2026.0</ele>
        <time>2015-05-30T13:02:51Z</time>
      </trkpt>
      <trkpt lat="38.264600" lon="-2.672133">
        <ele>2035.0</ele>
        <time>2015-05-30T13:02:56Z</time>
      </trkpt>
      <trkpt lat="38.264950" lon="-2.672367">
        <ele>2044.0</ele>
        <time>2015-05-30T13:03:01Z</time>
      </trkpt>
      <trkpt lat="38.264817" lon="-2.672633">
        <ele>2054.0</ele>
        <time>2015-05-30T13:03:06Z</time>
      </trkpt>
      <trkpt lat="38.264450" lon="-2.672667">
        <ele>2061.0</ele>
        <time>2015-05-30T13:03:11Z</time>
      </trkpt>
      <trkpt lat="38.264083" lon="-2.672350">
        <ele>2070.0</ele>
        <time>2015-05-30T13:03:16Z</time>
      </trkpt>
      <trkpt lat="38.263800" lon="-2.671750">
        <ele>2077.0</ele>
        <time>2015-05-30T13:03:21Z</time>
      </trkpt>
      <trkpt lat="38.264133" lon="-2.671183">
        <ele>2083.0</ele>
        <time>2015-05-30T13:03:26Z</time>
      </trkpt>
      <trkpt lat="38.264250" lon="-2.671467">
        <ele>2090.0</ele>
        <time>2015-05-30T13:03:31Z</time>
      </trkpt>
      <trkpt lat="38.263867" lon="-2.671533">
        <ele>2096.0</ele>
        <time>2015-05-30T13:03:36Z</time>
      </trkpt>
      <trkpt lat="38.264050" lon="-2.671083">
        <ele>2103.0</ele>
        <time>2015-05-30T13:03:41Z</time>
      </trkpt>
      <trkpt lat="38.264433" lon="-2.671217">
        <ele>2118.0</ele>
        <time>2015-05-30T13:03:46Z</time>
      </trkpt>
      <trkpt lat="38.264333" lon="-2.671517">
        <ele>2130.0</ele>
        <time>2015-05-30T13:03:51Z</time>
      </trkpt>
      <trkpt lat="38.264133" lon="-2.670950">
        <ele>2142.0</ele>
        <time>2015-05-30T13:03:56Z</time>
      </trkpt>
      <trkpt lat="38.264450" lon="-2.670450">
        <ele>2154.0</ele>
        <time>2015-05-30T13:04:01Z</time>
      </trkpt>
      <trkpt lat="38.264600" lon="-2.670667">
        <ele>2169.0</ele>
        <time>2015-05-30T13:04:06Z</time>
      </trkpt>
      <trkpt lat="38.264167" lon="-2.670750">
        <ele>2181.0</ele>
        <time>2015-05-30T13:04:11Z</time>
      </trkpt>
      <trkpt lat="38.263933" lon="-2.670200">
        <ele>2194.0</ele>
        <time>2015-05-30T13:04:16Z</time>
      </trkpt>
      <trkpt lat="38.264200" lon="-2.669550">
        <ele>2206.0</ele>
        <time>2015-05-30T13:04:21Z</time>
      </trkpt>
      <trkpt lat="38.264417" lon="-2.669750">
        <ele>2220.0</ele>
        <time>2015-05-30T13:04:26Z</time>
      </trkpt>
      <trkpt lat="38.263950" lon="-2.669650">
        <ele>2233.0</ele>
        <time>2015-05-30T13:04:31Z</time>
      </trkpt>
      <trkpt lat="38.263950" lon="-2.669017">
        <ele>2247.0</ele>
        <time>2015-05-30T13:04:36Z</time>
      </trkpt>
      <trkpt lat="38.264283" lon="-2.668983">
        <ele>2263.0</ele>
        <time>2015-05-30T13:04:41Z</time>
      </trkpt>
      <trkpt lat="38.264283" lon="-2.669350">
        <ele>2276.0</ele>
        <time>2015-05-30T13:04:46Z</time>
      </trkpt>
      <trkpt lat="38.263833" lon="-2.669017">
        <ele>2288.0</ele>
        <time>2015-05-30T13:04:51Z</time>
      </trkpt>
      <trkpt lat="38.263950" lon="-2.668300">
        <ele>2299.0</ele>
        <time>2015-05-30T13:04:56Z</time>
      </trkpt>
      <trkpt lat="38.264333" lon="-2.668233">
        <ele>2312.0</ele>
        <time>2015-05-30T13:05:01Z</time>
      </trkpt>
      <trkpt lat="38.264417" lon="-2.668550">
        <ele>2323.0</ele>
        <time>2015-05-30T13:05:06Z</time>
      </trkpt>
      <trkpt lat="38.263983" lon="-2.668583">
        <ele>2332.0</ele>
        <time>2015-05-30T13:05:11Z</time>
      </trkpt>
      <trkpt lat="38.263600" lon="-2.668000">
        <ele>2339.0</ele>
        <time>2015-05-30T13:05:16Z</time>
      </trkpt>
      <trkpt lat="38.263633" lon="-2.667233">
        <ele>2345.0</ele>
        <time>2015-05-30T13:05:21Z</time>
      </trkpt>
      <trkpt lat="38.263967" lon="-2.666717">
        <ele>2355.0</ele>
        <time>2015-05-30T13:05:26Z</time>
      </trkpt>
      <trkpt lat="38.264417" lon="-2.666400">
        <ele>2372.0</ele>
        <time>2015-05-30T13:05:31Z</time>
      </trkpt>
      <trkpt lat="38.264650" lon="-2.666567">
        <ele>2389.0</ele>
        <time>2015-05-30T13:05:36Z</time>
      </trkpt>
      <trkpt lat="38.264300" lon="-2.666600">
        <ele>2403.0</ele>
        <time>2015-05-30T13:05:41Z</time>
      </trkpt>
      <trkpt lat="38.263867" lon="-2.666167">
        <ele>2414.0</ele>
        <time>2015-05-30T13:05:46Z</time>
      </trkpt>
      <trkpt lat="38.263767" lon="-2.665350">
        <ele>2423.0</ele>
        <time>2015-05-30T13:05:51Z</time>
      </trkpt>
      <trkpt lat="38.264133" lon="-2.664833">
        <ele>2440.0</ele>
        <time>2015-05-30T13:05:56Z</time>
      </trkpt>
      <trkpt lat="38.264433" lon="-2.664900">
        <ele>2456.0</ele>
        <time>2015-05-30T13:06:01Z</time>
      </trkpt>
      <trkpt lat="38.264117" lon="-2.664700">
        <ele>2469.0</ele>
        <time>2015-05-30T13:06:06Z</time>
      </trkpt>
      <trkpt lat="38.264033" lon="-2.663883">
        <ele>2484.0</ele>
        <time>2015-05-30T13:06:11Z</time>
      </trkpt>
      <trkpt lat="38.264400" lon="-2.663550">
        <ele>2501.0</ele>
        <time>2015-05-30T13:06:16Z</time>
      </trkpt>
      <trkpt lat="38.264367" lon="-2.663583">
        <ele>2518.0</ele>
        <time>2015-05-30T13:06:21Z</time>
      </trkpt>
      <trkpt lat="38.263933" lon="-2.662900">
        <ele>2534.0</ele>
        <time>2015-05-30T13:06:26Z</time>
      </trkpt>
      <trkpt lat="38.263950" lon="-2.662017">
        <ele>2552.0</ele>
        <time>2015-05-30T13:06:31Z</time>
      </trkpt>
      <trkpt lat="38.264300" lon="-2.661867">
        <ele>2570.0</ele>
        <time>2015-05-30T13:06:36Z</time>
      </trkpt>
      <trkpt lat="38.264017" lon="-2.661867">
        <ele>2590.0</ele>
        <time>2015-05-30T13:06:41Z</time>
      </trkpt>
      <trkpt lat="38.263517" lon="-2.661417">
        <ele>2609.0</ele>
        <time>2015-05-30T13:06:46Z</time>
      </trkpt>
      <trkpt lat="38.263417" lon="-2.660467">
        <ele>2626.0</ele>
        <time>2015-05-30T13:06:51Z</time>
      </trkpt>
      <trkpt lat="38.263883" lon="-2.660167">
        <ele>2643.0</ele>
        <time>2015-05-30T13:06:56Z</time>
      </trkpt>
      <trkpt lat="38.263867" lon="-2.660283">
        <ele>2659.0</ele>
        <time>2015-05-30T13:07:01Z</time>
      </trkpt>
      <trkpt lat="38.263567" lon="-2.660367">
        <ele>2674.0</ele>
        <time>2015-05-30T13:07:06Z</time>
      </trkpt>
      <trkpt lat="38.263117" lon="-2.659750">
        <ele>2689.0</ele>
        <time>2015-05-30T13:07:11Z</time>
      </trkpt>
      <trkpt lat="38.263350" lon="-2.659033">
        <ele>2705.0</ele>
        <time>2015-05-30T13:07:16Z</time>
      </trkpt>
      <trkpt lat="38.263600" lon="-2.659133">
        <ele>2721.0</ele>
        <time>2015-05-30T13:07:21Z</time>
      </trkpt>
      <trkpt lat="38.263283" lon="-2.659100">
        <ele>2737.0</ele>
        <time>2015-05-30T13:07:26Z</time>
      </trkpt>
      <trkpt lat="38.262717" lon="-2.658667">
        <ele>2750.0</ele>
        <time>2015-05-30T13:07:31Z</time>
      </trkpt>
      <trkpt lat="38.262500" lon="-2.657683">
        <ele>2765.0</ele>
        <time>2015-05-30T13:07:36Z</time>
      </trkpt>
      <trkpt lat="38.262833" lon="-2.656867">
        <ele>2780.0</ele>
        <time>2015-05-30T13:07:41Z</time>
      </trkpt>
      <trkpt lat="38.263200" lon="-2.656600">
        <ele>2793.0</ele>
        <time>2015-05-30T13:07:46Z</time>
      </trkpt>
      <trkpt lat="38.263283" lon="-2.656600">
        <ele>2805.0</ele>
        <time>2015-05-30T13:07:51Z</time>
      </trkpt>
      <trkpt lat="38.263467" lon="-2.656600">
        <ele>2818.0</ele>
        <time>2015-05-30T13:07:56Z</time>
      </trkpt>
      <trkpt lat="38.263667" lon="-2.656533">
        <ele>2825.0</ele>
        <time>2015-05-30T13:08:01Z</time>
      </trkpt>
      <trkpt lat="38.263950" lon="-2.656650">
        <ele>2830.0</ele>
        <time>2015-05-30T13:08:06Z</time>
      </trkpt>
      <trkpt lat="38.264333" lon="-2.656683">
        <ele>2834.0</ele>
        <time>2015-05-30T13:08:11Z</time>
      </trkpt>
      <trkpt lat="38.264750" lon="-2.656767">
        <ele>2832.0</ele>
        <time>2015-05-30T13:08:16Z</time>
      </trkpt>
      <trkpt lat="38.265200" lon="-2.656917">
        <ele>2830.0</ele>
        <time>2015-05-30T13:08:21Z</time>
      </trkpt>
      <trkpt lat="38.265617" lon="-2.657050">
        <ele>2829.0</ele>
        <time>2015-05-30T13:08:26Z</time>
      </trkpt>
      <trkpt lat="38.266067" lon="-2.657233">
        <ele>2826.0</ele>
        <time>2015-05-30T13:08:31Z</time>
      </trkpt>
      <trkpt lat="38.266500" lon="-2.657400">
        <ele>2823.0</ele>
        <time>2015-05-30T13:08:36Z</time>
      </trkpt>
      <trkpt lat="38.266917" lon="-2.657583">
        <ele>2819.0</ele>
        <time>2015-05-30T13:08:41Z</time>
      </trkpt>
      <trkpt lat="38.267333" lon="-2.657750">
        <ele>2813.0</ele>
        <time>2015-05-30T13:08:46Z</time>
      </trkpt>
      <trkpt lat="38.267733" lon="-2.657917">
        <ele>2807.0</ele>
        <time>2015-05-30T13:08:51Z</time>
      </trkpt>
      <trkpt lat="38.268117" lon="-2.658067">
        <ele>2801.0</ele>
        <time>2015-05-30T13:08:56Z</time>
      </trkpt>
      <trkpt lat="38.268533" lon="-2.658183">
        <ele>2794.0</ele>
        <time>2015-05-30T13:09:01Z</time>
      </trkpt>
      <trkpt lat="38.268933" lon="-2.658300">
        <ele>2788.0</ele>
        <time>2015-05-30T13:09:06Z</time>
      </trkpt>
      <trkpt lat="38.269300" lon="-2.658433">
        <ele>2783.0</ele>
        <time>2015-05-30T13:09:11Z</time>
      </trkpt>
      <trkpt lat="38.269700" lon="-2.658533">
        <ele>2777.0</ele>
        <time>2015-05-30T13:09:16Z</time>
      </trkpt>
      <trkpt lat="38.270133" lon="-2.658583">
        <ele>2771.0</ele>
        <time>2015-05-30T13:09:21Z</time>
      </trkpt>
      <trkpt lat="38.270550" lon="-2.658633">
        <ele>2766.0</ele>
        <time>2015-05-30T13:09:26Z</time>
      </trkpt>
      <trkpt lat="38.270933" lon="-2.658750">
        <ele>2761.0</ele>
        <time>2015-05-30T13:09:31Z</time>
      </trkpt>
      <trkpt lat="38.271283" lon="-2.658917">
        <ele>2756.0</ele>
        <time>2015-05-30T13:09:36Z</time>
      </trkpt>
      <trkpt lat="38.271617" lon="-2.659083">
        <ele>2751.0</ele>
        <time>2015-05-30T13:09:41Z</time>
      </trkpt>
      <trkpt lat="38.271933" lon="-2.659283">
        <ele>2747.0</ele>
        <time>2015-05-30T13:09:46Z</time>
      </trkpt>
      <trkpt lat="38.272200" lon="-2.659517">
        <ele>2743.0</ele>
        <time>2015-05-30T13:09:51Z</time>
      </trkpt>
      <trkpt lat="38.272500" lon="-2.659683">
        <ele>2739.0</ele>
        <time>2015-05-30T13:09:56Z</time>
      </trkpt>
      <trkpt lat="38.272833" lon="-2.659850">
        <ele>2735.0</ele>
        <time>2015-05-30T13:10:01Z</time>
      </trkpt>
      <trkpt lat="38.273133" lon="-2.660033">
        <ele>2731.0</ele>
        <time>2015-05-30T13:10:06Z</time>
      </trkpt>
      <trkpt lat="38.273467" lon="-2.660200">
        <ele>2725.0</ele>
        <time>2015-05-30T13:10:11Z</time>
      </trkpt>
      <trkpt lat="38.273850" lon="-2.660350">
        <ele>2719.0</ele>
        <time>2015-05-30T13:10:16Z</time>
      </trkpt>
      <trkpt lat="38.274250" lon="-2.660483">
        <ele>2712.0</ele>
        <time>2015-05-30T13:10:21Z</time>
      </trkpt>
      <trkpt lat="38.274633" lon="-2.660633">
        <ele>2706.0</ele>
        <time>2015-05-30T13:10:26Z</time>
      </trkpt>
      <trkpt lat="38.275017" lon="-2.660800">
        <ele>2699.0</ele>
        <time>2015-05-30T13:10:31Z</time>
      </trkpt>
      <trkpt lat="38.275367" lon="-2.661017">
        <ele>2691.0</ele>
        <time>2015-05-30T13:10:36Z</time>
      </trkpt>
      <trkpt lat="38.275717" lon="-2.661217">
        <ele>2684.0</ele>
        <time>2015-05-30T13:10:41Z</time>
      </trkpt>
      <trkpt lat="38.276100" lon="-2.661383">
        <ele>2675.0</ele>
        <time>2015-05-30T13:10:46Z</time>
      </trkpt>
      <trkpt lat="38.276467" lon="-2.661567">
        <ele>2666.0</ele>
        <time>2015-05-30T13:10:51Z</time>
      </trkpt>
      <trkpt lat="38.276817" lon="-2.661717">
        <ele>2656.0</ele>
        <time>2015-05-30T13:10:56Z</time>
      </trkpt>
      <trkpt lat="38.277200" lon="-2.661867">
        <ele>2645.0</ele>
        <time>2015-05-30T13:11:01Z</time>
      </trkpt>
      <trkpt lat="38.277583" lon="-2.662033">
        <ele>2635.0</ele>
        <time>2015-05-30T13:11:06Z</time>
      </trkpt>
      <trkpt lat="38.277933" lon="-2.662200">
        <ele>2624.0</ele>
        <time>2015-05-30T13:11:11Z</time>
      </trkpt>
      <trkpt lat="38.278300" lon="-2.662367">
        <ele>2613.0</ele>
        <time>2015-05-30T13:11:16Z</time>
      </trkpt>
      <trkpt lat="38.278650" lon="-2.662550">
        <ele>2603.0</ele>
        <time>2015-05-30T13:11:21Z</time>
      </trkpt>
      <trkpt lat="38.279017" lon="-2.662717">
        <ele>2593.0</ele>
        <time>2015-05-30T13:11:26Z</time>
      </trkpt>
      <trkpt lat="38.279350" lon="-2.662950">
        <ele>2585.0</ele>
        <time>2015-05-30T13:11:31Z</time>
      </trkpt>
      <trkpt lat="38.279633" lon="-2.663167">
        <ele>2579.0</ele>
        <time>2015-05-30T13:11:36Z</time>
      </trkpt>
      <trkpt lat="38.279917" lon="-2.663400">
        <ele>2572.0</ele>
        <time>2015-05-30T13:11:41Z</time>
      </trkpt>
      <trkpt lat="38.280183" lon="-2.663600">
        <ele>2565.0</ele>
        <time>2015-05-30T13:11:46Z</time>
      </trkpt>
      <trkpt lat="38.280450" lon="-2.663800">
        <ele>2561.0</ele>
        <time>2015-05-30T13:11:52Z</time>
      </trkpt>
      <trkpt lat="38.280733" lon="-2.664017">
        <ele>2553.0</ele>
        <time>2015-05-30T13:11:57Z</time>
      </trkpt>
      <trkpt lat="38.281000" lon="-2.664217">
        <ele>2544.0</ele>
        <time>2015-05-30T13:12:02Z</time>
      </trkpt>
      <trkpt lat="38.281300" lon="-2.664433">
        <ele>2537.0</ele>
        <time>2015-05-30T13:12:07Z</time>
      </trkpt>
      <trkpt lat="38.281600" lon="-2.664600">
        <ele>2526.0</ele>
        <time>2015-05-30T13:12:12Z</time>
      </trkpt>
      <trkpt lat="38.281917" lon="-2.664833">
        <ele>2518.0</ele>
        <time>2015-05-30T13:12:17Z</time>
      </trkpt>
      <trkpt lat="38.282233" lon="-2.665117">
        <ele>2508.0</ele>
        <time>2015-05-30T13:12:22Z</time>
      </trkpt>
      <trkpt lat="38.282533" lon="-2.665383">
        <ele>2499.0</ele>
        <time>2015-05-30T13:12:27Z</time>
      </trkpt>
      <trkpt lat="38.282817" lon="-2.665733">
        <ele>2490.0</ele>
        <time>2015-05-30T13:12:32Z</time>
      </trkpt>
      <trkpt lat="38.283100" lon="-2.666117">
        <ele>2479.0</ele>
        <time>2015-05-30T13:12:37Z</time>
      </trkpt>
      <trkpt lat="38.283383" lon="-2.666450">
        <ele>2469.0</ele>
        <time>2015-05-30T13:12:42Z</time>
      </trkpt>
      <trkpt lat="38.283683" lon="-2.666750">
        <ele>2458.0</ele>
        <time>2015-05-30T13:12:47Z</time>
      </trkpt>
      <trkpt lat="38.283967" lon="-2.667033">
        <ele>2451.0</ele>
        <time>2015-05-30T13:12:52Z</time>
      </trkpt>
      <trkpt lat="38.284233" lon="-2.667350">
        <ele>2444.0</ele>
        <time>2015-05-30T13:12:57Z</time>
      </trkpt>
      <trkpt lat="38.284517" lon="-2.667650">
        <ele>2434.0</ele>
        <time>2015-05-30T13:13:02Z</time>
      </trkpt>
      <trkpt lat="38.284817" lon="-2.667933">
        <ele>2425.0</ele>
        <time>2015-05-30T13:13:07Z</time>
      </trkpt>
      <trkpt lat="38.285083" lon="-2.668283">
        <ele>2417.0</ele>
        <time>2015-05-30T13:13:12Z</time>
      </trkpt>
      <trkpt lat="38.285317" lon="-2.668617">
        <ele>2409.0</ele>
        <time>2015-05-30T13:13:17Z</time>
      </trkpt>
      <trkpt lat="38.285567" lon="-2.668917">
        <ele>2399.0</ele>
        <time>2015-05-30T13:13:22Z</time>
      </trkpt>
      <trkpt lat="38.285867" lon="-2.669233">
        <ele>2387.0</ele>
        <time>2015-05-30T13:13:27Z</time>
      </trkpt>
      <trkpt lat="38.286133" lon="-2.669533">
        <ele>2378.0</ele>
        <time>2015-05-30T13:13:32Z</time>
      </trkpt>
      <trkpt lat="38.286367" lon="-2.669783">
        <ele>2370.0</ele>
        <time>2015-05-30T13:13:37Z</time>
      </trkpt>
      <trkpt lat="38.286617" lon="-2.670033">
        <ele>2362.0</ele>
        <time>2015-05-30T13:13:42Z</time>
      </trkpt>
      <trkpt lat="38.286900" lon="-2.670233">
        <ele>2357.0</ele>
        <time>2015-05-30T13:13:47Z</time>
      </trkpt>
      <trkpt lat="38.287167" lon="-2.670467">
        <ele>2350.0</ele>
        <time>2015-05-30T13:13:52Z</time>
      </trkpt>
      <trkpt lat="38.287450" lon="-2.670717">
        <ele>2342.0</ele>
        <time>2015-05-30T13:13:57Z</time>
      </trkpt>
      <trkpt lat="38.287717" lon="-2.671000">
        <ele>2337.0</ele>
        <time>2015-05-30T13:14:02Z</time>
      </trkpt>
      <trkpt lat="38.287917" lon="-2.671300">
        <ele>2337.0</ele>
        <time>2015-05-30T13:14:07Z</time>
      </trkpt>
      <trkpt lat="38.287933" lon="-2.671400">
        <ele>2345.0</ele>
        <time>2015-05-30T13:14:12Z</time>
      </trkpt>
      <trkpt lat="38.287550" lon="-2.671467">
        <ele>2352.0</ele>
        <time>2015-05-30T13:14:17Z</time>
      </trkpt>
      <trkpt lat="38.287150" lon="-2.670750">
        <ele>2361.0</ele>
        <time>2015-05-30T13:14:22Z</time>
      </trkpt>
      <trkpt lat="38.287350" lon="-2.670017">
        <ele>2370.0</ele>
        <time>2015-05-30T13:14:27Z</time>
      </trkpt>
      <trkpt lat="38.287650" lon="-2.669817">
        <ele>2381.0</ele>
        <time>2015-05-30T13:14:32Z</time>
      </trkpt>
      <trkpt lat="38.287867" lon="-2.669883">
        <ele>2390.0</ele>
        <time>2015-05-30T13:14:37Z</time>
      </trkpt>
      <trkpt lat="38.288183" lon="-2.669800">
        <ele>2402.0</ele>
        <time>2015-05-30T13:14:42Z</time>
      </trkpt>
      <trkpt lat="38.288517" lon="-2.669100">
        <ele>2412.0</ele>
        <time>2015-05-30T13:14:47Z</time>
      </trkpt>
      <trkpt lat="38.288250" lon="-2.668383">
        <ele>2418.0</ele>
        <time>2015-05-30T13:14:52Z</time>
      </trkpt>
      <trkpt lat="38.287917" lon="-2.668500">
        <ele>2424.0</ele>
        <time>2015-05-30T13:14:57Z</time>
      </trkpt>
      <trkpt lat="38.287900" lon="-2.668700">
        <ele>2434.0</ele>
        <time>2015-05-30T13:15:02Z</time>
      </trkpt>
      <trkpt lat="38.288117" lon="-2.668717">
        <ele>2444.0</ele>
        <time>2015-05-30T13:15:07Z</time>
      </trkpt>
      <trkpt lat="38.288483" lon="-2.668583">
        <ele>2446.0</ele>
        <time>2015-05-30T13:15:12Z</time>
      </trkpt>
      <trkpt lat="38.288767" lon="-2.668667">
        <ele>2444.0</ele>
        <time>2015-05-30T13:15:17Z</time>
      </trkpt>
      <trkpt lat="38.288917" lon="-2.668850">
        <ele>2442.0</ele>
        <time>2015-05-30T13:15:22Z</time>
      </trkpt>
      <trkpt lat="38.289133" lon="-2.668967">
        <ele>2442.0</ele>
        <time>2015-05-30T13:15:27Z</time>
      </trkpt>
      <trkpt lat="38.289433" lon="-2.669083">
        <ele>2441.0</ele>
        <time>2015-05-30T13:15:32Z</time>
      </trkpt>
      <trkpt lat="38.289533" lon="-2.669167">
        <ele>2441.0</ele>
        <time>2015-05-30T13:15:37Z</time>
      </trkpt>
      <trkpt lat="38.289633" lon="-2.669350">
        <ele>2441.0</ele>
        <time>2015-05-30T13:15:42Z</time>
      </trkpt>
      <trkpt lat="38.289683" lon="-2.669533">
        <ele>2443.0</ele>
        <time>2015-05-30T13:15:47Z</time>
      </trkpt>
      <trkpt lat="38.289883" lon="-2.669783">
        <ele>2442.0</ele>
        <time>2015-05-30T13:15:52Z</time>
      </trkpt>
      <trkpt lat="38.290050" lon="-2.670133">
        <ele>2441.0</ele>
        <time>2015-05-30T13:15:57Z</time>
      </trkpt>
      <trkpt lat="38.290033" lon="-2.670433">
        <ele>2441.0</ele>
        <time>2015-05-30T13:16:02Z</time>
      </trkpt>
      <trkpt lat="38.290000" lon="-2.670750">
        <ele>2444.0</ele>
        <time>2015-05-30T13:16:07Z</time>
      </trkpt>
      <trkpt lat="38.290050" lon="-2.671050">
        <ele>2447.0</ele>
        <time>2015-05-30T13:16:12Z</time>
      </trkpt>
      <trkpt lat="38.290100" lon="-2.671417">
        <ele>2449.0</ele>
        <time>2015-05-30T13:16:17Z</time>
      </trkpt>
      <trkpt lat="38.290167" lon="-2.671767">
        <ele>2450.0</ele>
        <time>2015-05-30T13:16:22Z</time>
      </trkpt>
      <trkpt lat="38.290267" lon="-2.672083">
        <ele>2451.0</ele>
        <time>2015-05-30T13:16:27Z</time>
      </trkpt>
      <trkpt lat="38.290367" lon="-2.672433">
        <ele>2449.0</ele>
        <time>2015-05-30T13:16:32Z</time>
      </trkpt>
      <trkpt lat="38.290417" lon="-2.672833">
        <ele>2445.0</ele>
        <time>2015-05-30T13:16:37Z</time>
      </trkpt>
      <trkpt lat="38.290517" lon="-2.673250">
        <ele>2440.0</ele>
        <time>2015-05-30T13:16:42Z</time>
      </trkpt>
      <trkpt lat="38.290667" lon="-2.673700">
        <ele>2434.0</ele>
        <time>2015-05-30T13:16:47Z</time>
      </trkpt>
      <trkpt lat="38.290833" lon="-2.674183">
        <ele>2427.0</ele>
        <time>2015-05-30T13:16:52Z</time>
      </trkpt>
      <trkpt lat="38.290917" lon="-2.674700">
        <ele>2423.0</ele>
        <time>2015-05-30T13:16:57Z</time>
      </trkpt>
      <trkpt lat="38.291067" lon="-2.675150">
        <ele>2420.0</ele>
        <time>2015-05-30T13:17:02Z</time>
      </trkpt>
      <trkpt lat="38.291233" lon="-2.675483">
        <ele>2422.0</ele>
        <time>2015-05-30T13:17:07Z</time>
      </trkpt>
      <trkpt lat="38.291450" lon="-2.675617">
        <ele>2427.0</ele>
        <time>2015-05-30T13:17:12Z</time>
      </trkpt>
      <trkpt lat="38.291767" lon="-2.675733">
        <ele>2432.0</ele>
        <time>2015-05-30T13:17:17Z</time>
      </trkpt>
      <trkpt lat="38.292033" lon="-2.675950">
        <ele>2435.0</ele>
        <time>2015-05-30T13:17:22Z</time>
      </trkpt>
      <trkpt lat="38.292400" lon="-2.676000">
        <ele>2437.0</ele>
        <time>2015-05-30T13:17:27Z</time>
      </trkpt>
      <trkpt lat="38.292733" lon="-2.676217">
        <ele>2439.0</ele>
        <time>2015-05-30T13:17:32Z</time>
      </trkpt>
      <trkpt lat="38.292917" lon="-2.676517">
        <ele>2445.0</ele>
        <time>2015-05-30T13:17:37Z</time>
      </trkpt>
      <trkpt lat="38.292850" lon="-2.676983">
        <ele>2454.0</ele>
        <time>2015-05-30T13:17:42Z</time>
      </trkpt>
      <trkpt lat="38.292550" lon="-2.677250">
        <ele>2462.0</ele>
        <time>2015-05-30T13:17:47Z</time>
      </trkpt>
      <trkpt lat="38.292150" lon="-2.676600">
        <ele>2469.0</ele>
        <time>2015-05-30T13:17:52Z</time>
      </trkpt>
      <trkpt lat="38.292383" lon="-2.676000">
        <ele>2473.0</ele>
        <time>2015-05-30T13:17:57Z</time>
      </trkpt>
      <trkpt lat="38.292750" lon="-2.676050">
        <ele>2481.0</ele>
        <time>2015-05-30T13:18:02Z</time>
      </trkpt>
      <trkpt lat="38.293083" lon="-2.676300">
        <ele>2488.0</ele>
        <time>2015-05-30T13:18:07Z</time>
      </trkpt>
      <trkpt lat="38.293267" lon="-2.676533">
        <ele>2493.0</ele>
        <time>2015-05-30T13:18:12Z</time>
      </trkpt>
      <trkpt lat="38.293483" lon="-2.676850">
        <ele>2491.0</ele>
        <time>2015-05-30T13:18:17Z</time>
      </trkpt>
      <trkpt lat="38.293767" lon="-2.677133">
        <ele>2484.0</ele>
        <time>2015-05-30T13:18:22Z</time>
      </trkpt>
      <trkpt lat="38.294033" lon="-2.677467">
        <ele>2479.0</ele>
        <time>2015-05-30T13:18:27Z</time>
      </trkpt>
      <trkpt lat="38.294300" lon="-2.677817">
        <ele>2472.0</ele>
        <time>2015-05-30T13:18:32Z</time>
      </trkpt>
      <trkpt lat="38.294567" lon="-2.678050">
        <ele>2466.0</ele>
        <time>2015-05-30T13:18:37Z</time>
      </trkpt>
      <trkpt lat="38.294867" lon="-2.678300">
        <ele>2458.0</ele>
        <time>2015-05-30T13:18:42Z</time>
      </trkpt>
      <trkpt lat="38.295067" lon="-2.678583">
        <ele>2449.0</ele>
        <time>2015-05-30T13:18:47Z</time>
      </trkpt>
      <trkpt lat="38.295283" lon="-2.678900">
        <ele>2440.0</ele>
        <time>2015-05-30T13:18:52Z</time>
      </trkpt>
      <trkpt lat="38.295567" lon="-2.679350">
        <ele>2428.0</ele>
        <time>2015-05-30T13:18:57Z</time>
      </trkpt>
      <trkpt lat="38.295833" lon="-2.679733">
        <ele>2421.0</ele>
        <time>2015-05-30T13:19:02Z</time>
      </trkpt>
      <trkpt lat="38.296200" lon="-2.680133">
        <ele>2414.0</ele>
        <time>2015-05-30T13:19:07Z</time>
      </trkpt>
      <trkpt lat="38.296467" lon="-2.680600">
        <ele>2407.0</ele>
        <time>2015-05-30T13:19:12Z</time>
      </trkpt>
      <trkpt lat="38.296800" lon="-2.681067">
        <ele>2400.0</ele>
        <time>2015-05-30T13:19:17Z</time>
      </trkpt>
      <trkpt lat="38.297167" lon="-2.681483">
        <ele>2393.0</ele>
        <time>2015-05-30T13:19:22Z</time>
      </trkpt>
      <trkpt lat="38.297483" lon="-2.681883">
        <ele>2385.0</ele>
        <time>2015-05-30T13:19:27Z</time>
      </trkpt>
      <trkpt lat="38.297783" lon="-2.682350">
        <ele>2378.0</ele>
        <time>2015-05-30T13:19:32Z</time>
      </trkpt>
      <trkpt lat="38.298067" lon="-2.682800">
        <ele>2370.0</ele>
        <time>2015-05-30T13:19:37Z</time>
      </trkpt>
      <trkpt lat="38.298333" lon="-2.683217">
        <ele>2363.0</ele>
        <time>2015-05-30T13:19:42Z</time>
      </trkpt>
      <trkpt lat="38.298650" lon="-2.683617">
        <ele>2355.0</ele>
        <time>2015-05-30T13:19:47Z</time>
      </trkpt>
      <trkpt lat="38.298983" lon="-2.683983">
        <ele>2346.0</ele>
        <time>2015-05-30T13:19:52Z</time>
      </trkpt>
      <trkpt lat="38.299300" lon="-2.684333">
        <ele>2337.0</ele>
        <time>2015-05-30T13:19:57Z</time>
      </trkpt>
      <trkpt lat="38.299533" lon="-2.684733">
        <ele>2328.0</ele>
        <time>2015-05-30T13:20:02Z</time>
      </trkpt>
      <trkpt lat="38.299717" lon="-2.685150">
        <ele>2318.0</ele>
        <time>2015-05-30T13:20:07Z</time>
      </trkpt>
      <trkpt lat="38.299883" lon="-2.685633">
        <ele>2307.0</ele>
        <time>2015-05-30T13:20:12Z</time>
      </trkpt>
      <trkpt lat="38.300033" lon="-2.686100">
        <ele>2296.0</ele>
        <time>2015-05-30T13:20:17Z</time>
      </trkpt>
      <trkpt lat="38.300183" lon="-2.686567">
        <ele>2285.0</ele>
        <time>2015-05-30T13:20:22Z</time>
      </trkpt>
      <trkpt lat="38.300350" lon="-2.687050">
        <ele>2272.0</ele>
        <time>2015-05-30T13:20:27Z</time>
      </trkpt>
      <trkpt lat="38.300550" lon="-2.687483">
        <ele>2261.0</ele>
        <time>2015-05-30T13:20:32Z</time>
      </trkpt>
      <trkpt lat="38.300733" lon="-2.687950">
        <ele>2252.0</ele>
        <time>2015-05-30T13:20:37Z</time>
      </trkpt>
      <trkpt lat="38.300917" lon="-2.688400">
        <ele>2242.0</ele>
        <time>2015-05-30T13:20:42Z</time>
      </trkpt>
      <trkpt lat="38.301067" lon="-2.688867">
        <ele>2232.0</ele>
        <time>2015-05-30T13:20:47Z</time>
      </trkpt>
      <trkpt lat="38.301233" lon="-2.689383">
        <ele>2222.0</ele>
        <time>2015-05-30T13:20:52Z</time>
      </trkpt>
      <trkpt lat="38.301450" lon="-2.689850">
        <ele>2214.0</ele>
        <time>2015-05-30T13:20:57Z</time>
      </trkpt>
      <trkpt lat="38.301617" lon="-2.690233">
        <ele>2206.0</ele>
        <time>2015-05-30T13:21:02Z</time>
      </trkpt>
      <trkpt lat="38.301817" lon="-2.690717">
        <ele>2193.0</ele>
        <time>2015-05-30T13:21:07Z</time>
      </trkpt>
      <trkpt lat="38.302083" lon="-2.691167">
        <ele>2178.0</ele>
        <time>2015-05-30T13:21:12Z</time>
      </trkpt>
      <trkpt lat="38.302300" lon="-2.691600">
        <ele>2163.0</ele>
        <time>2015-05-30T13:21:17Z</time>
      </trkpt>
      <trkpt lat="38.302517" lon="-2.692150">
        <ele>2148.0</ele>
        <time>2015-05-30T13:21:22Z</time>
      </trkpt>
      <trkpt lat="38.302700" lon="-2.692617">
        <ele>2140.0</ele>
        <time>2015-05-30T13:21:27Z</time>
      </trkpt>
      <trkpt lat="38.302900" lon="-2.692917">
        <ele>2137.0</ele>
        <time>2015-05-30T13:21:32Z</time>
      </trkpt>
      <trkpt lat="38.303067" lon="-2.693333">
        <ele>2134.0</ele>
        <time>2015-05-30T13:21:37Z</time>
      </trkpt>
      <trkpt lat="38.303083" lon="-2.693667">
        <ele>2137.0</ele>
        <time>2015-05-30T13:21:42Z</time>
      </trkpt>
      <trkpt lat="38.302983" lon="-2.693900">
        <ele>2145.0</ele>
        <time>2015-05-30T13:21:47Z</time>
      </trkpt>
      <trkpt lat="38.302850" lon="-2.694200">
        <ele>2153.0</ele>
        <time>2015-05-30T13:21:52Z</time>
      </trkpt>
      <trkpt lat="38.302817" lon="-2.694517">
        <ele>2163.0</ele>
        <time>2015-05-30T13:21:57Z</time>
      </trkpt>
      <trkpt lat="38.303100" lon="-2.694817">
        <ele>2172.0</ele>
        <time>2015-05-30T13:22:02Z</time>
      </trkpt>
      <trkpt lat="38.303550" lon="-2.694467">
        <ele>2181.0</ele>
        <time>2015-05-30T13:22:07Z</time>
      </trkpt>
      <trkpt lat="38.303400" lon="-2.693850">
        <ele>2189.0</ele>
        <time>2015-05-30T13:22:12Z</time>
      </trkpt>
      <trkpt lat="38.303033" lon="-2.694017">
        <ele>2198.0</ele>
        <time>2015-05-30T13:22:17Z</time>
      </trkpt>
      <trkpt lat="38.302950" lon="-2.694417">
        <ele>2211.0</ele>
        <time>2015-05-30T13:22:22Z</time>
      </trkpt>
      <trkpt lat="38.302600" lon="-2.694533">
        <ele>2224.0</ele>
        <time>2015-05-30T13:22:27Z</time>
      </trkpt>
      <trkpt lat="38.302267" lon="-2.694000">
        <ele>2238.0</ele>
        <time>2015-05-30T13:22:32Z</time>
      </trkpt>
      <trkpt lat="38.302617" lon="-2.693567">
        <ele>2253.0</ele>
        <time>2015-05-30T13:22:37Z</time>
      </trkpt>
      <trkpt lat="38.302850" lon="-2.693900">
        <ele>2270.0</ele>
        <time>2015-05-30T13:22:42Z</time>
      </trkpt>
      <trkpt lat="38.302417" lon="-2.693867">
        <ele>2285.0</ele>
        <time>2015-05-30T13:22:47Z</time>
      </trkpt>
      <trkpt lat="38.302083" lon="-2.693250">
        <ele>2301.0</ele>
        <time>2015-05-30T13:22:52Z</time>
      </trkpt>
      <trkpt lat="38.302350" lon="-2.692750">
        <ele>2315.0</ele>
        <time>2015-05-30T13:22:57Z</time>
      </trkpt>
      <trkpt lat="38.302700" lon="-2.692833">
        <ele>2330.0</ele>
        <time>2015-05-30T13:23:02Z</time>
      </trkpt>
      <trkpt lat="38.302917" lon="-2.693100">
        <ele>2346.0</ele>
        <time>2015-05-30T13:23:07Z</time>
      </trkpt>
      <trkpt lat="38.302683" lon="-2.693333">
        <ele>2359.0</ele>
        <time>2015-05-30T13:23:12Z</time>
      </trkpt>
      <trkpt lat="38.302283" lon="-2.692750">
        <ele>2368.0</ele>
        <time>2015-05-30T13:23:17Z</time>
      </trkpt>
      <trkpt lat="38.302483" lon="-2.692150">
        <ele>2378.0</ele>
        <time>2015-05-30T13:23:22Z</time>
      </trkpt>
      <trkpt lat="38.302950" lon="-2.691900">
        <ele>2394.0</ele>
        <time>2015-05-30T13:23:27Z</time>
      </trkpt>
      <trkpt lat="38.303167" lon="-2.692200">
        <ele>2406.0</ele>
        <time>2015-05-30T13:23:32Z</time>
      </trkpt>
      <trkpt lat="38.302683" lon="-2.692100">
        <ele>2416.0</ele>
        <time>2015-05-30T13:23:37Z</time>
      </trkpt>
      <trkpt lat="38.302683" lon="-2.691283">
        <ele>2423.0</ele>
        <time>2015-05-30T13:23:42Z</time>
      </trkpt>
      <trkpt lat="38.303017" lon="-2.690667">
        <ele>2437.0</ele>
        <time>2015-05-30T13:23:47Z</time>
      </trkpt>
      <trkpt lat="38.303483" lon="-2.690333">
        <ele>2452.0</ele>
        <time>2015-05-30T13:23:52Z</time>
      </trkpt>
      <trkpt lat="38.303700" lon="-2.690650">
        <ele>2463.0</ele>
        <time>2015-05-30T13:23:57Z</time>
      </trkpt>
      <trkpt lat="38.303267" lon="-2.690667">
        <ele>2473.0</ele>
        <time>2015-05-30T13:24:02Z</time>
      </trkpt>
      <trkpt lat="38.302717" lon="-2.690433">
        <ele>2487.0</ele>
        <time>2015-05-30T13:24:07Z</time>
      </trkpt>
      <trkpt lat="38.302433" lon="-2.689567">
        <ele>2501.0</ele>
        <time>2015-05-30T13:24:12Z</time>
      </trkpt>
      <trkpt lat="38.302750" lon="-2.688983">
        <ele>2516.0</ele>
        <time>2015-05-30T13:24:17Z</time>
      </trkpt>
      <trkpt lat="38.302983" lon="-2.689117">
        <ele>2531.0</ele>
        <time>2015-05-30T13:24:22Z</time>
      </trkpt>
      <trkpt lat="38.302583" lon="-2.688717">
        <ele>2543.0</ele>
        <time>2015-05-30T13:24:27Z</time>
      </trkpt>
      <trkpt lat="38.302683" lon="-2.687900">
        <ele>2554.0</ele>
        <time>2015-05-30T13:24:32Z</time>
      </trkpt>
      <trkpt lat="38.303017" lon="-2.687817">
        <ele>2563.0</ele>
        <time>2015-05-30T13:24:37Z</time>
      </trkpt>
      <trkpt lat="38.302667" lon="-2.687800">
        <ele>2572.0</ele>
        <time>2015-05-30T13:24:42Z</time>
      </trkpt>
      <trkpt lat="38.302217" lon="-2.687183">
        <ele>2579.0</ele>
        <time>2015-05-30T13:24:47Z</time>
      </trkpt>
      <trkpt lat="38.302450" lon="-2.686750">
        <ele>2585.0</ele>
        <time>2015-05-30T13:24:52Z</time>
      </trkpt>
      <trkpt lat="38.302600" lon="-2.686983">
        <ele>2595.0</ele>
        <time>2015-05-30T13:24:57Z</time>
      </trkpt>
      <trkpt lat="38.302467" lon="-2.687150">
        <ele>2607.0</ele>
        <time>2015-05-30T13:25:02Z</time>
      </trkpt>
      <trkpt lat="38.302050" lon="-2.686817">
        <ele>2618.0</ele>
        <time>2015-05-30T13:25:07Z</time>
      </trkpt>
      <trkpt lat="38.301833" lon="-2.685933">
        <ele>2627.0</ele>
        <time>2015-05-30T13:25:12Z</time>
      </trkpt>
      <trkpt lat="38.302100" lon="-2.685283">
        <ele>2637.0</ele>
        <time>2015-05-30T13:25:17Z</time>
      </trkpt>
      <trkpt lat="38.302533" lon="-2.685100">
        <ele>2645.0</ele>
        <time>2015-05-30T13:25:22Z</time>
      </trkpt>
      <trkpt lat="38.302800" lon="-2.685183">
        <ele>2654.0</ele>
        <time>2015-05-30T13:25:27Z</time>
      </trkpt>
      <trkpt lat="38.303183" lon="-2.685000">
        <ele>2664.0</ele>
        <time>2015-05-30T13:25:32Z</time>
      </trkpt>
      <trkpt lat="38.303117" lon="-2.685100">
        <ele>2673.0</ele>
        <time>2015-05-30T13:25:37Z</time>
      </trkpt>
      <trkpt lat="38.302950" lon="-2.684317">
        <ele>2681.0</ele>
        <time>2015-05-30T13:25:42Z</time>
      </trkpt>
      <trkpt lat="38.303333" lon="-2.683767">
        <ele>2687.0</ele>
        <time>2015-05-30T13:25:47Z</time>
      </trkpt>
      <trkpt lat="38.303617" lon="-2.683633">
        <ele>2694.0</ele>
        <time>2015-05-30T13:25:52Z</time>
      </trkpt>
      <trkpt lat="38.303550" lon="-2.683817">
        <ele>2699.0</ele>
        <time>2015-05-30T13:25:57Z</time>
      </trkpt>
      <trkpt lat="38.303083" lon="-2.683250">
        <ele>2704.0</ele>
        <time>2015-05-30T13:26:02Z</time>
      </trkpt>
      <trkpt lat="38.303150" lon="-2.682317">
        <ele>2702.0</ele>
        <time>2015-05-30T13:26:07Z</time>
      </trkpt>
      <trkpt lat="38.303467" lon="-2.682267">
        <ele>2708.0</ele>
        <time>2015-05-30T13:26:12Z</time>
      </trkpt>
      <trkpt lat="38.303617" lon="-2.682467">
        <ele>2712.0</ele>
        <time>2015-05-30T13:26:17Z</time>
      </trkpt>
      <trkpt lat="38.303617" lon="-2.682667">
        <ele>2718.0</ele>
        <time>2015-05-30T13:26:22Z</time>
      </trkpt>
      <trkpt lat="38.303583" lon="-2.682850">
        <ele>2721.0</ele>
        <time>2015-05-30T13:26:27Z</time>
      </trkpt>
      <trkpt lat="38.303567" lon="-2.683067">
        <ele>2727.0</ele>
        <time>2015-05-30T13:26:32Z</time>
      </trkpt>
      <trkpt lat="38.303667" lon="-2.683250">
        <ele>2733.0</ele>
        <time>2015-05-30T13:26:37Z</time>
      </trkpt>
      <trkpt lat="38.304100" lon="-2.683067">
        <ele>2739.0</ele>
        <time>2015-05-30T13:26:42Z</time>
      </trkpt>
      <trkpt lat="38.304283" lon="-2.682250">
        <ele>2746.0</ele>
        <time>2015-05-30T13:26:47Z</time>
      </trkpt>
      <trkpt lat="38.303967" lon="-2.681633">
        <ele>2752.0</ele>
        <time>2015-05-30T13:26:52Z</time>
      </trkpt>
      <trkpt lat="38.303800" lon="-2.681783">
        <ele>2759.0</ele>
        <time>2015-05-30T13:26:57Z</time>
      </trkpt>
      <trkpt lat="38.303917" lon="-2.681933">
        <ele>2768.0</ele>
        <time>2015-05-30T13:27:02Z</time>
      </trkpt>
      <trkpt lat="38.304100" lon="-2.682200">
        <ele>2773.0</ele>
        <time>2015-05-30T13:27:07Z</time>
      </trkpt>
      <trkpt lat="38.304383" lon="-2.682367">
        <ele>2780.0</ele>
        <time>2015-05-30T13:27:12Z</time>
      </trkpt>
      <trkpt lat="38.304700" lon="-2.682600">
        <ele>2784.0</ele>
        <time>2015-05-30T13:27:17Z</time>
      </trkpt>
      <trkpt lat="38.304983" lon="-2.682917">
        <ele>2786.0</ele>
        <time>2015-05-30T13:27:22Z</time>
      </trkpt>
      <trkpt lat="38.305267" lon="-2.683117">
        <ele>2788.0</ele>
        <time>2015-05-30T13:27:27Z</time>
      </trkpt>
      <trkpt lat="38.305467" lon="-2.683417">
        <ele>2783.0</ele>
        <time>2015-05-30T13:27:32Z</time>
      </trkpt>
      <trkpt lat="38.305617" lon="-2.683733">
        <ele>2775.0</ele>
        <time>2015-05-30T13:27:37Z</time>
      </trkpt>
      <trkpt lat="38.305767" lon="-2.684200">
        <ele>2766.0</ele>
        <time>2015-05-30T13:27:42Z</time>
      </trkpt>
      <trkpt lat="38.305950" lon="-2.684683">
        <ele>2755.0</ele>
        <time>2015-05-30T13:27:47Z</time>
      </trkpt>
      <trkpt lat="38.306117" lon="-2.685083">
        <ele>2747.0</ele>
        <time>2015-05-30T13:27:52Z</time>
      </trkpt>
      <trkpt lat="38.306317" lon="-2.685383">
        <ele>2741.0</ele>
        <time>2015-05-30T13:27:57Z</time>
      </trkpt>
      <trkpt lat="38.306533" lon="-2.685767">
        <ele>2735.0</ele>
        <time>2015-05-30T13:28:02Z</time>
      </trkpt>
      <trkpt lat="38.306767" lon="-2.686083">
        <ele>2731.0</ele>
        <time>2015-05-30T13:28:07Z</time>
      </trkpt>
      <trkpt lat="38.306967" lon="-2.686367">
        <ele>2728.0</ele>
        <time>2015-05-30T13:28:12Z</time>
      </trkpt>
      <trkpt lat="38.307150" lon="-2.686633">
        <ele>2725.0</ele>
        <time>2015-05-30T13:28:17Z</time>
      </trkpt>
      <trkpt lat="38.307350" lon="-2.686950">
        <ele>2721.0</ele>
        <time>2015-05-30T13:28:22Z</time>
      </trkpt>
      <trkpt lat="38.307483" lon="-2.687267">
        <ele>2717.0</ele>
        <time>2015-05-30T13:28:27Z</time>
      </trkpt>
      <trkpt lat="38.307517" lon="-2.687633">
        <ele>2712.0</ele>
        <time>2015-05-30T13:28:32Z</time>
      </trkpt>
      <trkpt lat="38.307450" lon="-2.688000">
        <ele>2709.0</ele>
        <time>2015-05-30T13:28:37Z</time>
      </trkpt>
      <trkpt lat="38.307583" lon="-2.688300">
        <ele>2707.0</ele>
        <time>2015-05-30T13:28:42Z</time>
      </trkpt>
      <trkpt lat="38.307733" lon="-2.688600">
        <ele>2704.0</ele>
        <time>2015-05-30T13:28:47Z</time>
      </trkpt>
      <trkpt lat="38.307700" lon="-2.688917">
        <ele>2700.0</ele>
        <time>2015-05-30T13:28:52Z</time>
      </trkpt>
      <trkpt lat="38.307583" lon="-2.689250">
        <ele>2693.0</ele>
        <time>2015-05-30T13:28:57Z</time>
      </trkpt>
      <trkpt lat="38.307450" lon="-2.689550">
        <ele>2684.0</ele>
        <time>2015-05-30T13:29:02Z</time>
      </trkpt>
      <trkpt lat="38.307283" lon="-2.689883">
        <ele>2676.0</ele>
        <time>2015-05-30T13:29:07Z</time>
      </trkpt>
      <trkpt lat="38.307083" lon="-2.690267">
        <ele>2668.0</ele>
        <time>2015-05-30T13:29:12Z</time>
      </trkpt>
      <trkpt lat="38.306917" lon="-2.690567">
        <ele>2662.0</ele>
        <time>2015-05-30T13:29:17Z</time>
      </trkpt>
      <trkpt lat="38.306817" lon="-2.690833">
        <ele>2653.0</ele>
        <time>2015-05-30T13:29:22Z</time>
      </trkpt>
      <trkpt lat="38.306783" lon="-2.691133">
        <ele>2641.0</ele>
        <time>2015-05-30T13:29:27Z</time>
      </trkpt>
      <trkpt lat="38.307017" lon="-2.691433">
        <ele>2627.0</ele>
        <time>2015-05-30T13:29:32Z</time>
      </trkpt>
      <trkpt lat="38.307367" lon="-2.691733">
        <ele>2615.0</ele>
        <time>2015-05-30T13:29:37Z</time>
      </trkpt>
      <trkpt lat="38.307733" lon="-2.691967">
        <ele>2608.0</ele>
        <time>2015-05-30T13:29:42Z</time>
      </trkpt>
      <trkpt lat="38.308017" lon="-2.692233">
        <ele>2605.0</ele>
        <time>2015-05-30T13:29:47Z</time>
      </trkpt>
      <trkpt lat="38.308250" lon="-2.692517">
        <ele>2602.0</ele>
        <time>2015-05-30T13:29:52Z</time>
      </trkpt>
      <trkpt lat="38.308400" lon="-2.692883">
        <ele>2600.0</ele>
        <time>2015-05-30T13:29:57Z</time>
      </trkpt>
      <trkpt lat="38.308533" lon="-2.693233">
        <ele>2597.0</ele>
        <time>2015-05-30T13:30:02Z</time>
      </trkpt>
      <trkpt lat="38.308633" lon="-2.693600">
        <ele>2591.0</ele>
        <time>2015-05-30T13:30:07Z</time>
      </trkpt>
      <trkpt lat="38.308733" lon="-2.693933">
        <ele>2584.0</ele>
        <time>2015-05-30T13:30:12Z</time>
      </trkpt>
      <trkpt lat="38.308900" lon="-2.694217">
        <ele>2574.0</ele>
        <time>2015-05-30T13:30:17Z</time>
      </trkpt>
      <trkpt lat="38.309033" lon="-2.694533">
        <ele>2563.0</ele>
        <time>2015-05-30T13:30:22Z</time>
      </trkpt>
      <trkpt lat="38.309133" lon="-2.694800">
        <ele>2554.0</ele>
        <time>2015-05-30T13:30:27Z</time>
      </trkpt>
      <trkpt lat="38.309267" lon="-2.695133">
        <ele>2544.0</ele>
        <time>2015-05-30T13:30:32Z</time>
      </trkpt>
      <trkpt lat="38.309417" lon="-2.695450">
        <ele>2534.0</ele>
        <time>2015-05-30T13:30:37Z</time>
      </trkpt>
      <trkpt lat="38.309550" lon="-2.695683">
        <ele>2525.0</ele>
        <time>2015-05-30T13:30:42Z</time>
      </trkpt>
      <trkpt lat="38.309633" lon="-2.695967">
        <ele>2514.0</ele>
        <time>2015-05-30T13:30:47Z</time>
      </trkpt>
      <trkpt lat="38.309717" lon="-2.696267">
        <ele>2503.0</ele>
        <time>2015-05-30T13:30:52Z</time>
      </trkpt>
      <trkpt lat="38.309783" lon="-2.696600">
        <ele>2496.0</ele>
        <time>2015-05-30T13:30:57Z</time>
      </trkpt>
      <trkpt lat="38.309800" lon="-2.696917">
        <ele>2492.0</ele>
        <time>2015-05-30T13:31:02Z</time>
      </trkpt>
      <trkpt lat="38.309783" lon="-2.697167">
        <ele>2487.0</ele>
        <time>2015-05-30T13:31:07Z</time>
      </trkpt>
      <trkpt lat="38.309733" lon="-2.697450">
        <ele>2483.0</ele>
        <time>2015-05-30T13:31:12Z</time>
      </trkpt>
      <trkpt lat="38.309633" lon="-2.697733">
        <ele>2479.0</ele>
        <time>2015-05-30T13:31:17Z</time>
      </trkpt>
      <trkpt lat="38.309617" lon="-2.698033">
        <ele>2478.0</ele>
        <time>2015-05-30T13:31:22Z</time>
      </trkpt>
      <trkpt lat="38.309667" lon="-2.698383">
        <ele>2475.0</ele>
        <time>2015-05-30T13:31:27Z</time>
      </trkpt>
      <trkpt lat="38.309700" lon="-2.698717">
        <ele>2471.0</ele>
        <time>2015-05-30T13:31:32Z</time>
      </trkpt>
      <trkpt lat="38.309767" lon="-2.699050">
        <ele>2467.0</ele>
        <time>2015-05-30T13:31:37Z</time>
      </trkpt>
      <trkpt lat="38.309867" lon="-2.699367">
        <ele>2463.0</ele>
        <time>2015-05-30T13:31:42Z</time>
      </trkpt>
      <trkpt lat="38.309950" lon="-2.699683">
        <ele>2458.0</ele>
        <time>2015-05-30T13:31:47Z</time>
      </trkpt>
      <trkpt lat="38.310017" lon="-2.699983">
        <ele>2453.0</ele>
        <time>2015-05-30T13:31:52Z</time>
      </trkpt>
      <trkpt lat="38.310133" lon="-2.700267">
        <ele>2447.0</ele>
        <time>2015-05-30T13:31:57Z</time>
      </trkpt>
      <trkpt lat="38.310283" lon="-2.700550">
        <ele>2443.0</ele>
        <time>2015-05-30T13:32:02Z</time>
      </trkpt>
      <trkpt lat="38.310467" lon="-2.700800">
        <ele>2439.0</ele>
        <time>2015-05-30T13:32:07Z</time>
      </trkpt>
      <trkpt lat="38.310667" lon="-2.701050">
        <ele>2434.0</ele>
        <time>2015-05-30T13:32:12Z</time>
      </trkpt>
      <trkpt lat="38.310867" lon="-2.701317">
        <ele>2429.0</ele>
        <time>2015-05-30T13:32:17Z</time>
      </trkpt>
      <trkpt lat="38.311117" lon="-2.701550">
        <ele>2425.0</ele>
        <time>2015-05-30T13:32:22Z</time>
      </trkpt>
      <trkpt lat="38.311317" lon="-2.701833">
        <ele>2423.0</ele>
        <time>2015-05-30T13:32:27Z</time>
      </trkpt>
      <trkpt lat="38.311467" lon="-2.702050">
        <ele>2420.0</ele>
        <time>2015-05-30T13:32:32Z</time>
      </trkpt>
      <trkpt lat="38.311617" lon="-2.702333">
        <ele>2414.0</ele>
        <time>2015-05-30T13:32:37Z</time>
      </trkpt>
      <trkpt lat="38.311833" lon="-2.702583">
        <ele>2406.0</ele>
        <time>2015-05-30T13:32:42Z</time>
      </trkpt>
      <trkpt lat="38.312050" lon="-2.702933">
        <ele>2404.0</ele>
        <time>2015-05-30T13:32:47Z</time>
      </trkpt>
      <trkpt lat="38.312300" lon="-2.703217">
        <ele>2400.0</ele>
        <time>2015-05-30T13:32:52Z</time>
      </trkpt>
      <trkpt lat="38.312383" lon="-2.703517">
        <ele>2395.0</ele>
        <time>2015-05-30T13:32:57Z</time>
      </trkpt>
      <trkpt lat="38.312300" lon="-2.703850">
        <ele>2390.0</ele>
        <time>2015-05-30T13:33:02Z</time>
      </trkpt>
      <trkpt lat="38.312200" lon="-2.704183">
        <ele>2380.0</ele>
        <time>2015-05-30T13:33:07Z</time>
      </trkpt>
      <trkpt lat="38.312100" lon="-2.704533">
        <ele>2370.0</ele>
        <time>2015-05-30T13:33:12Z</time>
      </trkpt>
      <trkpt lat="38.311917" lon="-2.704733">
        <ele>2360.0</ele>
        <time>2015-05-30T13:33:17Z</time>
      </trkpt>
      <trkpt lat="38.311750" lon="-2.705017">
        <ele>2347.0</ele>
        <time>2015-05-30T13:33:22Z</time>
      </trkpt>
      <trkpt lat="38.311717" lon="-2.705317">
        <ele>2335.0</ele>
        <time>2015-05-30T13:33:27Z</time>
      </trkpt>
      <trkpt lat="38.311717" lon="-2.705667">
        <ele>2322.0</ele>
        <time>2015-05-30T13:33:32Z</time>
      </trkpt>
      <trkpt lat="38.311800" lon="-2.705883">
        <ele>2314.0</ele>
        <time>2015-05-30T13:33:37Z</time>
      </trkpt>
      <trkpt lat="38.312017" lon="-2.706100">
        <ele>2306.0</ele>
        <time>2015-05-30T13:33:42Z</time>
      </trkpt>
      <trkpt lat="38.312017" lon="-2.706350">
        <ele>2298.0</ele>
        <time>2015-05-30T13:33:47Z</time>
      </trkpt>
      <trkpt lat="38.311933" lon="-2.706617">
        <ele>2288.0</ele>
        <time>2015-05-30T13:33:52Z</time>
      </trkpt>
      <trkpt lat="38.311833" lon="-2.707000">
        <ele>2280.0</ele>
        <time>2015-05-30T13:33:57Z</time>
      </trkpt>
      <trkpt lat="38.311817" lon="-2.707283">
        <ele>2275.0</ele>
        <time>2015-05-30T13:34:02Z</time>
      </trkpt>
      <trkpt lat="38.311783" lon="-2.707633">
        <ele>2267.0</ele>
        <time>2015-05-30T13:34:07Z</time>
      </trkpt>
      <trkpt lat="38.311667" lon="-2.707917">
        <ele>2258.0</ele>
        <time>2015-05-30T13:34:12Z</time>
      </trkpt>
      <trkpt lat="38.311583" lon="-2.708283">
        <ele>2244.0</ele>
        <time>2015-05-30T13:34:17Z</time>
      </trkpt>
      <trkpt lat="38.311517" lon="-2.708650">
        <ele>2232.0</ele>
        <time>2015-05-30T13:34:22Z</time>
      </trkpt>
      <trkpt lat="38.311467" lon="-2.709100">
        <ele>2218.0</ele>
        <time>2015-05-30T13:34:27Z</time>
      </trkpt>
      <trkpt lat="38.311450" lon="-2.709483">
        <ele>2205.0</ele>
        <time>2015-05-30T13:34:32Z</time>
      </trkpt>
      <trkpt lat="38.311400" lon="-2.709917">
        <ele>2192.0</ele>
        <time>2015-05-30T13:34:37Z</time>
      </trkpt>
      <trkpt lat="38.311350" lon="-2.710283">
        <ele>2182.0</ele>
        <time>2015-05-30T13:34:42Z</time>
      </trkpt>
      <trkpt lat="38.311217" lon="-2.710583">
        <ele>2173.0</ele>
        <time>2015-05-30T13:34:47Z</time>
      </trkpt>
      <trkpt lat="38.311100" lon="-2.710933">
        <ele>2164.0</ele>
        <time>2015-05-30T13:34:52Z</time>
      </trkpt>
      <trkpt lat="38.311033" lon="-2.711283">
        <ele>2156.0</ele>
        <time>2015-05-30T13:34:57Z</time>
      </trkpt>
      <trkpt lat="38.310983" lon="-2.711633">
        <ele>2147.0</ele>
        <time>2015-05-30T13:35:02Z</time>
      </trkpt>
      <trkpt lat="38.310967" lon="-2.712000">
        <ele>2140.0</ele>
        <time>2015-05-30T13:35:07Z</time>
      </trkpt>
      <trkpt lat="38.310950" lon="-2.712383">
        <ele>2132.0</ele>
        <time>2015-05-30T13:35:12Z</time>
      </trkpt>
      <trkpt lat="38.310900" lon="-2.712767">
        <ele>2126.0</ele>
        <time>2015-05-30T13:35:17Z</time>
      </trkpt>
      <trkpt lat="38.310867" lon="-2.713167">
        <ele>2118.0</ele>
        <time>2015-05-30T13:35:22Z</time>
      </trkpt>
      <trkpt lat="38.310817" lon="-2.713550">
        <ele>2107.0</ele>
        <time>2015-05-30T13:35:27Z</time>
      </trkpt>
      <trkpt lat="38.310733" lon="-2.713950">
        <ele>2091.0</ele>
        <time>2015-05-30T13:35:32Z</time>
      </trkpt>
      <trkpt lat="38.310683" lon="-2.714350">
        <ele>2075.0</ele>
        <time>2015-05-30T13:35:37Z</time>
      </trkpt>
      <trkpt lat="38.310567" lon="-2.714750">
        <ele>2060.0</ele>
        <time>2015-05-30T13:35:42Z</time>
      </trkpt>
      <trkpt lat="38.310450" lon="-2.715100">
        <ele>2048.0</ele>
        <time>2015-05-30T13:35:47Z</time>
      </trkpt>
      <trkpt lat="38.310367" lon="-2.715533">
        <ele>2034.0</ele>
        <time>2015-05-30T13:35:52Z</time>
      </trkpt>
      <trkpt lat="38.310250" lon="-2.715950">
        <ele>2017.0</ele>
        <time>2015-05-30T13:35:57Z</time>
      </trkpt>
      <trkpt lat="38.310067" lon="-2.716333">
        <ele>1998.0</ele>
        <time>2015-05-30T13:36:02Z</time>
      </trkpt>
      <trkpt lat="38.309967" lon="-2.716700">
        <ele>1980.0</ele>
        <time>2015-05-30T13:36:07Z</time>
      </trkpt>
      <trkpt lat="38.309867" lon="-2.717100">
        <ele>1964.0</ele>
        <time>2015-05-30T13:36:12Z</time>
      </trkpt>
      <trkpt lat="38.309833" lon="-2.717500">
        <ele>1954.0</ele>
        <time>2015-05-30T13:36:17Z</time>
      </trkpt>
      <trkpt lat="38.309900" lon="-2.717933">
        <ele>1950.0</ele>
        <time>2015-05-30T13:36:22Z</time>
      </trkpt>
      <trkpt lat="38.310200" lon="-2.718183">
        <ele>1952.0</ele>
        <time>2015-05-30T13:36:27Z</time>
      </trkpt>
      <trkpt lat="38.310583" lon="-2.718383">
        <ele>1955.0</ele>
        <time>2015-05-30T13:36:32Z</time>
      </trkpt>
      <trkpt lat="38.310550" lon="-2.718717">
        <ele>1960.0</ele>
        <time>2015-05-30T13:36:37Z</time>
      </trkpt>
      <trkpt lat="38.310350" lon="-2.718933">
        <ele>1968.0</ele>
        <time>2015-05-30T13:36:42Z</time>
      </trkpt>
      <trkpt lat="38.310350" lon="-2.719250">
        <ele>1978.0</ele>
        <time>2015-05-30T13:36:47Z</time>
      </trkpt>
      <trkpt lat="38.310800" lon="-2.719350">
        <ele>1988.0</ele>
        <time>2015-05-30T13:36:52Z</time>
      </trkpt>
      <trkpt lat="38.311167" lon="-2.718733">
        <ele>1998.0</ele>
        <time>2015-05-30T13:36:57Z</time>
      </trkpt>
      <trkpt lat="38.310867" lon="-2.718367">
        <ele>2009.0</ele>
        <time>2015-05-30T13:37:02Z</time>
      </trkpt>
      <trkpt lat="38.310733" lon="-2.718717">
        <ele>2023.0</ele>
        <time>2015-05-30T13:37:07Z</time>
      </trkpt>
      <trkpt lat="38.310933" lon="-2.719050">
        <ele>2032.0</ele>
        <time>2015-05-30T13:37:12Z</time>
      </trkpt>
      <trkpt lat="38.311467" lon="-2.718817">
        <ele>2037.0</ele>
        <time>2015-05-30T13:37:17Z</time>
      </trkpt>
      <trkpt lat="38.311633" lon="-2.718017">
        <ele>2038.0</ele>
        <time>2015-05-30T13:37:22Z</time>
      </trkpt>
      <trkpt lat="38.311417" lon="-2.717450">
        <ele>2044.0</ele>
        <time>2015-05-30T13:37:27Z</time>
      </trkpt>
      <trkpt lat="38.311183" lon="-2.716833">
        <ele>2054.0</ele>
        <time>2015-05-30T13:37:32Z</time>
      </trkpt>
      <trkpt lat="38.311483" lon="-2.716233">
        <ele>2064.0</ele>
        <time>2015-05-30T13:37:37Z</time>
      </trkpt>
      <trkpt lat="38.311767" lon="-2.716500">
        <ele>2076.0</ele>
        <time>2015-05-30T13:37:42Z</time>
      </trkpt>
      <trkpt lat="38.311517" lon="-2.716850">
        <ele>2090.0</ele>
        <time>2015-05-30T13:37:47Z</time>
      </trkpt>
      <trkpt lat="38.311200" lon="-2.717083">
        <ele>2107.0</ele>
        <time>2015-05-30T13:37:52Z</time>
      </trkpt>
      <trkpt lat="38.310817" lon="-2.716833">
        <ele>2121.0</ele>
        <time>2015-05-30T13:37:57Z</time>
      </trkpt>
      <trkpt lat="38.310833" lon="-2.716050">
        <ele>2127.0</ele>
        <time>2015-05-30T13:38:02Z</time>
      </trkpt>
      <trkpt lat="38.311200" lon="-2.715667">
        <ele>2133.0</ele>
        <time>2015-05-30T13:38:07Z</time>
      </trkpt>
      <trkpt lat="38.311650" lon="-2.715383">
        <ele>2140.0</ele>
        <time>2015-05-30T13:38:12Z</time>
      </trkpt>
      <trkpt lat="38.311950" lon="-2.715600">
        <ele>2149.0</ele>
        <time>2015-05-30T13:38:17Z</time>
      </trkpt>
      <trkpt lat="38.311667" lon="-2.715600">
        <ele>2156.0</ele>
        <time>2015-05-30T13:38:22Z</time>
      </trkpt>
      <trkpt lat="38.311617" lon="-2.714933">
        <ele>2166.0</ele>
        <time>2015-05-30T13:38:27Z</time>
      </trkpt>
      <trkpt lat="38.312050" lon="-2.714650">
        <ele>2177.0</ele>
        <time>2015-05-30T13:38:32Z</time>
      </trkpt>
      <trkpt lat="38.311967" lon="-2.714900">
        <ele>2187.0</ele>
        <time>2015-05-30T13:38:37Z</time>
      </trkpt>
      <trkpt lat="38.311650" lon="-2.714417">
        <ele>2199.0</ele>
        <time>2015-05-30T13:38:42Z</time>
      </trkpt>
      <trkpt lat="38.312000" lon="-2.713950">
        <ele>2211.0</ele>
        <time>2015-05-30T13:38:47Z</time>
      </trkpt>
      <trkpt lat="38.312267" lon="-2.714133">
        <ele>2223.0</ele>
        <time>2015-05-30T13:38:52Z</time>
      </trkpt>
      <trkpt lat="38.312100" lon="-2.714383">
        <ele>2235.0</ele>
        <time>2015-05-30T13:38:57Z</time>
      </trkpt>
      <trkpt lat="38.311717" lon="-2.714267">
        <ele>2246.0</ele>
        <time>2015-05-30T13:39:02Z</time>
      </trkpt>
      <trkpt lat="38.311500" lon="-2.713583">
        <ele>2253.0</ele>
        <time>2015-05-30T13:39:07Z</time>
      </trkpt>
      <trkpt lat="38.311800" lon="-2.712950">
        <ele>2258.0</ele>
        <time>2015-05-30T13:39:12Z</time>
      </trkpt>
      <trkpt lat="38.312283" lon="-2.712800">
        <ele>2266.0</ele>
        <time>2015-05-30T13:39:17Z</time>
      </trkpt>
      <trkpt lat="38.312683" lon="-2.712967">
        <ele>2274.0</ele>
        <time>2015-05-30T13:39:22Z</time>
      </trkpt>
      <trkpt lat="38.312783" lon="-2.713333">
        <ele>2282.0</ele>
        <time>2015-05-30T13:39:27Z</time>
      </trkpt>
      <trkpt lat="38.313067" lon="-2.713500">
        <ele>2291.0</ele>
        <time>2015-05-30T13:39:32Z</time>
      </trkpt>
      <trkpt lat="38.313533" lon="-2.713000">
        <ele>2299.0</ele>
        <time>2015-05-30T13:39:37Z</time>
      </trkpt>
      <trkpt lat="38.313250" lon="-2.712733">
        <ele>2306.0</ele>
        <time>2015-05-30T13:39:42Z</time>
      </trkpt>
      <trkpt lat="38.312733" lon="-2.712450">
        <ele>2311.0</ele>
        <time>2015-05-30T13:39:47Z</time>
      </trkpt>
      <trkpt lat="38.312783" lon="-2.711767">
        <ele>2316.0</ele>
        <time>2015-05-30T13:39:52Z</time>
      </trkpt>
      <trkpt lat="38.313017" lon="-2.711950">
        <ele>2320.0</ele>
        <time>2015-05-30T13:39:57Z</time>
      </trkpt>
      <trkpt lat="38.312800" lon="-2.712267">
        <ele>2325.0</ele>
        <time>2015-05-30T13:40:02Z</time>
      </trkpt>
      <trkpt lat="38.312483" lon="-2.712450">
        <ele>2329.0</ele>
        <time>2015-05-30T13:40:07Z</time>
      </trkpt>
      <trkpt lat="38.312100" lon="-2.712100">
        <ele>2332.0</ele>
        <time>2015-05-30T13:40:12Z</time>
      </trkpt>
      <trkpt lat="38.312350" lon="-2.711667">
        <ele>2335.0</ele>
        <time>2015-05-30T13:40:17Z</time>
      </trkpt>
      <trkpt lat="38.312467" lon="-2.711983">
        <ele>2341.0</ele>
        <time>2015-05-30T13:40:22Z</time>
      </trkpt>
      <trkpt lat="38.312217" lon="-2.712217">
        <ele>2342.0</ele>
        <time>2015-05-30T13:40:27Z</time>
      </trkpt>
      <trkpt lat="38.311850" lon="-2.712350">
        <ele>2339.0</ele>
        <time>2015-05-30T13:40:32Z</time>
      </trkpt>
      <trkpt lat="38.311567" lon="-2.712717">
        <ele>2335.0</ele>
        <time>2015-05-30T13:40:37Z</time>
      </trkpt>
      <trkpt lat="38.311300" lon="-2.713117">
        <ele>2331.0</ele>
        <time>2015-05-30T13:40:42Z</time>
      </trkpt>
      <trkpt lat="38.311150" lon="-2.713400">
        <ele>2332.0</ele>
        <time>2015-05-30T13:40:47Z</time>
      </trkpt>
      <trkpt lat="38.310933" lon="-2.713783">
        <ele>2331.0</ele>
        <time>2015-05-30T13:40:52Z</time>
      </trkpt>
      <trkpt lat="38.310750" lon="-2.714117">
        <ele>2331.0</ele>
        <time>2015-05-30T13:40:57Z</time>
      </trkpt>
      <trkpt lat="38.310567" lon="-2.714500">
        <ele>2327.0</ele>
        <time>2015-05-30T13:41:02Z</time>
      </trkpt>
      <trkpt lat="38.310400" lon="-2.714933">
        <ele>2324.0</ele>
        <time>2015-05-30T13:41:07Z</time>
      </trkpt>
      <trkpt lat="38.310317" lon="-2.715267">
        <ele>2322.0</ele>
        <time>2015-05-30T13:41:12Z</time>
      </trkpt>
      <trkpt lat="38.310200" lon="-2.715667">
        <ele>2321.0</ele>
        <time>2015-05-30T13:41:17Z</time>
      </trkpt>
      <trkpt lat="38.310067" lon="-2.715833">
        <ele>2324.0</ele>
        <time>2015-05-30T13:41:22Z</time>
      </trkpt>
      <trkpt lat="38.309750" lon="-2.715967">
        <ele>2330.0</ele>
        <time>2015-05-30T13:41:27Z</time>
      </trkpt>
      <trkpt lat="38.309333" lon="-2.716050">
        <ele>2337.0</ele>
        <time>2015-05-30T13:41:32Z</time>
      </trkpt>
      <trkpt lat="38.308783" lon="-2.715750">
        <ele>2344.0</ele>
        <time>2015-05-30T13:41:37Z</time>
      </trkpt>
      <trkpt lat="38.308717" lon="-2.714983">
        <ele>2355.0</ele>
        <time>2015-05-30T13:41:42Z</time>
      </trkpt>
      <trkpt lat="38.309017" lon="-2.714867">
        <ele>2368.0</ele>
        <time>2015-05-30T13:41:47Z</time>
      </trkpt>
      <trkpt lat="38.308700" lon="-2.714867">
        <ele>2382.0</ele>
        <time>2015-05-30T13:41:52Z</time>
      </trkpt>
      <trkpt lat="38.308617" lon="-2.714233">
        <ele>2398.0</ele>
        <time>2015-05-30T13:41:57Z</time>
      </trkpt>
      <trkpt lat="38.308850" lon="-2.714267">
        <ele>2415.0</ele>
        <time>2015-05-30T13:42:02Z</time>
      </trkpt>
      <trkpt lat="38.308483" lon="-2.714200">
        <ele>2432.0</ele>
        <time>2015-05-30T13:42:07Z</time>
      </trkpt>
      <trkpt lat="38.308200" lon="-2.713350">
        <ele>2450.0</ele>
        <time>2015-05-30T13:42:12Z</time>
      </trkpt>
      <trkpt lat="38.308483" lon="-2.713067">
        <ele>2465.0</ele>
        <time>2015-05-30T13:42:17Z</time>
      </trkpt>
      <trkpt lat="38.308617" lon="-2.713267">
        <ele>2479.0</ele>
        <time>2015-05-30T13:42:22Z</time>
      </trkpt>
      <trkpt lat="38.308400" lon="-2.713500">
        <ele>2487.0</ele>
        <time>2015-05-30T13:42:27Z</time>
      </trkpt>
      <trkpt lat="38.308017" lon="-2.712967">
        <ele>2495.0</ele>
        <time>2015-05-30T13:42:32Z</time>
      </trkpt>
      <trkpt lat="38.308250" lon="-2.712650">
        <ele>2505.0</ele>
        <time>2015-05-30T13:42:37Z</time>
      </trkpt>
      <trkpt lat="38.308200" lon="-2.712817">
        <ele>2516.0</ele>
        <time>2015-05-30T13:42:42Z</time>
      </trkpt>
      <trkpt lat="38.307833" lon="-2.712933">
        <ele>2523.0</ele>
        <time>2015-05-30T13:42:47Z</time>
      </trkpt>
      <trkpt lat="38.307417" lon="-2.712983">
        <ele>2529.0</ele>
        <time>2015-05-30T13:42:52Z</time>
      </trkpt>
      <trkpt lat="38.307033" lon="-2.713150">
        <ele>2534.0</ele>
        <time>2015-05-30T13:42:57Z</time>
      </trkpt>
      <trkpt lat="38.306633" lon="-2.713150">
        <ele>2543.0</ele>
        <time>2015-05-30T13:43:02Z</time>
      </trkpt>
      <trkpt lat="38.306383" lon="-2.713167">
        <ele>2554.0</ele>
        <time>2015-05-30T13:43:07Z</time>
      </trkpt>
      <trkpt lat="38.305983" lon="-2.713233">
        <ele>2560.0</ele>
        <time>2015-05-30T13:43:12Z</time>
      </trkpt>
      <trkpt lat="38.305600" lon="-2.713350">
        <ele>2560.0</ele>
        <time>2015-05-30T13:43:17Z</time>
      </trkpt>
      <trkpt lat="38.305217" lon="-2.713533">
        <ele>2554.0</ele>
        <time>2015-05-30T13:43:22Z</time>
      </trkpt>
      <trkpt lat="38.304917" lon="-2.713733">
        <ele>2545.0</ele>
        <time>2015-05-30T13:43:27Z</time>
      </trkpt>
      <trkpt lat="38.304600" lon="-2.714117">
        <ele>2531.0</ele>
        <time>2015-05-30T13:43:32Z</time>
      </trkpt>
      <trkpt lat="38.304450" lon="-2.714483">
        <ele>2518.0</ele>
        <time>2015-05-30T13:43:37Z</time>
      </trkpt>
      <trkpt lat="38.304350" lon="-2.714933">
        <ele>2506.0</ele>
        <time>2015-05-30T13:43:42Z</time>
      </trkpt>
      <trkpt lat="38.304300" lon="-2.715417">
        <ele>2495.0</ele>
        <time>2015-05-30T13:43:47Z</time>
      </trkpt>
      <trkpt lat="38.304250" lon="-2.715850">
        <ele>2484.0</ele>
        <time>2015-05-30T13:43:52Z</time>
      </trkpt>
      <trkpt lat="38.304267" lon="-2.716267">
        <ele>2477.0</ele>
        <time>2015-05-30T13:43:57Z</time>
      </trkpt>
      <trkpt lat="38.304283" lon="-2.716667">
        <ele>2471.0</ele>
        <time>2015-05-30T13:44:02Z</time>
      </trkpt>
      <trkpt lat="38.304317" lon="-2.717033">
        <ele>2467.0</ele>
        <time>2015-05-30T13:44:07Z</time>
      </trkpt>
      <trkpt lat="38.304333" lon="-2.717400">
        <ele>2464.0</ele>
        <time>2015-05-30T13:44:12Z</time>
      </trkpt>
      <trkpt lat="38.304333" lon="-2.717750">
        <ele>2461.0</ele>
        <time>2015-05-30T13:44:17Z</time>
      </trkpt>
      <trkpt lat="38.304333" lon="-2.718100">
        <ele>2457.0</ele>
        <time>2015-05-30T13:44:22Z</time>
      </trkpt>
      <trkpt lat="38.304333" lon="-2.718450">
        <ele>2454.0</ele>
        <time>2015-05-30T13:44:27Z</time>
      </trkpt>
      <trkpt lat="38.304333" lon="-2.718783">
        <ele>2450.0</ele>
        <time>2015-05-30T13:44:32Z</time>
      </trkpt>
      <trkpt lat="38.304300" lon="-2.719117">
        <ele>2446.0</ele>
        <time>2015-05-30T13:44:37Z</time>
      </trkpt>
      <trkpt lat="38.304250" lon="-2.719450">
        <ele>2441.0</ele>
        <time>2015-05-30T13:44:42Z</time>
      </trkpt>
      <trkpt lat="38.304167" lon="-2.719783">
        <ele>2436.0</ele>
        <time>2015-05-30T13:44:47Z</time>
      </trkpt>
      <trkpt lat="38.304067" lon="-2.720117">
        <ele>2431.0</ele>
        <time>2015-05-30T13:44:52Z</time>
      </trkpt>
      <trkpt lat="38.303950" lon="-2.720433">
        <ele>2425.0</ele>
        <time>2015-05-30T13:44:57Z</time>
      </trkpt>
      <trkpt lat="38.303833" lon="-2.720767">
        <ele>2420.0</ele>
        <time>2015-05-30T13:45:02Z</time>
      </trkpt>
      <trkpt lat="38.303717" lon="-2.721083">
        <ele>2415.0</ele>
        <time>2015-05-30T13:45:07Z</time>
      </trkpt>
      <trkpt lat="38.303567" lon="-2.721400">
        <ele>2409.0</ele>
        <time>2015-05-30T13:45:12Z</time>
      </trkpt>
      <trkpt lat="38.303417" lon="-2.721717">
        <ele>2404.0</ele>
        <time>2015-05-30T13:45:17Z</time>
      </trkpt>
      <trkpt lat="38.303300" lon="-2.722033">
        <ele>2400.0</ele>
        <time>2015-05-30T13:45:22Z</time>
      </trkpt>
      <trkpt lat="38.303200" lon="-2.722367">
        <ele>2396.0</ele>
        <time>2015-05-30T13:45:27Z</time>
      </trkpt>
      <trkpt lat="38.303050" lon="-2.722683">
        <ele>2392.0</ele>
        <time>2015-05-30T13:45:32Z</time>
      </trkpt>
      <trkpt lat="38.302900" lon="-2.723000">
        <ele>2387.0</ele>
        <time>2015-05-30T13:45:37Z</time>
      </trkpt>
      <trkpt lat="38.302733" lon="-2.723300">
        <ele>2381.0</ele>
        <time>2015-05-30T13:45:42Z</time>
      </trkpt>
      <trkpt lat="38.302583" lon="-2.723583">
        <ele>2374.0</ele>
        <time>2015-05-30T13:45:47Z</time>
      </trkpt>
      <trkpt lat="38.302450" lon="-2.723867">
        <ele>2368.0</ele>
        <time>2015-05-30T13:45:52Z</time>
      </trkpt>
      <trkpt lat="38.302300" lon="-2.724150">
        <ele>2357.0</ele>
        <time>2015-05-30T13:45:57Z</time>
      </trkpt>
      <trkpt lat="38.302100" lon="-2.724433">
        <ele>2348.0</ele>
        <time>2015-05-30T13:46:02Z</time>
      </trkpt>
      <trkpt lat="38.301917" lon="-2.724750">
        <ele>2338.0</ele>
        <time>2015-05-30T13:46:07Z</time>
      </trkpt>
      <trkpt lat="38.301750" lon="-2.725083">
        <ele>2325.0</ele>
        <time>2015-05-30T13:46:12Z</time>
      </trkpt>
      <trkpt lat="38.301633" lon="-2.725417">
        <ele>2311.0</ele>
        <time>2015-05-30T13:46:17Z</time>
      </trkpt>
      <trkpt lat="38.301483" lon="-2.725800">
        <ele>2299.0</ele>
        <time>2015-05-30T13:46:22Z</time>
      </trkpt>
      <trkpt lat="38.301267" lon="-2.726133">
        <ele>2288.0</ele>
        <time>2015-05-30T13:46:27Z</time>
      </trkpt>
      <trkpt lat="38.301083" lon="-2.726433">
        <ele>2279.0</ele>
        <time>2015-05-30T13:46:32Z</time>
      </trkpt>
      <trkpt lat="38.300833" lon="-2.726783">
        <ele>2271.0</ele>
        <time>2015-05-30T13:46:37Z</time>
      </trkpt>
      <trkpt lat="38.300583" lon="-2.727033">
        <ele>2261.0</ele>
        <time>2015-05-30T13:46:42Z</time>
      </trkpt>
      <trkpt lat="38.300333" lon="-2.727333">
        <ele>2251.0</ele>
        <time>2015-05-30T13:46:47Z</time>
      </trkpt>
      <trkpt lat="38.300033" lon="-2.727667">
        <ele>2244.0</ele>
        <time>2015-05-30T13:46:52Z</time>
      </trkpt>
      <trkpt lat="38.299783" lon="-2.727983">
        <ele>2235.0</ele>
        <time>2015-05-30T13:46:57Z</time>
      </trkpt>
      <trkpt lat="38.299500" lon="-2.728317">
        <ele>2230.0</ele>
        <time>2015-05-30T13:47:02Z</time>
      </trkpt>
      <trkpt lat="38.299267" lon="-2.728500">
        <ele>2222.0</ele>
        <time>2015-05-30T13:47:07Z</time>
      </trkpt>
      <trkpt lat="38.298933" lon="-2.728750">
        <ele>2209.0</ele>
        <time>2015-05-30T13:47:12Z</time>
      </trkpt>
      <trkpt lat="38.298533" lon="-2.728983">
        <ele>2200.0</ele>
        <time>2015-05-30T13:47:17Z</time>
      </trkpt>
      <trkpt lat="38.298200" lon="-2.729117">
        <ele>2196.0</ele>
        <time>2015-05-30T13:47:22Z</time>
      </trkpt>
      <trkpt lat="38.297950" lon="-2.729283">
        <ele>2194.0</ele>
        <time>2015-05-30T13:47:27Z</time>
      </trkpt>
      <trkpt lat="38.297717" lon="-2.729500">
        <ele>2190.0</ele>
        <time>2015-05-30T13:47:32Z</time>
      </trkpt>
      <trkpt lat="38.297500" lon="-2.729717">
        <ele>2190.0</ele>
        <time>2015-05-30T13:47:37Z</time>
      </trkpt>
      <trkpt lat="38.297283" lon="-2.729783">
        <ele>2190.0</ele>
        <time>2015-05-30T13:47:42Z</time>
      </trkpt>
      <trkpt lat="38.296983" lon="-2.729783">
        <ele>2198.0</ele>
        <time>2015-05-30T13:47:47Z</time>
      </trkpt>
      <trkpt lat="38.296650" lon="-2.729767">
        <ele>2209.0</ele>
        <time>2015-05-30T13:47:52Z</time>
      </trkpt>
      <trkpt lat="38.296283" lon="-2.729550">
        <ele>2219.0</ele>
        <time>2015-05-30T13:47:57Z</time>
      </trkpt>
      <trkpt lat="38.295900" lon="-2.729533">
        <ele>2232.0</ele>
        <time>2015-05-30T13:48:02Z</time>
      </trkpt>
      <trkpt lat="38.295550" lon="-2.729567">
        <ele>2245.0</ele>
        <time>2015-05-30T13:48:07Z</time>
      </trkpt>
      <trkpt lat="38.295300" lon="-2.729400">
        <ele>2259.0</ele>
        <time>2015-05-30T13:48:12Z</time>
      </trkpt>
      <trkpt lat="38.295317" lon="-2.728533">
        <ele>2272.0</ele>
        <time>2015-05-30T13:48:17Z</time>
      </trkpt>
      <trkpt lat="38.295717" lon="-2.728350">
        <ele>2283.0</ele>
        <time>2015-05-30T13:48:22Z</time>
      </trkpt>
      <trkpt lat="38.295633" lon="-2.728583">
        <ele>2294.0</ele>
        <time>2015-05-30T13:48:27Z</time>
      </trkpt>
      <trkpt lat="38.295433" lon="-2.728700">
        <ele>2304.0</ele>
        <time>2015-05-30T13:48:32Z</time>
      </trkpt>
      <trkpt lat="38.295233" lon="-2.728783">
        <ele>2318.0</ele>
        <time>2015-05-30T13:48:37Z</time>
      </trkpt>
      <trkpt lat="38.295000" lon="-2.728817">
        <ele>2333.0</ele>
        <time>2015-05-30T13:48:42Z</time>
      </trkpt>
      <trkpt lat="38.294800" lon="-2.728900">
        <ele>2350.0</ele>
        <time>2015-05-30T13:48:47Z</time>
      </trkpt>
      <trkpt lat="38.294633" lon="-2.728983">
        <ele>2361.0</ele>
        <time>2015-05-30T13:48:52Z</time>
      </trkpt>
      <trkpt lat="38.294283" lon="-2.728583">
        <ele>2372.0</ele>
        <time>2015-05-30T13:48:57Z</time>
      </trkpt>
      <trkpt lat="38.294317" lon="-2.727750">
        <ele>2384.0</ele>
        <time>2015-05-30T13:49:02Z</time>
      </trkpt>
      <trkpt lat="38.294850" lon="-2.727450">
        <ele>2395.0</ele>
        <time>2015-05-30T13:49:07Z</time>
      </trkpt>
      <trkpt lat="38.295033" lon="-2.727650">
        <ele>2407.0</ele>
        <time>2015-05-30T13:49:12Z</time>
      </trkpt>
      <trkpt lat="38.294983" lon="-2.727767">
        <ele>2420.0</ele>
        <time>2015-05-30T13:49:17Z</time>
      </trkpt>
      <trkpt lat="38.294700" lon="-2.727617">
        <ele>2431.0</ele>
        <time>2015-05-30T13:49:22Z</time>
      </trkpt>
      <trkpt lat="38.294533" lon="-2.726917">
        <ele>2441.0</ele>
        <time>2015-05-30T13:49:27Z</time>
      </trkpt>
      <trkpt lat="38.294850" lon="-2.726183">
        <ele>2453.0</ele>
        <time>2015-05-30T13:49:32Z</time>
      </trkpt>
      <trkpt lat="38.295317" lon="-2.726017">
        <ele>2467.0</ele>
        <time>2015-05-30T13:49:37Z</time>
      </trkpt>
      <trkpt lat="38.295367" lon="-2.726167">
        <ele>2477.0</ele>
        <time>2015-05-30T13:49:42Z</time>
      </trkpt>
      <trkpt lat="38.295217" lon="-2.726333">
        <ele>2489.0</ele>
        <time>2015-05-30T13:49:47Z</time>
      </trkpt>
      <trkpt lat="38.295017" lon="-2.726417">
        <ele>2501.0</ele>
        <time>2015-05-30T13:49:52Z</time>
      </trkpt>
      <trkpt lat="38.294883" lon="-2.726600">
        <ele>2516.0</ele>
        <time>2015-05-30T13:49:57Z</time>
      </trkpt>
      <trkpt lat="38.295000" lon="-2.726933">
        <ele>2529.0</ele>
        <time>2015-05-30T13:50:02Z</time>
      </trkpt>
      <trkpt lat="38.295133" lon="-2.727250">
        <ele>2542.0</ele>
        <time>2015-05-30T13:50:07Z</time>
      </trkpt>
      <trkpt lat="38.294833" lon="-2.727233">
        <ele>2556.0</ele>
        <time>2015-05-30T13:50:12Z</time>
      </trkpt>
      <trkpt lat="38.294700" lon="-2.726517">
        <ele>2570.0</ele>
        <time>2015-05-30T13:50:17Z</time>
      </trkpt>
      <trkpt lat="38.295217" lon="-2.725967">
        <ele>2582.0</ele>
        <time>2015-05-30T13:50:22Z</time>
      </trkpt>
      <trkpt lat="38.295700" lon="-2.726117">
        <ele>2599.0</ele>
        <time>2015-05-30T13:50:27Z</time>
      </trkpt>
      <trkpt lat="38.295867" lon="-2.726417">
        <ele>2612.0</ele>
        <time>2015-05-30T13:50:32Z</time>
      </trkpt>
      <trkpt lat="38.295817" lon="-2.726667">
        <ele>2630.0</ele>
        <time>2015-05-30T13:50:37Z</time>
      </trkpt>
      <trkpt lat="38.295600" lon="-2.726750">
        <ele>2646.0</ele>
        <time>2015-05-30T13:50:42Z</time>
      </trkpt>
      <trkpt lat="38.295250" lon="-2.726233">
        <ele>2661.0</ele>
        <time>2015-05-30T13:50:47Z</time>
      </trkpt>
      <trkpt lat="38.295533" lon="-2.725550">
        <ele>2677.0</ele>
        <time>2015-05-30T13:50:52Z</time>
      </trkpt>
      <trkpt lat="38.296150" lon="-2.725500">
        <ele>2693.0</ele>
        <time>2015-05-30T13:50:57Z</time>
      </trkpt>
      <trkpt lat="38.296317" lon="-2.725817">
        <ele>2709.0</ele>
        <time>2015-05-30T13:51:02Z</time>
      </trkpt>
      <trkpt lat="38.296283" lon="-2.726050">
        <ele>2725.0</ele>
        <time>2015-05-30T13:51:07Z</time>
      </trkpt>
      <trkpt lat="38.295983" lon="-2.726133">
        <ele>2737.0</ele>
        <time>2015-05-30T13:51:12Z</time>
      </trkpt>
      <trkpt lat="38.295550" lon="-2.725783">
        <ele>2747.0</ele>
        <time>2015-05-30T13:51:17Z</time>
      </trkpt>
      <trkpt lat="38.295217" lon="-2.725150">
        <ele>2755.0</ele>
        <time>2015-05-30T13:51:22Z</time>
      </trkpt>
      <trkpt lat="38.295200" lon="-2.724483">
        <ele>2763.0</ele>
        <time>2015-05-30T13:51:27Z</time>
      </trkpt>
      <trkpt lat="38.295400" lon="-2.723683">
        <ele>2770.0</ele>
        <time>2015-05-30T13:51:32Z</time>
      </trkpt>
      <trkpt lat="38.295767" lon="-2.723633">
        <ele>2777.0</ele>
        <time>2015-05-30T13:51:37Z</time>
      </trkpt>
      <trkpt lat="38.295700" lon="-2.724017">
        <ele>2787.0</ele>
        <time>2015-05-30T13:51:42Z</time>
      </trkpt>
      <trkpt lat="38.295533" lon="-2.724367">
        <ele>2797.0</ele>
        <time>2015-05-30T13:51:47Z</time>
      </trkpt>
      <trkpt lat="38.295267" lon="-2.724683">
        <ele>2805.0</ele>
        <time>2015-05-30T13:51:52Z</time>
      </trkpt>
      <trkpt lat="38.295083" lon="-2.725033">
        <ele>2809.0</ele>
        <time>2015-05-30T13:51:57Z</time>
      </trkpt>
      <trkpt lat="38.294950" lon="-2.725433">
        <ele>2809.0</ele>
        <time>2015-05-30T13:52:02Z</time>
      </trkpt>
      <trkpt lat="38.294850" lon="-2.725733">
        <ele>2804.0</ele>
        <time>2015-05-30T13:52:07Z</time>
      </trkpt>
      <trkpt lat="38.294767" lon="-2.726100">
        <ele>2796.0</ele>
        <time>2015-05-30T13:52:12Z</time>
      </trkpt>
      <trkpt lat="38.294767" lon="-2.726450">
        <ele>2787.0</ele>
        <time>2015-05-30T13:52:17Z</time>
      </trkpt>
      <trkpt lat="38.294833" lon="-2.726783">
        <ele>2779.0</ele>
        <time>2015-05-30T13:52:22Z</time>
      </trkpt>
      <trkpt lat="38.295050" lon="-2.727200">
        <ele>2771.0</ele>
        <time>2015-05-30T13:52:27Z</time>
      </trkpt>
      <trkpt lat="38.295367" lon="-2.727533">
        <ele>2763.0</ele>
        <time>2015-05-30T13:52:32Z</time>
      </trkpt>
      <trkpt lat="38.295683" lon="-2.727800">
        <ele>2756.0</ele>
        <time>2015-05-30T13:52:37Z</time>
      </trkpt>
      <trkpt lat="38.296017" lon="-2.728083">
        <ele>2748.0</ele>
        <time>2015-05-30T13:52:42Z</time>
      </trkpt>
      <trkpt lat="38.296367" lon="-2.728350">
        <ele>2738.0</ele>
        <time>2015-05-30T13:52:47Z</time>
      </trkpt>
      <trkpt lat="38.296717" lon="-2.728567">
        <ele>2727.0</ele>
        <time>2015-05-30T13:52:52Z</time>
      </trkpt>
      <trkpt lat="38.297067" lon="-2.728817">
        <ele>2715.0</ele>
        <time>2015-05-30T13:52:57Z</time>
      </trkpt>
      <trkpt lat="38.297383" lon="-2.729067">
        <ele>2702.0</ele>
        <time>2015-05-30T13:53:02Z</time>
      </trkpt>
      <trkpt lat="38.297700" lon="-2.729367">
        <ele>2690.0</ele>
        <time>2015-05-30T13:53:07Z</time>
      </trkpt>
      <trkpt lat="38.298050" lon="-2.729633">
        <ele>2678.0</ele>
        <time>2015-05-30T13:53:12Z</time>
      </trkpt>
      <trkpt lat="38.298350" lon="-2.729983">
        <ele>2668.0</ele>
        <time>2015-05-30T13:53:17Z</time>
      </trkpt>
      <trkpt lat="38.298567" lon="-2.730367">
        <ele>2662.0</ele>
        <time>2015-05-30T13:53:22Z</time>
      </trkpt>
      <trkpt lat="38.298817" lon="-2.730767">
        <ele>2657.0</ele>
        <time>2015-05-30T13:53:27Z</time>
      </trkpt>
      <trkpt lat="38.299050" lon="-2.731233">
        <ele>2653.0</ele>
        <time>2015-05-30T13:53:32Z</time>
      </trkpt>
      <trkpt lat="38.299217" lon="-2.731683">
        <ele>2650.0</ele>
        <time>2015-05-30T13:53:37Z</time>
      </trkpt>
      <trkpt lat="38.299350" lon="-2.732133">
        <ele>2646.0</ele>
        <time>2015-05-30T13:53:42Z</time>
      </trkpt>
      <trkpt lat="38.299567" lon="-2.732467">
        <ele>2645.0</ele>
        <time>2015-05-30T13:53:47Z</time>
      </trkpt>
      <trkpt lat="38.299783" lon="-2.732750">
        <ele>2643.0</ele>
        <time>2015-05-30T13:53:52Z</time>
      </trkpt>
      <trkpt lat="38.299983" lon="-2.733083">
        <ele>2639.0</ele>
        <time>2015-05-30T13:53:57Z</time>
      </trkpt>
      <trkpt lat="38.300183" lon="-2.733400">
        <ele>2631.0</ele>
        <time>2015-05-30T13:54:02Z</time>
      </trkpt>
      <trkpt lat="38.300317" lon="-2.733733">
        <ele>2622.0</ele>
        <time>2015-05-30T13:54:07Z</time>
      </trkpt>
      <trkpt lat="38.300433" lon="-2.734050">
        <ele>2612.0</ele>
        <time>2015-05-30T13:54:12Z</time>
      </trkpt>
      <trkpt lat="38.300517" lon="-2.734400">
        <ele>2598.0</ele>
        <time>2015-05-30T13:54:17Z</time>
      </trkpt>
      <trkpt lat="38.300567" lon="-2.734767">
        <ele>2585.0</ele>
        <time>2015-05-30T13:54:22Z</time>
      </trkpt>
      <trkpt lat="38.300717" lon="-2.735133">
        <ele>2571.0</ele>
        <time>2015-05-30T13:54:27Z</time>
      </trkpt>
      <trkpt lat="38.300967" lon="-2.735500">
        <ele>2558.0</ele>
        <time>2015-05-30T13:54:32Z</time>
      </trkpt>
      <trkpt lat="38.301233" lon="-2.735817">
        <ele>2548.0</ele>
        <time>2015-05-30T13:54:37Z</time>
      </trkpt>
      <trkpt lat="38.301383" lon="-2.736233">
        <ele>2540.0</ele>
        <time>2015-05-30T13:54:42Z</time>
      </trkpt>
      <trkpt lat="38.301483" lon="-2.736633">
        <ele>2530.0</ele>
        <time>2015-05-30T13:54:47Z</time>
      </trkpt>
      <trkpt lat="38.301533" lon="-2.736950">
        <ele>2520.0</ele>
        <time>2015-05-30T13:54:52Z</time>
      </trkpt>
      <trkpt lat="38.301583" lon="-2.737400">
        <ele>2507.0</ele>
        <time>2015-05-30T13:54:57Z</time>
      </trkpt>
      <trkpt lat="38.301633" lon="-2.737750">
        <ele>2496.0</ele>
        <time>2015-05-30T13:55:02Z</time>
      </trkpt>
      <trkpt lat="38.301683" lon="-2.738117">
        <ele>2486.0</ele>
        <time>2015-05-30T13:55:07Z</time>
      </trkpt>
      <trkpt lat="38.301717" lon="-2.738467">
        <ele>2479.0</ele>
        <time>2015-05-30T13:55:12Z</time>
      </trkpt>
      <trkpt lat="38.301717" lon="-2.738750">
        <ele>2476.0</ele>
        <time>2015-05-30T13:55:17Z</time>
      </trkpt>
      <trkpt lat="38.301700" lon="-2.739100">
        <ele>2470.0</ele>
        <time>2015-05-30T13:55:22Z</time>
      </trkpt>
      <trkpt lat="38.301717" lon="-2.739267">
        <ele>2468.0</ele>
        <time>2015-05-30T13:55:27Z</time>
      </trkpt>
      <trkpt lat="38.301983" lon="-2.739367">
        <ele>2467.0</ele>
        <time>2015-05-30T13:55:32Z</time>
      </trkpt>
      <trkpt lat="38.302300" lon="-2.739467">
        <ele>2467.0</ele>
        <time>2015-05-30T13:55:37Z</time>
      </trkpt>
      <trkpt lat="38.302717" lon="-2.739483">
        <ele>2470.0</ele>
        <time>2015-05-30T13:55:42Z</time>
      </trkpt>
      <trkpt lat="38.303117" lon="-2.739400">
        <ele>2474.0</ele>
        <time>2015-05-30T13:55:47Z</time>
      </trkpt>
      <trkpt lat="38.303483" lon="-2.739483">
        <ele>2477.0</ele>
        <time>2015-05-30T13:55:52Z</time>
      </trkpt>
      <trkpt lat="38.303533" lon="-2.739700">
        <ele>2482.0</ele>
        <time>2015-05-30T13:55:57Z</time>
      </trkpt>
      <trkpt lat="38.303700" lon="-2.739767">
        <ele>2491.0</ele>
        <time>2015-05-30T13:56:02Z</time>
      </trkpt>
      <trkpt lat="38.304167" lon="-2.739650">
        <ele>2499.0</ele>
        <time>2015-05-30T13:56:07Z</time>
      </trkpt>
      <trkpt lat="38.304550" lon="-2.738833">
        <ele>2508.0</ele>
        <time>2015-05-30T13:56:12Z</time>
      </trkpt>
      <trkpt lat="38.304300" lon="-2.738017">
        <ele>2516.0</ele>
        <time>2015-05-30T13:56:17Z</time>
      </trkpt>
      <trkpt lat="38.304050" lon="-2.738100">
        <ele>2525.0</ele>
        <time>2015-05-30T13:56:22Z</time>
      </trkpt>
      <trkpt lat="38.304017" lon="-2.738350">
        <ele>2533.0</ele>
        <time>2015-05-30T13:56:27Z</time>
      </trkpt>
      <trkpt lat="38.304083" lon="-2.738583">
        <ele>2541.0</ele>
        <time>2015-05-30T13:56:32Z</time>
      </trkpt>
      <trkpt lat="38.304017" lon="-2.738817">
        <ele>2553.0</ele>
        <time>2015-05-30T13:56:37Z</time>
      </trkpt>
      <trkpt lat="38.304217" lon="-2.738983">
        <ele>2567.0</ele>
        <time>2015-05-30T13:56:42Z</time>
      </trkpt>
      <trkpt lat="38.304650" lon="-2.738433">
        <ele>2579.0</ele>
        <time>2015-05-30T13:56:47Z</time>
      </trkpt>
      <trkpt lat="38.304300" lon="-2.737867">
        <ele>2594.0</ele>
        <time>2015-05-30T13:56:52Z</time>
      </trkpt>
      <trkpt lat="38.304033" lon="-2.738017">
        <ele>2612.0</ele>
        <time>2015-05-30T13:56:57Z</time>
      </trkpt>
      <trkpt lat="38.304217" lon="-2.738233">
        <ele>2628.0</ele>
        <time>2015-05-30T13:57:02Z</time>
      </trkpt>
      <trkpt lat="38.304750" lon="-2.738000">
        <ele>2644.0</ele>
        <time>2015-05-30T13:57:07Z</time>
      </trkpt>
      <trkpt lat="38.305100" lon="-2.738250">
        <ele>2659.0</ele>
        <time>2015-05-30T13:57:12Z</time>
      </trkpt>
      <trkpt lat="38.304800" lon="-2.738217">
        <ele>2670.0</ele>
        <time>2015-05-30T13:57:17Z</time>
      </trkpt>
      <trkpt lat="38.304883" lon="-2.737483">
        <ele>2682.0</ele>
        <time>2015-05-30T13:57:22Z</time>
      </trkpt>
      <trkpt lat="38.305417" lon="-2.737150">
        <ele>2693.0</ele>
        <time>2015-05-30T13:57:27Z</time>
      </trkpt>
      <trkpt lat="38.305567" lon="-2.737400">
        <ele>2703.0</ele>
        <time>2015-05-30T13:57:32Z</time>
      </trkpt>
      <trkpt lat="38.305267" lon="-2.737483">
        <ele>2714.0</ele>
        <time>2015-05-30T13:57:37Z</time>
      </trkpt>
      <trkpt lat="38.304883" lon="-2.737333">
        <ele>2724.0</ele>
        <time>2015-05-30T13:57:42Z</time>
      </trkpt>
      <trkpt lat="38.304633" lon="-2.736683">
        <ele>2730.0</ele>
        <time>2015-05-30T13:57:47Z</time>
      </trkpt>
      <trkpt lat="38.304600" lon="-2.735983">
        <ele>2735.0</ele>
        <time>2015-05-30T13:57:52Z</time>
      </trkpt>
      <trkpt lat="38.304850" lon="-2.735167">
        <ele>2736.0</ele>
        <time>2015-05-30T13:57:57Z</time>
      </trkpt>
      <trkpt lat="38.305350" lon="-2.735200">
        <ele>2748.0</ele>
        <time>2015-05-30T13:58:02Z</time>
      </trkpt>
      <trkpt lat="38.305267" lon="-2.735533">
        <ele>2762.0</ele>
        <time>2015-05-30T13:58:07Z</time>
      </trkpt>
      <trkpt lat="38.304850" lon="-2.735050">
        <ele>2775.0</ele>
        <time>2015-05-30T13:58:12Z</time>
      </trkpt>
      <trkpt lat="38.304983" lon="-2.734400">
        <ele>2781.0</ele>
        <time>2015-05-30T13:58:17Z</time>
      </trkpt>
      <trkpt lat="38.305500" lon="-2.733783">
        <ele>2793.0</ele>
        <time>2015-05-30T13:58:22Z</time>
      </trkpt>
      <trkpt lat="38.306083" lon="-2.733500">
        <ele>2802.0</ele>
        <time>2015-05-30T13:58:27Z</time>
      </trkpt>
      <trkpt lat="38.306100" lon="-2.733733">
        <ele>2811.0</ele>
        <time>2015-05-30T13:58:32Z</time>
      </trkpt>
      <trkpt lat="38.305883" lon="-2.732933">
        <ele>2823.0</ele>
        <time>2015-05-30T13:58:37Z</time>
      </trkpt>
      <trkpt lat="38.306483" lon="-2.732517">
        <ele>2833.0</ele>
        <time>2015-05-30T13:58:42Z</time>
      </trkpt>
      <trkpt lat="38.306733" lon="-2.732733">
        <ele>2837.0</ele>
        <time>2015-05-30T13:58:47Z</time>
      </trkpt>
      <trkpt lat="38.306533" lon="-2.732950">
        <ele>2839.0</ele>
        <time>2015-05-30T13:58:52Z</time>
      </trkpt>
      <trkpt lat="38.306300" lon="-2.733050">
        <ele>2845.0</ele>
        <time>2015-05-30T13:58:57Z</time>
      </trkpt>
      <trkpt lat="38.306317" lon="-2.733367">
        <ele>2849.0</ele>
        <time>2015-05-30T13:59:02Z</time>
      </trkpt>
      <trkpt lat="38.306833" lon="-2.733167">
        <ele>2852.0</ele>
        <time>2015-05-30T13:59:07Z</time>
      </trkpt>
      <trkpt lat="38.307167" lon="-2.732417">
        <ele>2853.0</ele>
        <time>2015-05-30T13:59:12Z</time>
      </trkpt>
      <trkpt lat="38.306967" lon="-2.731717">
        <ele>2855.0</ele>
        <time>2015-05-30T13:59:17Z</time>
      </trkpt>
      <trkpt lat="38.306600" lon="-2.731683">
        <ele>2857.0</ele>
        <time>2015-05-30T13:59:22Z</time>
      </trkpt>
      <trkpt lat="38.306500" lon="-2.732050">
        <ele>2861.0</ele>
        <time>2015-05-30T13:59:27Z</time>
      </trkpt>
      <trkpt lat="38.306383" lon="-2.732317">
        <ele>2863.0</ele>
        <time>2015-05-30T13:59:32Z</time>
      </trkpt>
      <trkpt lat="38.306250" lon="-2.732533">
        <ele>2858.0</ele>
        <time>2015-05-30T13:59:37Z</time>
      </trkpt>
      <trkpt lat="38.306067" lon="-2.732817">
        <ele>2854.0</ele>
        <time>2015-05-30T13:59:42Z</time>
      </trkpt>
      <trkpt lat="38.305900" lon="-2.733133">
        <ele>2848.0</ele>
        <time>2015-05-30T13:59:47Z</time>
      </trkpt>
      <trkpt lat="38.305683" lon="-2.733433">
        <ele>2840.0</ele>
        <time>2015-05-30T13:59:52Z</time>
      </trkpt>
      <trkpt lat="38.305417" lon="-2.733733">
        <ele>2833.0</ele>
        <time>2015-05-30T13:59:57Z</time>
      </trkpt>
      <trkpt lat="38.305150" lon="-2.734133">
        <ele>2827.0</ele>
        <time>2015-05-30T14:00:02Z</time>
      </trkpt>
      <trkpt lat="38.304917" lon="-2.734500">
        <ele>2818.0</ele>
        <time>2015-05-30T14:00:07Z</time>
      </trkpt>
      <trkpt lat="38.304717" lon="-2.734917">
        <ele>2813.0</ele>
        <time>2015-05-30T14:00:12Z</time>
      </trkpt>
      <trkpt lat="38.304517" lon="-2.735300">
        <ele>2805.0</ele>
        <time>2015-05-30T14:00:17Z</time>
      </trkpt>
      <trkpt lat="38.304317" lon="-2.735633">
        <ele>2799.0</ele>
        <time>2015-05-30T14:00:22Z</time>
      </trkpt>
      <trkpt lat="38.304100" lon="-2.735933">
        <ele>2792.0</ele>
        <time>2015-05-30T14:00:27Z</time>
      </trkpt>
      <trkpt lat="38.303933" lon="-2.736250">
        <ele>2783.0</ele>
        <time>2015-05-30T14:00:32Z</time>
      </trkpt>
      <trkpt lat="38.303867" lon="-2.736567">
        <ele>2774.0</ele>
        <time>2015-05-30T14:00:37Z</time>
      </trkpt>
      <trkpt lat="38.303850" lon="-2.736900">
        <ele>2765.0</ele>
        <time>2015-05-30T14:00:42Z</time>
      </trkpt>
      <trkpt lat="38.303733" lon="-2.737217">
        <ele>2754.0</ele>
        <time>2015-05-30T14:00:47Z</time>
      </trkpt>
      <trkpt lat="38.303667" lon="-2.737533">
        <ele>2741.0</ele>
        <time>2015-05-30T14:00:52Z</time>
      </trkpt>
      <trkpt lat="38.303717" lon="-2.737917">
        <ele>2727.0</ele>
        <time>2015-05-30T14:00:57Z</time>
      </trkpt>
      <trkpt lat="38.303850" lon="-2.738250">
        <ele>2721.0</ele>
        <time>2015-05-30T14:01:02Z</time>
      </trkpt>
      <trkpt lat="38.303933" lon="-2.738550">
        <ele>2715.0</ele>
        <time>2015-05-30T14:01:07Z</time>
      </trkpt>
      <trkpt lat="38.304000" lon="-2.738867">
        <ele>2706.0</ele>
        <time>2015-05-30T14:01:12Z</time>
      </trkpt>
      <trkpt lat="38.304100" lon="-2.739150">
        <ele>2703.0</ele>
        <time>2015-05-30T14:01:17Z</time>
      </trkpt>
      <trkpt lat="38.304017" lon="-2.739267">
        <ele>2696.0</ele>
        <time>2015-05-30T14:01:22Z</time>
      </trkpt>
      <trkpt lat="38.304000" lon="-2.739483">
        <ele>2689.0</ele>
        <time>2015-05-30T14:01:27Z</time>
      </trkpt>
      <trkpt lat="38.304133" lon="-2.739817">
        <ele>2680.0</ele>
        <time>2015-05-30T14:01:32Z</time>
      </trkpt>
      <trkpt lat="38.304333" lon="-2.740150">
        <ele>2670.0</ele>
        <time>2015-05-30T14:01:37Z</time>
      </trkpt>
      <trkpt lat="38.304517" lon="-2.740417">
        <ele>2665.0</ele>
        <time>2015-05-30T14:01:42Z</time>
      </trkpt>
      <trkpt lat="38.304617" lon="-2.740767">
        <ele>2657.0</ele>
        <time>2015-05-30T14:01:47Z</time>
      </trkpt>
      <trkpt lat="38.304767" lon="-2.741150">
        <ele>2645.0</ele>
        <time>2015-05-30T14:01:52Z</time>
      </trkpt>
      <trkpt lat="38.304950" lon="-2.741517">
        <ele>2634.0</ele>
        <time>2015-05-30T14:01:57Z</time>
      </trkpt>
      <trkpt lat="38.305067" lon="-2.741917">
        <ele>2626.0</ele>
        <time>2015-05-30T14:02:02Z</time>
      </trkpt>
      <trkpt lat="38.305117" lon="-2.742233">
        <ele>2620.0</ele>
        <time>2015-05-30T14:02:07Z</time>
      </trkpt>
      <trkpt lat="38.305233" lon="-2.742583">
        <ele>2618.0</ele>
        <time>2015-05-30T14:02:12Z</time>
      </trkpt>
      <trkpt lat="38.305333" lon="-2.742917">
        <ele>2616.0</ele>
        <time>2015-05-30T14:02:17Z</time>
      </trkpt>
      <trkpt lat="38.305350" lon="-2.743183">
        <ele>2613.0</ele>
        <time>2015-05-30T14:02:22Z</time>
      </trkpt>
      <trkpt lat="38.305383" lon="-2.743517">
        <ele>2609.0</ele>
        <time>2015-05-30T14:02:27Z</time>
      </trkpt>
      <trkpt lat="38.305467" lon="-2.743817">
        <ele>2603.0</ele>
        <time>2015-05-30T14:02:32Z</time>
      </trkpt>
      <trkpt lat="38.305717" lon="-2.744133">
        <ele>2598.0</ele>
        <time>2015-05-30T14:02:37Z</time>
      </trkpt>
      <trkpt lat="38.306000" lon="-2.744417">
        <ele>2593.0</ele>
        <time>2015-05-30T14:02:42Z</time>
      </trkpt>
      <trkpt lat="38.306250" lon="-2.744700">
        <ele>2590.0</ele>
        <time>2015-05-30T14:02:47Z</time>
      </trkpt>
      <trkpt lat="38.306400" lon="-2.745017">
        <ele>2589.0</ele>
        <time>2015-05-30T14:02:52Z</time>
      </trkpt>
      <trkpt lat="38.306483" lon="-2.745333">
        <ele>2588.0</ele>
        <time>2015-05-30T14:02:57Z</time>
      </trkpt>
      <trkpt lat="38.306500" lon="-2.745667">
        <ele>2587.0</ele>
        <time>2015-05-30T14:03:02Z</time>
      </trkpt>
      <trkpt lat="38.306517" lon="-2.746000">
        <ele>2584.0</ele>
        <time>2015-05-30T14:03:07Z</time>
      </trkpt>
      <trkpt lat="38.306450" lon="-2.746317">
        <ele>2581.0</ele>
        <time>2015-05-30T14:03:12Z</time>
      </trkpt>
      <trkpt lat="38.306333" lon="-2.746600">
        <ele>2577.0</ele>
        <time>2015-05-30T14:03:17Z</time>
      </trkpt>
      <trkpt lat="38.306250" lon="-2.746883">
        <ele>2572.0</ele>
        <time>2015-05-30T14:03:22Z</time>
      </trkpt>
      <trkpt lat="38.306250" lon="-2.747167">
        <ele>2568.0</ele>
        <time>2015-05-30T14:03:27Z</time>
      </trkpt>
      <trkpt lat="38.306300" lon="-2.747433">
        <ele>2563.0</ele>
        <time>2015-05-30T14:03:32Z</time>
      </trkpt>
      <trkpt lat="38.306400" lon="-2.747700">
        <ele>2557.0</ele>
        <time>2015-05-30T14:03:37Z</time>
      </trkpt>
      <trkpt lat="38.306567" lon="-2.747967">
        <ele>2553.0</ele>
        <time>2015-05-30T14:03:42Z</time>
      </trkpt>
      <trkpt lat="38.306817" lon="-2.748200">
        <ele>2546.0</ele>
        <time>2015-05-30T14:03:47Z</time>
      </trkpt>
      <trkpt lat="38.307117" lon="-2.748417">
        <ele>2540.0</ele>
        <time>2015-05-30T14:03:52Z</time>
      </trkpt>
      <trkpt lat="38.307417" lon="-2.748650">
        <ele>2535.0</ele>
        <time>2015-05-30T14:03:57Z</time>
      </trkpt>
      <trkpt lat="38.307650" lon="-2.748800">
        <ele>2527.0</ele>
        <time>2015-05-30T14:04:02Z</time>
      </trkpt>
      <trkpt lat="38.307967" lon="-2.748917">
        <ele>2521.0</ele>
        <time>2015-05-30T14:04:07Z</time>
      </trkpt>
      <trkpt lat="38.308283" lon="-2.749033">
        <ele>2513.0</ele>
        <time>2015-05-30T14:04:12Z</time>
      </trkpt>
      <trkpt lat="38.308550" lon="-2.749167">
        <ele>2504.0</ele>
        <time>2015-05-30T14:04:17Z</time>
      </trkpt>
      <trkpt lat="38.308733" lon="-2.749350">
        <ele>2496.0</ele>
        <time>2015-05-30T14:04:22Z</time>
      </trkpt>
      <trkpt lat="38.308917" lon="-2.749633">
        <ele>2486.0</ele>
        <time>2015-05-30T14:04:27Z</time>
      </trkpt>
      <trkpt lat="38.309100" lon="-2.749917">
        <ele>2477.0</ele>
        <time>2015-05-30T14:04:32Z</time>
      </trkpt>
      <trkpt lat="38.309283" lon="-2.750233">
        <ele>2468.0</ele>
        <time>2015-05-30T14:04:37Z</time>
      </trkpt>
      <trkpt lat="38.309467" lon="-2.750550">
        <ele>2459.0</ele>
        <time>2015-05-30T14:04:42Z</time>
      </trkpt>
      <trkpt lat="38.309700" lon="-2.750800">
        <ele>2449.0</ele>
        <time>2015-05-30T14:04:47Z</time>
      </trkpt>
      <trkpt lat="38.310000" lon="-2.750967">
        <ele>2439.0</ele>
        <time>2015-05-30T14:04:52Z</time>
      </trkpt>
      <trkpt lat="38.310350" lon="-2.751083">
        <ele>2425.0</ele>
        <time>2015-05-30T14:04:57Z</time>
      </trkpt>
      <trkpt lat="38.310650" lon="-2.751283">
        <ele>2411.0</ele>
        <time>2015-05-30T14:05:02Z</time>
      </trkpt>
      <trkpt lat="38.310883" lon="-2.751517">
        <ele>2397.0</ele>
        <time>2015-05-30T14:05:07Z</time>
      </trkpt>
      <trkpt lat="38.311233" lon="-2.751767">
        <ele>2380.0</ele>
        <time>2015-05-30T14:05:12Z</time>
      </trkpt>
      <trkpt lat="38.311600" lon="-2.752067">
        <ele>2365.0</ele>
        <time>2015-05-30T14:05:17Z</time>
      </trkpt>
      <trkpt lat="38.312000" lon="-2.752300">
        <ele>2353.0</ele>
        <time>2015-05-30T14:05:23Z</time>
      </trkpt>
      <trkpt lat="38.312317" lon="-2.752517">
        <ele>2345.0</ele>
        <time>2015-05-30T14:05:28Z</time>
      </trkpt>
      <trkpt lat="38.312633" lon="-2.752733">
        <ele>2340.0</ele>
        <time>2015-05-30T14:05:33Z</time>
      </trkpt>
      <trkpt lat="38.312967" lon="-2.752933">
        <ele>2339.0</ele>
        <time>2015-05-30T14:05:38Z</time>
      </trkpt>
      <trkpt lat="38.313367" lon="-2.753083">
        <ele>2341.0</ele>
        <time>2015-05-30T14:05:43Z</time>
      </trkpt>
      <trkpt lat="38.313817" lon="-2.753167">
        <ele>2342.0</ele>
        <time>2015-05-30T14:05:48Z</time>
      </trkpt>
      <trkpt lat="38.314233" lon="-2.753167">
        <ele>2344.0</ele>
        <time>2015-05-30T14:05:53Z</time>
      </trkpt>
      <trkpt lat="38.314417" lon="-2.753183">
        <ele>2345.0</ele>
        <time>2015-05-30T14:05:58Z</time>
      </trkpt>
      <trkpt lat="38.314567" lon="-2.753267">
        <ele>2344.0</ele>
        <time>2015-05-30T14:06:03Z</time>
      </trkpt>
      <trkpt lat="38.314817" lon="-2.753367">
        <ele>2340.0</ele>
        <time>2015-05-30T14:06:08Z</time>
      </trkpt>
      <trkpt lat="38.315033" lon="-2.753583">
        <ele>2334.0</ele>
        <time>2015-05-30T14:06:13Z</time>
      </trkpt>
      <trkpt lat="38.315217" lon="-2.753717">
        <ele>2328.0</ele>
        <time>2015-05-30T14:06:18Z</time>
      </trkpt>
      <trkpt lat="38.315400" lon="-2.753933">
        <ele>2319.0</ele>
        <time>2015-05-30T14:06:23Z</time>
      </trkpt>
      <trkpt lat="38.315617" lon="-2.754117">
        <ele>2309.0</ele>
        <time>2015-05-30T14:06:28Z</time>
      </trkpt>
      <trkpt lat="38.315783" lon="-2.754300">
        <ele>2298.0</ele>
        <time>2015-05-30T14:06:33Z</time>
      </trkpt>
      <trkpt lat="38.316000" lon="-2.754450">
        <ele>2285.0</ele>
        <time>2015-05-30T14:06:38Z</time>
      </trkpt>
      <trkpt lat="38.316250" lon="-2.754567">
        <ele>2273.0</ele>
        <time>2015-05-30T14:06:43Z</time>
      </trkpt>
      <trkpt lat="38.316433" lon="-2.754700">
        <ele>2262.0</ele>
        <time>2015-05-30T14:06:48Z</time>
      </trkpt>
      <trkpt lat="38.316550" lon="-2.754883">
        <ele>2253.0</ele>
        <time>2015-05-30T14:06:53Z</time>
      </trkpt>
      <trkpt lat="38.316700" lon="-2.755117">
        <ele>2242.0</ele>
        <time>2015-05-30T14:06:58Z</time>
      </trkpt>
      <trkpt lat="38.316900" lon="-2.755333">
        <ele>2232.0</ele>
        <time>2015-05-30T14:07:03Z</time>
      </trkpt>
      <trkpt lat="38.317183" lon="-2.755550">
        <ele>2224.0</ele>
        <time>2015-05-30T14:07:08Z</time>
      </trkpt>
      <trkpt lat="38.317417" lon="-2.755717">
        <ele>2216.0</ele>
        <time>2015-05-30T14:07:13Z</time>
      </trkpt>
      <trkpt lat="38.317633" lon="-2.755950">
        <ele>2210.0</ele>
        <time>2015-05-30T14:07:18Z</time>
      </trkpt>
      <trkpt lat="38.317767" lon="-2.756167">
        <ele>2202.0</ele>
        <time>2015-05-30T14:07:23Z</time>
      </trkpt>
      <trkpt lat="38.317933" lon="-2.756417">
        <ele>2192.0</ele>
        <time>2015-05-30T14:07:28Z</time>
      </trkpt>
      <trkpt lat="38.318167" lon="-2.756617">
        <ele>2182.0</ele>
        <time>2015-05-30T14:07:33Z</time>
      </trkpt>
      <trkpt lat="38.318433" lon="-2.756817">
        <ele>2174.0</ele>
        <time>2015-05-30T14:07:38Z</time>
      </trkpt>
      <trkpt lat="38.318633" lon="-2.757100">
        <ele>2164.0</ele>
        <time>2015-05-30T14:07:43Z</time>
      </trkpt>
      <trkpt lat="38.318833" lon="-2.757317">
        <ele>2155.0</ele>
        <time>2015-05-30T14:07:48Z</time>
      </trkpt>
      <trkpt lat="38.319050" lon="-2.757533">
        <ele>2147.0</ele>
        <time>2015-05-30T14:07:53Z</time>
      </trkpt>
      <trkpt lat="38.319267" lon="-2.757733">
        <ele>2139.0</ele>
        <time>2015-05-30T14:07:58Z</time>
      </trkpt>
      <trkpt lat="38.319450" lon="-2.757950">
        <ele>2130.0</ele>
        <time>2015-05-30T14:08:03Z</time>
      </trkpt>
      <trkpt lat="38.319667" lon="-2.758183">
        <ele>2121.0</ele>
        <time>2015-05-30T14:08:08Z</time>
      </trkpt>
      <trkpt lat="38.319833" lon="-2.758433">
        <ele>2110.0</ele>
        <time>2015-05-30T14:08:13Z</time>
      </trkpt>
      <trkpt lat="38.320017" lon="-2.758650">
        <ele>2099.0</ele>
        <time>2015-05-30T14:08:18Z</time>
      </trkpt>
      <trkpt lat="38.320183" lon="-2.758917">
        <ele>2088.0</ele>
        <time>2015-05-30T14:08:23Z</time>
      </trkpt>
      <trkpt lat="38.320317" lon="-2.759200">
        <ele>2074.0</ele>
        <time>2015-05-30T14:08:28Z</time>
      </trkpt>
      <trkpt lat="38.320500" lon="-2.759483">
        <ele>2059.0</ele>
        <time>2015-05-30T14:08:33Z</time>
      </trkpt>
      <trkpt lat="38.320700" lon="-2.759783">
        <ele>2043.0</ele>
        <time>2015-05-30T14:08:38Z</time>
      </trkpt>
      <trkpt lat="38.321017" lon="-2.760033">
        <ele>2029.0</ele>
        <time>2015-05-30T14:08:43Z</time>
      </trkpt>
      <trkpt lat="38.321300" lon="-2.760283">
        <ele>2011.0</ele>
        <time>2015-05-30T14:08:48Z</time>
      </trkpt>
      <trkpt lat="38.321583" lon="-2.760567">
        <ele>1995.0</ele>
        <time>2015-05-30T14:08:53Z</time>
      </trkpt>
      <trkpt lat="38.321917" lon="-2.760817">
        <ele>1981.0</ele>
        <time>2015-05-30T14:08:58Z</time>
      </trkpt>
      <trkpt lat="38.322183" lon="-2.761067">
        <ele>1969.0</ele>
        <time>2015-05-30T14:09:03Z</time>
      </trkpt>
      <trkpt lat="38.322383" lon="-2.761367">
        <ele>1961.0</ele>
        <time>2015-05-30T14:09:08Z</time>
      </trkpt>
      <trkpt lat="38.322517" lon="-2.761700">
        <ele>1954.0</ele>
        <time>2015-05-30T14:09:13Z</time>
      </trkpt>
      <trkpt lat="38.322650" lon="-2.762050">
        <ele>1950.0</ele>
        <time>2015-05-30T14:09:18Z</time>
      </trkpt>
      <trkpt lat="38.322817" lon="-2.762400">
        <ele>1944.0</ele>
        <time>2015-05-30T14:09:23Z</time>
      </trkpt>
      <trkpt lat="38.323033" lon="-2.762733">
        <ele>1937.0</ele>
        <time>2015-05-30T14:09:28Z</time>
      </trkpt>
      <trkpt lat="38.323233" lon="-2.763100">
        <ele>1930.0</ele>
        <time>2015-05-30T14:09:33Z</time>
      </trkpt>
      <trkpt lat="38.323483" lon="-2.763450">
        <ele>1921.0</ele>
        <time>2015-05-30T14:09:38Z</time>
      </trkpt>
      <trkpt lat="38.323767" lon="-2.763817">
        <ele>1914.0</ele>
        <time>2015-05-30T14:09:43Z</time>
      </trkpt>
      <trkpt lat="38.324050" lon="-2.764150">
        <ele>1904.0</ele>
        <time>2015-05-30T14:09:48Z</time>
      </trkpt>
      <trkpt lat="38.324300" lon="-2.764533">
        <ele>1897.0</ele>
        <time>2015-05-30T14:09:53Z</time>
      </trkpt>
      <trkpt lat="38.324483" lon="-2.764967">
        <ele>1887.0</ele>
        <time>2015-05-30T14:09:58Z</time>
      </trkpt>
      <trkpt lat="38.324583" lon="-2.765367">
        <ele>1878.0</ele>
        <time>2015-05-30T14:10:03Z</time>
      </trkpt>
      <trkpt lat="38.324667" lon="-2.765733">
        <ele>1875.0</ele>
        <time>2015-05-30T14:10:08Z</time>
      </trkpt>
      <trkpt lat="38.324667" lon="-2.766050">
        <ele>1871.0</ele>
        <time>2015-05-30T14:10:13Z</time>
      </trkpt>
      <trkpt lat="38.324683" lon="-2.766350">
        <ele>1868.0</ele>
        <time>2015-05-30T14:10:18Z</time>
      </trkpt>
      <trkpt lat="38.324783" lon="-2.766733">
        <ele>1861.0</ele>
        <time>2015-05-30T14:10:23Z</time>
      </trkpt>
      <trkpt lat="38.324950" lon="-2.767100">
        <ele>1853.0</ele>
        <time>2015-05-30T14:10:28Z</time>
      </trkpt>
      <trkpt lat="38.325150" lon="-2.767483">
        <ele>1847.0</ele>
        <time>2015-05-30T14:10:33Z</time>
      </trkpt>
      <trkpt lat="38.325133" lon="-2.767833">
        <ele>1842.0</ele>
        <time>2015-05-30T14:10:38Z</time>
      </trkpt>
      <trkpt lat="38.325100" lon="-2.768183">
        <ele>1836.0</ele>
        <time>2015-05-30T14:10:43Z</time>
      </trkpt>
      <trkpt lat="38.325167" lon="-2.768517">
        <ele>1828.0</ele>
        <time>2015-05-30T14:10:48Z</time>
      </trkpt>
      <trkpt lat="38.325150" lon="-2.768883">
        <ele>1819.0</ele>
        <time>2015-05-30T14:10:53Z</time>
      </trkpt>
      <trkpt lat="38.325217" lon="-2.769250">
        <ele>1807.0</ele>
        <time>2015-05-30T14:10:58Z</time>
      </trkpt>
      <trkpt lat="38.325433" lon="-2.769683">
        <ele>1792.0</ele>
        <time>2015-05-30T14:11:03Z</time>
      </trkpt>
      <trkpt lat="38.325700" lon="-2.770083">
        <ele>1780.0</ele>
        <time>2015-05-30T14:11:08Z</time>
      </trkpt>
      <trkpt lat="38.326033" lon="-2.770417">
        <ele>1771.0</ele>
        <time>2015-05-30T14:11:13Z</time>
      </trkpt>
      <trkpt lat="38.326383" lon="-2.770733">
        <ele>1762.0</ele>
        <time>2015-05-30T14:11:18Z</time>
      </trkpt>
      <trkpt lat="38.326767" lon="-2.771133">
        <ele>1756.0</ele>
        <time>2015-05-30T14:11:23Z</time>
      </trkpt>
      <trkpt lat="38.327033" lon="-2.771350">
        <ele>1756.0</ele>
        <time>2015-05-30T14:11:28Z</time>
      </trkpt>
      <trkpt lat="38.327467" lon="-2.771433">
        <ele>1754.0</ele>
        <time>2015-05-30T14:11:33Z</time>
      </trkpt>
      <trkpt lat="38.327867" lon="-2.771583">
        <ele>1748.0</ele>
        <time>2015-05-30T14:11:38Z</time>
      </trkpt>
      <trkpt lat="38.328250" lon="-2.771750">
        <ele>1741.0</ele>
        <time>2015-05-30T14:11:43Z</time>
      </trkpt>
      <trkpt lat="38.328617" lon="-2.771900">
        <ele>1732.0</ele>
        <time>2015-05-30T14:11:48Z</time>
      </trkpt>
      <trkpt lat="38.329100" lon="-2.771917">
        <ele>1721.0</ele>
        <time>2015-05-30T14:11:53Z</time>
      </trkpt>
      <trkpt lat="38.329517" lon="-2.772067">
        <ele>1708.0</ele>
        <time>2015-05-30T14:11:58Z</time>
      </trkpt>
      <trkpt lat="38.329817" lon="-2.772300">
        <ele>1695.0</ele>
        <time>2015-05-30T14:12:03Z</time>
      </trkpt>
      <trkpt lat="38.330117" lon="-2.772633">
        <ele>1680.0</ele>
        <time>2015-05-30T14:12:08Z</time>
      </trkpt>
      <trkpt lat="38.330417" lon="-2.772867">
        <ele>1668.0</ele>
        <time>2015-05-30T14:12:13Z</time>
      </trkpt>
      <trkpt lat="38.330633" lon="-2.773150">
        <ele>1655.0</ele>
        <time>2015-05-30T14:12:18Z</time>
      </trkpt>
      <trkpt lat="38.330800" lon="-2.773400">
        <ele>1641.0</ele>
        <time>2015-05-30T14:12:23Z</time>
      </trkpt>
      <trkpt lat="38.330933" lon="-2.773717">
        <ele>1629.0</ele>
        <time>2015-05-30T14:12:28Z</time>
      </trkpt>
      <trkpt lat="38.331083" lon="-2.773917">
        <ele>1619.0</ele>
        <time>2015-05-30T14:12:33Z</time>
      </trkpt>
      <trkpt lat="38.331317" lon="-2.774100">
        <ele>1612.0</ele>
        <time>2015-05-30T14:12:38Z</time>
      </trkpt>
      <trkpt lat="38.331533" lon="-2.774333">
        <ele>1606.0</ele>
        <time>2015-05-30T14:12:43Z</time>
      </trkpt>
      <trkpt lat="38.331917" lon="-2.774400">
        <ele>1603.0</ele>
        <time>2015-05-30T14:12:48Z</time>
      </trkpt>
      <trkpt lat="38.332283" lon="-2.774550">
        <ele>1601.0</ele>
        <time>2015-05-30T14:12:53Z</time>
      </trkpt>
      <trkpt lat="38.332433" lon="-2.774833">
        <ele>1600.0</ele>
        <time>2015-05-30T14:12:58Z</time>
      </trkpt>
      <trkpt lat="38.332500" lon="-2.775150">
        <ele>1599.0</ele>
        <time>2015-05-30T14:13:03Z</time>
      </trkpt>
      <trkpt lat="38.332633" lon="-2.775450">
        <ele>1599.0</ele>
        <time>2015-05-30T14:13:08Z</time>
      </trkpt>
      <trkpt lat="38.332717" lon="-2.775700">
        <ele>1602.0</ele>
        <time>2015-05-30T14:13:13Z</time>
      </trkpt>
      <trkpt lat="38.332900" lon="-2.775967">
        <ele>1598.0</ele>
        <time>2015-05-30T14:13:18Z</time>
      </trkpt>
      <trkpt lat="38.333117" lon="-2.776233">
        <ele>1590.0</ele>
        <time>2015-05-30T14:13:23Z</time>
      </trkpt>
      <trkpt lat="38.333317" lon="-2.776533">
        <ele>1586.0</ele>
        <time>2015-05-30T14:13:28Z</time>
      </trkpt>
      <trkpt lat="38.333550" lon="-2.776600">
        <ele>1583.0</ele>
        <time>2015-05-30T14:13:33Z</time>
      </trkpt>
      <trkpt lat="38.334017" lon="-2.776633">
        <ele>1579.0</ele>
        <time>2015-05-30T14:13:38Z</time>
      </trkpt>
      <trkpt lat="38.334367" lon="-2.776917">
        <ele>1572.0</ele>
        <time>2015-05-30T14:13:43Z</time>
      </trkpt>
      <trkpt lat="38.334667" lon="-2.777250">
        <ele>1572.0</ele>
        <time>2015-05-30T14:13:48Z</time>
      </trkpt>
      <trkpt lat="38.335167" lon="-2.777150">
        <ele>1570.0</ele>
        <time>2015-05-30T14:13:53Z</time>
      </trkpt>
      <trkpt lat="38.335633" lon="-2.776717">
        <ele>1570.0</ele>
        <time>2015-05-30T14:13:58Z</time>
      </trkpt>
      <trkpt lat="38.336117" lon="-2.776733">
        <ele>1567.0</ele>
        <time>2015-05-30T14:14:03Z</time>
      </trkpt>
      <trkpt lat="38.336517" lon="-2.776933">
        <ele>1561.0</ele>
        <time>2015-05-30T14:14:08Z</time>
      </trkpt>
      <trkpt lat="38.336883" lon="-2.777200">
        <ele>1555.0</ele>
        <time>2015-05-30T14:14:13Z</time>
      </trkpt>
      <trkpt lat="38.337233" lon="-2.777483">
        <ele>1551.0</ele>
        <time>2015-05-30T14:14:18Z</time>
      </trkpt>
      <trkpt lat="38.337600" lon="-2.777750">
        <ele>1544.0</ele>
        <time>2015-05-30T14:14:23Z</time>
      </trkpt>
      <trkpt lat="38.337967" lon="-2.778000">
        <ele>1540.0</ele>
        <time>2015-05-30T14:14:28Z</time>
      </trkpt>
      <trkpt lat="38.338350" lon="-2.778250">
        <ele>1535.0</ele>
        <time>2015-05-30T14:14:33Z</time>
      </trkpt>
      <trkpt lat="38.338783" lon="-2.778450">
        <ele>1532.0</ele>
        <time>2015-05-30T14:14:38Z</time>
      </trkpt>
      <trkpt lat="38.339250" lon="-2.778617">
        <ele>1531.0</ele>
        <time>2015-05-30T14:14:43Z</time>
      </trkpt>
      <trkpt lat="38.339733" lon="-2.778767">
        <ele>1535.0</ele>
        <time>2015-05-30T14:14:48Z</time>
      </trkpt>
      <trkpt lat="38.340050" lon="-2.778950">
        <ele>1533.0</ele>
        <time>2015-05-30T14:14:53Z</time>
      </trkpt>
      <trkpt lat="38.340500" lon="-2.779017">
        <ele>1524.0</ele>
        <time>2015-05-30T14:14:58Z</time>
      </trkpt>
      <trkpt lat="38.340883" lon="-2.779217">
        <ele>1516.0</ele>
        <time>2015-05-30T14:15:03Z</time>
      </trkpt>
      <trkpt lat="38.341200" lon="-2.779533">
        <ele>1504.0</ele>
        <time>2015-05-30T14:15:08Z</time>
      </trkpt>
      <trkpt lat="38.341433" lon="-2.779883">
        <ele>1492.0</ele>
        <time>2015-05-30T14:15:13Z</time>
      </trkpt>
      <trkpt lat="38.341700" lon="-2.780183">
        <ele>1484.0</ele>
        <time>2015-05-30T14:15:18Z</time>
      </trkpt>
      <trkpt lat="38.342100" lon="-2.780333">
        <ele>1477.0</ele>
        <time>2015-05-30T14:15:23Z</time>
      </trkpt>
      <trkpt lat="38.342517" lon="-2.780433">
        <ele>1472.0</ele>
        <time>2015-05-30T14:15:28Z</time>
      </trkpt>
      <trkpt lat="38.342983" lon="-2.780550">
        <ele>1465.0</ele>
        <time>2015-05-30T14:15:33Z</time>
      </trkpt>
      <trkpt lat="38.343500" lon="-2.780717">
        <ele>1459.0</ele>
        <time>2015-05-30T14:15:38Z</time>
      </trkpt>
      <trkpt lat="38.344000" lon="-2.780917">
        <ele>1453.0</ele>
        <time>2015-05-30T14:15:43Z</time>
      </trkpt>
      <trkpt lat="38.344450" lon="-2.781217">
        <ele>1448.0</ele>
        <time>2015-05-30T14:15:48Z</time>
      </trkpt>
      <trkpt lat="38.344883" lon="-2.781517">
        <ele>1444.0</ele>
        <time>2015-05-30T14:15:53Z</time>
      </trkpt>
      <trkpt lat="38.345417" lon="-2.781717">
        <ele>1443.0</ele>
        <time>2015-05-30T14:15:58Z</time>
      </trkpt>
      <trkpt lat="38.346000" lon="-2.781633">
        <ele>1444.0</ele>
        <time>2015-05-30T14:16:03Z</time>
      </trkpt>
      <trkpt lat="38.346567" lon="-2.781450">
        <ele>1444.0</ele>
        <time>2015-05-30T14:16:08Z</time>
      </trkpt>
      <trkpt lat="38.347017" lon="-2.781000">
        <ele>1445.0</ele>
        <time>2015-05-30T14:16:13Z</time>
      </trkpt>
      <trkpt lat="38.347000" lon="-2.780250">
        <ele>1446.0</ele>
        <time>2015-05-30T14:16:18Z</time>
      </trkpt>
      <trkpt lat="38.346650" lon="-2.780050">
        <ele>1449.0</ele>
        <time>2015-05-30T14:16:23Z</time>
      </trkpt>
      <trkpt lat="38.346533" lon="-2.780283">
        <ele>1453.0</ele>
        <time>2015-05-30T14:16:28Z</time>
      </trkpt>
      <trkpt lat="38.346867" lon="-2.780667">
        <ele>1455.0</ele>
        <time>2015-05-30T14:16:33Z</time>
      </trkpt>
      <trkpt lat="38.347417" lon="-2.780733">
        <ele>1455.0</ele>
        <time>2015-05-30T14:16:38Z</time>
      </trkpt>
      <trkpt lat="38.347917" lon="-2.780283">
        <ele>1454.0</ele>
        <time>2015-05-30T14:16:43Z</time>
      </trkpt>
      <trkpt lat="38.348117" lon="-2.779600">
        <ele>1454.0</ele>
        <time>2015-05-30T14:16:48Z</time>
      </trkpt>
      <trkpt lat="38.348117" lon="-2.778867">
        <ele>1452.0</ele>
        <time>2015-05-30T14:16:53Z</time>
      </trkpt>
      <trkpt lat="38.348083" lon="-2.778183">
        <ele>1451.0</ele>
        <time>2015-05-30T14:16:58Z</time>
      </trkpt>
      <trkpt lat="38.348067" lon="-2.777450">
        <ele>1450.0</ele>
        <time>2015-05-30T14:17:03Z</time>
      </trkpt>
      <trkpt lat="38.348000" lon="-2.776783">
        <ele>1448.0</ele>
        <time>2015-05-30T14:17:08Z</time>
      </trkpt>
      <trkpt lat="38.348217" lon="-2.776200">
        <ele>1443.0</ele>
        <time>2015-05-30T14:17:13Z</time>
      </trkpt>
      <trkpt lat="38.348667" lon="-2.775883">
        <ele>1433.0</ele>
        <time>2015-05-30T14:17:18Z</time>
      </trkpt>
      <trkpt lat="38.349150" lon="-2.775983">
        <ele>1416.0</ele>
        <time>2015-05-30T14:17:23Z</time>
      </trkpt>
      <trkpt lat="38.349633" lon="-2.776033">
        <ele>1400.0</ele>
        <time>2015-05-30T14:17:28Z</time>
      </trkpt>
      <trkpt lat="38.350167" lon="-2.776000">
        <ele>1386.0</ele>
        <time>2015-05-30T14:17:33Z</time>
      </trkpt>
      <trkpt lat="38.350583" lon="-2.775950">
        <ele>1379.0</ele>
        <time>2015-05-30T14:17:38Z</time>
      </trkpt>
      <trkpt lat="38.351117" lon="-2.775867">
        <ele>1381.0</ele>
        <time>2015-05-30T14:17:43Z</time>
      </trkpt>
      <trkpt lat="38.351417" lon="-2.775183">
        <ele>1388.0</ele>
        <time>2015-05-30T14:17:48Z</time>
      </trkpt>
      <trkpt lat="38.351117" lon="-2.774933">
        <ele>1401.0</ele>
        <time>2015-05-30T14:17:53Z</time>
      </trkpt>
      <trkpt lat="38.351267" lon="-2.775233">
        <ele>1416.0</ele>
        <time>2015-05-30T14:17:58Z</time>
      </trkpt>
      <trkpt lat="38.351683" lon="-2.775167">
        <ele>1437.0</ele>
        <time>2015-05-30T14:18:03Z</time>
      </trkpt>
      <trkpt lat="38.352133" lon="-2.774750">
        <ele>1453.0</ele>
        <time>2015-05-30T14:18:08Z</time>
      </trkpt>
      <trkpt lat="38.352017" lon="-2.774183">
        <ele>1466.0</ele>
        <time>2015-05-30T14:18:13Z</time>
      </trkpt>
      <trkpt lat="38.351583" lon="-2.774050">
        <ele>1476.0</ele>
        <time>2015-05-30T14:18:18Z</time>
      </trkpt>
      <trkpt lat="38.351300" lon="-2.774183">
        <ele>1487.0</ele>
        <time>2015-05-30T14:18:23Z</time>
      </trkpt>
      <trkpt lat="38.351317" lon="-2.774533">
        <ele>1496.0</ele>
        <time>2015-05-30T14:18:28Z</time>
      </trkpt>
      <trkpt lat="38.351550" lon="-2.774817">
        <ele>1501.0</ele>
        <time>2015-05-30T14:18:33Z</time>
      </trkpt>
      <trkpt lat="38.352050" lon="-2.774617">
        <ele>1504.0</ele>
        <time>2015-05-30T14:18:38Z</time>
      </trkpt>
      <trkpt lat="38.352500" lon="-2.774400">
        <ele>1510.0</ele>
        <time>2015-05-30T14:18:43Z</time>
      </trkpt>
      <trkpt lat="38.352617" lon="-2.774683">
        <ele>1517.0</ele>
        <time>2015-05-30T14:18:48Z</time>
      </trkpt>
      <trkpt lat="38.352300" lon="-2.774417">
        <ele>1529.0</ele>
        <time>2015-05-30T14:18:53Z</time>
      </trkpt>
      <trkpt lat="38.352383" lon="-2.773717">
        <ele>1543.0</ele>
        <time>2015-05-30T14:18:58Z</time>
      </trkpt>
      <trkpt lat="38.352800" lon="-2.773800">
        <ele>1558.0</ele>
        <time>2015-05-30T14:19:03Z</time>
      </trkpt>
      <trkpt lat="38.353083" lon="-2.774133">
        <ele>1577.0</ele>
        <time>2015-05-30T14:19:08Z</time>
      </trkpt>
      <trkpt lat="38.352900" lon="-2.774183">
        <ele>1594.0</ele>
        <time>2015-05-30T14:19:13Z</time>
      </trkpt>
      <trkpt lat="38.352800" lon="-2.773517">
        <ele>1606.0</ele>
        <time>2015-05-30T14:19:18Z</time>
      </trkpt>
      <trkpt lat="38.353100" lon="-2.772850">
        <ele>1617.0</ele>
        <time>2015-05-30T14:19:23Z</time>
      </trkpt>
      <trkpt lat="38.353433" lon="-2.772250">
        <ele>1634.0</ele>
        <time>2015-05-30T14:19:28Z</time>
      </trkpt>
      <trkpt lat="38.353883" lon="-2.772000">
        <ele>1651.0</ele>
        <time>2015-05-30T14:19:33Z</time>
      </trkpt>
      <trkpt lat="38.353983" lon="-2.772367">
        <ele>1666.0</ele>
        <time>2015-05-30T14:19:38Z</time>
      </trkpt>
      <trkpt lat="38.353767" lon="-2.772367">
        <ele>1682.0</ele>
        <time>2015-05-30T14:19:43Z</time>
      </trkpt>
      <trkpt lat="38.353500" lon="-2.771883">
        <ele>1696.0</ele>
        <time>2015-05-30T14:19:48Z</time>
      </trkpt>
      <trkpt lat="38.353667" lon="-2.771133">
        <ele>1713.0</ele>
        <time>2015-05-30T14:19:53Z</time>
      </trkpt>
      <trkpt lat="38.354083" lon="-2.770883">
        <ele>1730.0</ele>
        <time>2015-05-30T14:19:58Z</time>
      </trkpt>
      <trkpt lat="38.354133" lon="-2.771217">
        <ele>1747.0</ele>
        <time>2015-05-30T14:20:03Z</time>
      </trkpt>
      <trkpt lat="38.353833" lon="-2.770867">
        <ele>1765.0</ele>
        <time>2015-05-30T14:20:08Z</time>
      </trkpt>
      <trkpt lat="38.353850" lon="-2.770133">
        <ele>1784.0</ele>
        <time>2015-05-30T14:20:13Z</time>
      </trkpt>
      <trkpt lat="38.354117" lon="-2.769417">
        <ele>1801.0</ele>
        <time>2015-05-30T14:20:18Z</time>
      </trkpt>
      <trkpt lat="38.354500" lon="-2.769483">
        <ele>1817.0</ele>
        <time>2015-05-30T14:20:23Z</time>
      </trkpt>
      <trkpt lat="38.354433" lon="-2.769783">
        <ele>1832.0</ele>
        <time>2015-05-30T14:20:28Z</time>
      </trkpt>
      <trkpt lat="38.354133" lon="-2.769633">
        <ele>1847.0</ele>
        <time>2015-05-30T14:20:33Z</time>
      </trkpt>
      <trkpt lat="38.353983" lon="-2.769017">
        <ele>1861.0</ele>
        <time>2015-05-30T14:20:38Z</time>
      </trkpt>
      <trkpt lat="38.354267" lon="-2.768267">
        <ele>1871.0</ele>
        <time>2015-05-30T14:20:43Z</time>
      </trkpt>
      <trkpt lat="38.354750" lon="-2.767917">
        <ele>1883.0</ele>
        <time>2015-05-30T14:20:48Z</time>
      </trkpt>
      <trkpt lat="38.355117" lon="-2.768117">
        <ele>1895.0</ele>
        <time>2015-05-30T14:20:53Z</time>
      </trkpt>
      <trkpt lat="38.355267" lon="-2.768433">
        <ele>1910.0</ele>
        <time>2015-05-30T14:20:58Z</time>
      </trkpt>
      <trkpt lat="38.355500" lon="-2.768700">
        <ele>1930.0</ele>
        <time>2015-05-30T14:21:03Z</time>
      </trkpt>
      <trkpt lat="38.355583" lon="-2.769033">
        <ele>1947.0</ele>
        <time>2015-05-30T14:21:08Z</time>
      </trkpt>
      <trkpt lat="38.355267" lon="-2.768783">
        <ele>1962.0</ele>
        <time>2015-05-30T14:21:13Z</time>
      </trkpt>
      <trkpt lat="38.355300" lon="-2.767967">
        <ele>1976.0</ele>
        <time>2015-05-30T14:21:18Z</time>
      </trkpt>
      <trkpt lat="38.355700" lon="-2.767400">
        <ele>1990.0</ele>
        <time>2015-05-30T14:21:23Z</time>
      </trkpt>
      <trkpt lat="38.356183" lon="-2.767117">
        <ele>2007.0</ele>
        <time>2015-05-30T14:21:28Z</time>
      </trkpt>
      <trkpt lat="38.356283" lon="-2.767383">
        <ele>2023.0</ele>
        <time>2015-05-30T14:21:33Z</time>
      </trkpt>
      <trkpt lat="38.355850" lon="-2.767050">
        <ele>2037.0</ele>
        <time>2015-05-30T14:21:38Z</time>
      </trkpt>
      <trkpt lat="38.355817" lon="-2.766283">
        <ele>2052.0</ele>
        <time>2015-05-30T14:21:43Z</time>
      </trkpt>
      <trkpt lat="38.356167" lon="-2.765700">
        <ele>2068.0</ele>
        <time>2015-05-30T14:21:48Z</time>
      </trkpt>
      <trkpt lat="38.356300" lon="-2.765800">
        <ele>2086.0</ele>
        <time>2015-05-30T14:21:53Z</time>
      </trkpt>
      <trkpt lat="38.356000" lon="-2.765350">
        <ele>2104.0</ele>
        <time>2015-05-30T14:21:58Z</time>
      </trkpt>
      <trkpt lat="38.356267" lon="-2.764733">
        <ele>2122.0</ele>
        <time>2015-05-30T14:22:03Z</time>
      </trkpt>
      <trkpt lat="38.356633" lon="-2.764600">
        <ele>2140.0</ele>
        <time>2015-05-30T14:22:08Z</time>
      </trkpt>
      <trkpt lat="38.356483" lon="-2.764783">
        <ele>2158.0</ele>
        <time>2015-05-30T14:22:13Z</time>
      </trkpt>
      <trkpt lat="38.356050" lon="-2.764450">
        <ele>2174.0</ele>
        <time>2015-05-30T14:22:18Z</time>
      </trkpt>
      <trkpt lat="38.356017" lon="-2.763717">
        <ele>2189.0</ele>
        <time>2015-05-30T14:22:23Z</time>
      </trkpt>
      <trkpt lat="38.356450" lon="-2.763183">
        <ele>2200.0</ele>
        <time>2015-05-30T14:22:28Z</time>
      </trkpt>
      <trkpt lat="38.356933" lon="-2.763083">
        <ele>2212.0</ele>
        <time>2015-05-30T14:22:33Z</time>
      </trkpt>
      <trkpt lat="38.356917" lon="-2.763250">
        <ele>2225.0</ele>
        <time>2015-05-30T14:22:38Z</time>
      </trkpt>
      <trkpt lat="38.356517" lon="-2.762867">
        <ele>2238.0</ele>
        <time>2015-05-30T14:22:43Z</time>
      </trkpt>
      <trkpt lat="38.356650" lon="-2.762033">
        <ele>2249.0</ele>
        <time>2015-05-30T14:22:48Z</time>
      </trkpt>
      <trkpt lat="38.357033" lon="-2.761733">
        <ele>2261.0</ele>
        <time>2015-05-30T14:22:53Z</time>
      </trkpt>
      <trkpt lat="38.357367" lon="-2.761783">
        <ele>2272.0</ele>
        <time>2015-05-30T14:22:58Z</time>
      </trkpt>
      <trkpt lat="38.357117" lon="-2.761717">
        <ele>2282.0</ele>
        <time>2015-05-30T14:23:03Z</time>
      </trkpt>
      <trkpt lat="38.357100" lon="-2.760883">
        <ele>2294.0</ele>
        <time>2015-05-30T14:23:08Z</time>
      </trkpt>
      <trkpt lat="38.357483" lon="-2.760450">
        <ele>2305.0</ele>
        <time>2015-05-30T14:23:13Z</time>
      </trkpt>
      <trkpt lat="38.357467" lon="-2.760667">
        <ele>2316.0</ele>
        <time>2015-05-30T14:23:18Z</time>
      </trkpt>
      <trkpt lat="38.357050" lon="-2.760333">
        <ele>2327.0</ele>
        <time>2015-05-30T14:23:23Z</time>
      </trkpt>
      <trkpt lat="38.356967" lon="-2.759533">
        <ele>2338.0</ele>
        <time>2015-05-30T14:23:28Z</time>
      </trkpt>
      <trkpt lat="38.357267" lon="-2.758800">
        <ele>2346.0</ele>
        <time>2015-05-30T14:23:33Z</time>
      </trkpt>
      <trkpt lat="38.357750" lon="-2.758433">
        <ele>2352.0</ele>
        <time>2015-05-30T14:23:38Z</time>
      </trkpt>
      <trkpt lat="38.358033" lon="-2.758383">
        <ele>2361.0</ele>
        <time>2015-05-30T14:23:43Z</time>
      </trkpt>
      <trkpt lat="38.358067" lon="-2.758567">
        <ele>2369.0</ele>
        <time>2015-05-30T14:23:48Z</time>
      </trkpt>
      <trkpt lat="38.357800" lon="-2.758650">
        <ele>2376.0</ele>
        <time>2015-05-30T14:23:53Z</time>
      </trkpt>
      <trkpt lat="38.357400" lon="-2.758467">
        <ele>2384.0</ele>
        <time>2015-05-30T14:23:58Z</time>
      </trkpt>
      <trkpt lat="38.356967" lon="-2.758083">
        <ele>2392.0</ele>
        <time>2015-05-30T14:24:03Z</time>
      </trkpt>
      <trkpt lat="38.356717" lon="-2.757267">
        <ele>2397.0</ele>
        <time>2015-05-30T14:24:08Z</time>
      </trkpt>
      <trkpt lat="38.356933" lon="-2.756433">
        <ele>2400.0</ele>
        <time>2015-05-30T14:24:13Z</time>
      </trkpt>
      <trkpt lat="38.357333" lon="-2.756133">
        <ele>2402.0</ele>
        <time>2015-05-30T14:24:18Z</time>
      </trkpt>
      <trkpt lat="38.357467" lon="-2.756333">
        <ele>2403.0</ele>
        <time>2015-05-30T14:24:23Z</time>
      </trkpt>
      <trkpt lat="38.357267" lon="-2.756500">
        <ele>2406.0</ele>
        <time>2015-05-30T14:24:28Z</time>
      </trkpt>
      <trkpt lat="38.356967" lon="-2.756483">
        <ele>2409.0</ele>
        <time>2015-05-30T14:24:33Z</time>
      </trkpt>
      <trkpt lat="38.356567" lon="-2.756300">
        <ele>2413.0</ele>
        <time>2015-05-30T14:24:38Z</time>
      </trkpt>
      <trkpt lat="38.356117" lon="-2.755950">
        <ele>2416.0</ele>
        <time>2015-05-30T14:24:43Z</time>
      </trkpt>
      <trkpt lat="38.355683" lon="-2.755467">
        <ele>2418.0</ele>
        <time>2015-05-30T14:24:48Z</time>
      </trkpt>
      <trkpt lat="38.355267" lon="-2.754867">
        <ele>2422.0</ele>
        <time>2015-05-30T14:24:53Z</time>
      </trkpt>
      <trkpt lat="38.354967" lon="-2.754017">
        <ele>2424.0</ele>
        <time>2015-05-30T14:24:58Z</time>
      </trkpt>
      <trkpt lat="38.355133" lon="-2.753067">
        <ele>2426.0</ele>
        <time>2015-05-30T14:25:03Z</time>
      </trkpt>
      <trkpt lat="38.355567" lon="-2.752733">
        <ele>2428.0</ele>
        <time>2015-05-30T14:25:08Z</time>
      </trkpt>
      <trkpt lat="38.355833" lon="-2.752800">
        <ele>2431.0</ele>
        <time>2015-05-30T14:25:13Z</time>
      </trkpt>
      <trkpt lat="38.355650" lon="-2.752950">
        <ele>2432.0</ele>
        <time>2015-05-30T14:25:18Z</time>
      </trkpt>
      <trkpt lat="38.355200" lon="-2.752533">
        <ele>2433.0</ele>
        <time>2015-05-30T14:25:23Z</time>
      </trkpt>
      <trkpt lat="38.355150" lon="-2.751567">
        <ele>2434.0</ele>
        <time>2015-05-30T14:25:28Z</time>
      </trkpt>
      <trkpt lat="38.355550" lon="-2.751017">
        <ele>2437.0</ele>
        <time>2015-05-30T14:25:33Z</time>
      </trkpt>
      <trkpt lat="38.355900" lon="-2.750950">
        <ele>2439.0</ele>
        <time>2015-05-30T14:25:38Z</time>
      </trkpt>
      <trkpt lat="38.355817" lon="-2.751150">
        <ele>2439.0</ele>
        <time>2015-05-30T14:25:43Z</time>
      </trkpt>
      <trkpt lat="38.355383" lon="-2.750933">
        <ele>2439.0</ele>
        <time>2015-05-30T14:25:48Z</time>
      </trkpt>
      <trkpt lat="38.355167" lon="-2.750033">
        <ele>2436.0</ele>
        <time>2015-05-30T14:25:53Z</time>
      </trkpt>
      <trkpt lat="38.355450" lon="-2.749133">
        <ele>2436.0</ele>
        <time>2015-05-30T14:25:58Z</time>
      </trkpt>
      <trkpt lat="38.355850" lon="-2.748783">
        <ele>2435.0</ele>
        <time>2015-05-30T14:26:03Z</time>
      </trkpt>
      <trkpt lat="38.356233" lon="-2.748750">
        <ele>2433.0</ele>
        <time>2015-05-30T14:26:08Z</time>
      </trkpt>
      <trkpt lat="38.356583" lon="-2.748867">
        <ele>2431.0</ele>
        <time>2015-05-30T14:26:13Z</time>
      </trkpt>
      <trkpt lat="38.356883" lon="-2.749017">
        <ele>2427.0</ele>
        <time>2015-05-30T14:26:18Z</time>
      </trkpt>
      <trkpt lat="38.357283" lon="-2.749067">
        <ele>2424.0</ele>
        <time>2015-05-30T14:26:23Z</time>
      </trkpt>
      <trkpt lat="38.357700" lon="-2.748967">
        <ele>2423.0</ele>
        <time>2015-05-30T14:26:28Z</time>
      </trkpt>
      <trkpt lat="38.358167" lon="-2.748750">
        <ele>2421.0</ele>
        <time>2015-05-30T14:26:33Z</time>
      </trkpt>
      <trkpt lat="38.358650" lon="-2.748600">
        <ele>2419.0</ele>
        <time>2015-05-30T14:26:38Z</time>
      </trkpt>
      <trkpt lat="38.359067" lon="-2.748650">
        <ele>2419.0</ele>
        <time>2015-05-30T14:26:43Z</time>
      </trkpt>
      <trkpt lat="38.359450" lon="-2.748650">
        <ele>2420.0</ele>
        <time>2015-05-30T14:26:48Z</time>
      </trkpt>
      <trkpt lat="38.359800" lon="-2.748767">
        <ele>2421.0</ele>
        <time>2015-05-30T14:26:53Z</time>
      </trkpt>
      <trkpt lat="38.359950" lon="-2.748817">
        <ele>2425.0</ele>
        <time>2015-05-30T14:26:58Z</time>
      </trkpt>
      <trkpt lat="38.360017" lon="-2.749017">
        <ele>2427.0</ele>
        <time>2015-05-30T14:27:03Z</time>
      </trkpt>
      <trkpt lat="38.359800" lon="-2.749233">
        <ele>2429.0</ele>
        <time>2015-05-30T14:27:08Z</time>
      </trkpt>
      <trkpt lat="38.359533" lon="-2.749367">
        <ele>2433.0</ele>
        <time>2015-05-30T14:27:13Z</time>
      </trkpt>
      <trkpt lat="38.359433" lon="-2.749683">
        <ele>2440.0</ele>
        <time>2015-05-30T14:27:18Z</time>
      </trkpt>
      <trkpt lat="38.359683" lon="-2.749900">
        <ele>2447.0</ele>
        <time>2015-05-30T14:27:23Z</time>
      </trkpt>
      <trkpt lat="38.360167" lon="-2.749700">
        <ele>2451.0</ele>
        <time>2015-05-30T14:27:28Z</time>
      </trkpt>
      <trkpt lat="38.360550" lon="-2.749417">
        <ele>2458.0</ele>
        <time>2015-05-30T14:27:33Z</time>
      </trkpt>
      <trkpt lat="38.360817" lon="-2.749383">
        <ele>2461.0</ele>
        <time>2015-05-30T14:27:38Z</time>
      </trkpt>
      <trkpt lat="38.360933" lon="-2.749567">
        <ele>2458.0</ele>
        <time>2015-05-30T14:27:43Z</time>
      </trkpt>
      <trkpt lat="38.361150" lon="-2.749683">
        <ele>2457.0</ele>
        <time>2015-05-30T14:27:48Z</time>
      </trkpt>
      <trkpt lat="38.361533" lon="-2.749650">
        <ele>2455.0</ele>
        <time>2015-05-30T14:27:53Z</time>
      </trkpt>
      <trkpt lat="38.361933" lon="-2.749683">
        <ele>2452.0</ele>
        <time>2015-05-30T14:27:58Z</time>
      </trkpt>
      <trkpt lat="38.362283" lon="-2.749817">
        <ele>2451.0</ele>
        <time>2015-05-30T14:28:03Z</time>
      </trkpt>
      <trkpt lat="38.362767" lon="-2.749750">
        <ele>2448.0</ele>
        <time>2015-05-30T14:28:08Z</time>
      </trkpt>
      <trkpt lat="38.363233" lon="-2.749800">
        <ele>2447.0</ele>
        <time>2015-05-30T14:28:13Z</time>
      </trkpt>
      <trkpt lat="38.363683" lon="-2.749867">
        <ele>2442.0</ele>
        <time>2015-05-30T14:28:18Z</time>
      </trkpt>
      <trkpt lat="38.364100" lon="-2.749933">
        <ele>2437.0</ele>
        <time>2015-05-30T14:28:23Z</time>
      </trkpt>
      <trkpt lat="38.364567" lon="-2.750000">
        <ele>2429.0</ele>
        <time>2015-05-30T14:28:28Z</time>
      </trkpt>
      <trkpt lat="38.365017" lon="-2.750017">
        <ele>2421.0</ele>
        <time>2015-05-30T14:28:33Z</time>
      </trkpt>
      <trkpt lat="38.365400" lon="-2.750150">
        <ele>2411.0</ele>
        <time>2015-05-30T14:28:38Z</time>
      </trkpt>
      <trkpt lat="38.365883" lon="-2.750033">
        <ele>2399.0</ele>
        <time>2015-05-30T14:28:43Z</time>
      </trkpt>
      <trkpt lat="38.366217" lon="-2.749333">
        <ele>2386.0</ele>
        <time>2015-05-30T14:28:48Z</time>
      </trkpt>
      <trkpt lat="38.366050" lon="-2.748450">
        <ele>2375.0</ele>
        <time>2015-05-30T14:28:53Z</time>
      </trkpt>
      <trkpt lat="38.365850" lon="-2.747617">
        <ele>2366.0</ele>
        <time>2015-05-30T14:28:58Z</time>
      </trkpt>
      <trkpt lat="38.365583" lon="-2.746817">
        <ele>2358.0</ele>
        <time>2015-05-30T14:29:03Z</time>
      </trkpt>
      <trkpt lat="38.365317" lon="-2.746033">
        <ele>2351.0</ele>
        <time>2015-05-30T14:29:08Z</time>
      </trkpt>
      <trkpt lat="38.365033" lon="-2.745267">
        <ele>2345.0</ele>
        <time>2015-05-30T14:29:13Z</time>
      </trkpt>
      <trkpt lat="38.364667" lon="-2.744550">
        <ele>2342.0</ele>
        <time>2015-05-30T14:29:18Z</time>
      </trkpt>
      <trkpt lat="38.364350" lon="-2.743883">
        <ele>2334.0</ele>
        <time>2015-05-30T14:29:23Z</time>
      </trkpt>
      <trkpt lat="38.364000" lon="-2.743117">
        <ele>2329.0</ele>
        <time>2015-05-30T14:29:28Z</time>
      </trkpt>
      <trkpt lat="38.363650" lon="-2.742583">
        <ele>2333.0</ele>
        <time>2015-05-30T14:29:33Z</time>
      </trkpt>
      <trkpt lat="38.363267" lon="-2.742500">
        <ele>2338.0</ele>
        <time>2015-05-30T14:29:38Z</time>
      </trkpt>
      <trkpt lat="38.363033" lon="-2.742717">
        <ele>2346.0</ele>
        <time>2015-05-30T14:29:43Z</time>
      </trkpt>
      <trkpt lat="38.362967" lon="-2.742950">
        <ele>2351.0</ele>
        <time>2015-05-30T14:29:48Z</time>
      </trkpt>
      <trkpt lat="38.363200" lon="-2.743100">
        <ele>2360.0</ele>
        <time>2015-05-30T14:29:53Z</time>
      </trkpt>
      <trkpt lat="38.363500" lon="-2.743133">
        <ele>2370.0</ele>
        <time>2015-05-30T14:29:58Z</time>
      </trkpt>
      <trkpt lat="38.363350" lon="-2.743483">
        <ele>2376.0</ele>
        <time>2015-05-30T14:30:03Z</time>
      </trkpt>
      <trkpt lat="38.362917" lon="-2.743400">
        <ele>2380.0</ele>
        <time>2015-05-30T14:30:08Z</time>
      </trkpt>
      <trkpt lat="38.362417" lon="-2.742967">
        <ele>2379.0</ele>
        <time>2015-05-30T14:30:13Z</time>
      </trkpt>
      <trkpt lat="38.361950" lon="-2.742317">
        <ele>2372.0</ele>
        <time>2015-05-30T14:30:18Z</time>
      </trkpt>
      <trkpt lat="38.361700" lon="-2.741467">
        <ele>2375.0</ele>
        <time>2015-05-30T14:30:23Z</time>
      </trkpt>
      <trkpt lat="38.361400" lon="-2.740750">
        <ele>2375.0</ele>
        <time>2015-05-30T14:30:28Z</time>
      </trkpt>
      <trkpt lat="38.360950" lon="-2.740017">
        <ele>2372.0</ele>
        <time>2015-05-30T14:30:33Z</time>
      </trkpt>
      <trkpt lat="38.360567" lon="-2.739233">
        <ele>2366.0</ele>
        <time>2015-05-30T14:30:38Z</time>
      </trkpt>
      <trkpt lat="38.360067" lon="-2.738517">
        <ele>2359.0</ele>
        <time>2015-05-30T14:30:43Z</time>
      </trkpt>
      <trkpt lat="38.359533" lon="-2.737883">
        <ele>2345.0</ele>
        <time>2015-05-30T14:30:48Z</time>
      </trkpt>
      <trkpt lat="38.359050" lon="-2.737167">
        <ele>2326.0</ele>
        <time>2015-05-30T14:30:53Z</time>
      </trkpt>
      <trkpt lat="38.358500" lon="-2.736517">
        <ele>2310.0</ele>
        <time>2015-05-30T14:30:58Z</time>
      </trkpt>
      <trkpt lat="38.357983" lon="-2.735783">
        <ele>2292.0</ele>
        <time>2015-05-30T14:31:03Z</time>
      </trkpt>
      <trkpt lat="38.357567" lon="-2.735033">
        <ele>2277.0</ele>
        <time>2015-05-30T14:31:08Z</time>
      </trkpt>
      <trkpt lat="38.357133" lon="-2.734233">
        <ele>2261.0</ele>
        <time>2015-05-30T14:31:13Z</time>
      </trkpt>
      <trkpt lat="38.356767" lon="-2.733417">
        <ele>2248.0</ele>
        <time>2015-05-30T14:31:18Z</time>
      </trkpt>
      <trkpt lat="38.356450" lon="-2.732500">
        <ele>2237.0</ele>
        <time>2015-05-30T14:31:23Z</time>
      </trkpt>
      <trkpt lat="38.356233" lon="-2.731533">
        <ele>2227.0</ele>
        <time>2015-05-30T14:31:28Z</time>
      </trkpt>
      <trkpt lat="38.355883" lon="-2.730550">
        <ele>2218.0</ele>
        <time>2015-05-30T14:31:33Z</time>
      </trkpt>
      <trkpt lat="38.355483" lon="-2.729683">
        <ele>2209.0</ele>
        <time>2015-05-30T14:31:38Z</time>
      </trkpt>
      <trkpt lat="38.355083" lon="-2.728883">
        <ele>2200.0</ele>
        <time>2015-05-30T14:31:43Z</time>
      </trkpt>
      <trkpt lat="38.354667" lon="-2.728017">
        <ele>2189.0</ele>
        <time>2015-05-30T14:31:48Z</time>
      </trkpt>
      <trkpt lat="38.354217" lon="-2.727200">
        <ele>2173.0</ele>
        <time>2015-05-30T14:31:53Z</time>
      </trkpt>
      <trkpt lat="38.353750" lon="-2.726433">
        <ele>2158.0</ele>
        <time>2015-05-30T14:31:58Z</time>
      </trkpt>
      <trkpt lat="38.353317" lon="-2.725650">
        <ele>2143.0</ele>
        <time>2015-05-30T14:32:03Z</time>
      </trkpt>
      <trkpt lat="38.352850" lon="-2.724883">
        <ele>2129.0</ele>
        <time>2015-05-30T14:32:08Z</time>
      </trkpt>
      <trkpt lat="38.352383" lon="-2.724083">
        <ele>2113.0</ele>
        <time>2015-05-30T14:32:13Z</time>
      </trkpt>
      <trkpt lat="38.351950" lon="-2.723233">
        <ele>2099.0</ele>
        <time>2015-05-30T14:32:18Z</time>
      </trkpt>
      <trkpt lat="38.351517" lon="-2.722350">
        <ele>2088.0</ele>
        <time>2015-05-30T14:32:23Z</time>
      </trkpt>
      <trkpt lat="38.351100" lon="-2.721533">
        <ele>2078.0</ele>
        <time>2015-05-30T14:32:28Z</time>
      </trkpt>
      <trkpt lat="38.350683" lon="-2.720667">
        <ele>2067.0</ele>
        <time>2015-05-30T14:32:33Z</time>
      </trkpt>
      <trkpt lat="38.350250" lon="-2.719800">
        <ele>2057.0</ele>
        <time>2015-05-30T14:32:38Z</time>
      </trkpt>
      <trkpt lat="38.349883" lon="-2.718933">
        <ele>2049.0</ele>
        <time>2015-05-30T14:32:43Z</time>
      </trkpt>
      <trkpt lat="38.349500" lon="-2.718050">
        <ele>2039.0</ele>
        <time>2015-05-30T14:32:48Z</time>
      </trkpt>
      <trkpt lat="38.349117" lon="-2.717150">
        <ele>2029.0</ele>
        <time>2015-05-30T14:32:53Z</time>
      </trkpt>
      <trkpt lat="38.348700" lon="-2.716317">
        <ele>2019.0</ele>
        <time>2015-05-30T14:32:58Z</time>
      </trkpt>
      <trkpt lat="38.348267" lon="-2.715433">
        <ele>2008.0</ele>
        <time>2015-05-30T14:33:03Z</time>
      </trkpt>
      <trkpt lat="38.347850" lon="-2.714517">
        <ele>2002.0</ele>
        <time>2015-05-30T14:33:08Z</time>
      </trkpt>
      <trkpt lat="38.347483" lon="-2.713633">
        <ele>1994.0</ele>
        <time>2015-05-30T14:33:13Z</time>
      </trkpt>
      <trkpt lat="38.347133" lon="-2.712733">
        <ele>1987.0</ele>
        <time>2015-05-30T14:33:18Z</time>
      </trkpt>
      <trkpt lat="38.346767" lon="-2.711883">
        <ele>1980.0</ele>
        <time>2015-05-30T14:33:23Z</time>
      </trkpt>
      <trkpt lat="38.346383" lon="-2.711017">
        <ele>1974.0</ele>
        <time>2015-05-30T14:33:28Z</time>
      </trkpt>
      <trkpt lat="38.346017" lon="-2.710200">
        <ele>1966.0</ele>
        <time>2015-05-30T14:33:33Z</time>
      </trkpt>
      <trkpt lat="38.345600" lon="-2.709433">
        <ele>1958.0</ele>
        <time>2015-05-30T14:33:38Z</time>
      </trkpt>
      <trkpt lat="38.345217" lon="-2.708667">
        <ele>1948.0</ele>
        <time>2015-05-30T14:33:43Z</time>
      </trkpt>
      <trkpt lat="38.344817" lon="-2.707967">
        <ele>1939.0</ele>
        <time>2015-05-30T14:33:48Z</time>
      </trkpt>
      <trkpt lat="38.344417" lon="-2.707283">
        <ele>1930.0</ele>
        <time>2015-05-30T14:33:53Z</time>
      </trkpt>
      <trkpt lat="38.344033" lon="-2.706550">
        <ele>1918.0</ele>
        <time>2015-05-30T14:33:58Z</time>
      </trkpt>
      <trkpt lat="38.343617" lon="-2.705767">
        <ele>1908.0</ele>
        <time>2015-05-30T14:34:03Z</time>
      </trkpt>
      <trkpt lat="38.343183" lon="-2.705033">
        <ele>1900.0</ele>
        <time>2015-05-30T14:34:08Z</time>
      </trkpt>
      <trkpt lat="38.342767" lon="-2.704250">
        <ele>1886.0</ele>
        <time>2015-05-30T14:34:13Z</time>
      </trkpt>
      <trkpt lat="38.342383" lon="-2.703467">
        <ele>1874.0</ele>
        <time>2015-05-30T14:34:18Z</time>
      </trkpt>
      <trkpt lat="38.341983" lon="-2.702733">
        <ele>1861.0</ele>
        <time>2015-05-30T14:34:23Z</time>
      </trkpt>
      <trkpt lat="38.341567" lon="-2.701950">
        <ele>1849.0</ele>
        <time>2015-05-30T14:34:28Z</time>
      </trkpt>
      <trkpt lat="38.341150" lon="-2.701217">
        <ele>1841.0</ele>
        <time>2015-05-30T14:34:33Z</time>
      </trkpt>
      <trkpt lat="38.340733" lon="-2.700600">
        <ele>1841.0</ele>
        <time>2015-05-30T14:34:38Z</time>
      </trkpt>
      <trkpt lat="38.340300" lon="-2.700017">
        <ele>1840.0</ele>
        <time>2015-05-30T14:34:43Z</time>
      </trkpt>
      <trkpt lat="38.339800" lon="-2.699400">
        <ele>1839.0</ele>
        <time>2015-05-30T14:34:48Z</time>
      </trkpt>
      <trkpt lat="38.339267" lon="-2.698933">
        <ele>1837.0</ele>
        <time>2015-05-30T14:34:53Z</time>
      </trkpt>
      <trkpt lat="38.338733" lon="-2.698300">
        <ele>1836.0</ele>
        <time>2015-05-30T14:34:58Z</time>
      </trkpt>
      <trkpt lat="38.338350" lon="-2.697817">
        <ele>1840.0</ele>
        <time>2015-05-30T14:35:03Z</time>
      </trkpt>
      <trkpt lat="38.337867" lon="-2.697550">
        <ele>1839.0</ele>
        <time>2015-05-30T14:35:08Z</time>
      </trkpt>
      <trkpt lat="38.337383" lon="-2.697150">
        <ele>1838.0</ele>
        <time>2015-05-30T14:35:13Z</time>
      </trkpt>
      <trkpt lat="38.336950" lon="-2.696650">
        <ele>1835.0</ele>
        <time>2015-05-30T14:35:18Z</time>
      </trkpt>
      <trkpt lat="38.336517" lon="-2.696067">
        <ele>1829.0</ele>
        <time>2015-05-30T14:35:23Z</time>
      </trkpt>
      <trkpt lat="38.336100" lon="-2.695500">
        <ele>1818.0</ele>
        <time>2015-05-30T14:35:28Z</time>
      </trkpt>
      <trkpt lat="38.335667" lon="-2.694867">
        <ele>1807.0</ele>
        <time>2015-05-30T14:35:33Z</time>
      </trkpt>
      <trkpt lat="38.335200" lon="-2.694283">
        <ele>1800.0</ele>
        <time>2015-05-30T14:35:38Z</time>
      </trkpt>
      <trkpt lat="38.334717" lon="-2.693717">
        <ele>1796.0</ele>
        <time>2015-05-30T14:35:43Z</time>
      </trkpt>
      <trkpt lat="38.334300" lon="-2.693167">
        <ele>1794.0</ele>
        <time>2015-05-30T14:35:48Z</time>
      </trkpt>
      <trkpt lat="38.333883" lon="-2.692717">
        <ele>1793.0</ele>
        <time>2015-05-30T14:35:53Z</time>
      </trkpt>
      <trkpt lat="38.333433" lon="-2.692217">
        <ele>1795.0</ele>
        <time>2015-05-30T14:35:58Z</time>
      </trkpt>
      <trkpt lat="38.333083" lon="-2.691650">
        <ele>1795.0</ele>
        <time>2015-05-30T14:36:03Z</time>
      </trkpt>
      <trkpt lat="38.332717" lon="-2.691033">
        <ele>1792.0</ele>
        <time>2015-05-30T14:36:08Z</time>
      </trkpt>
      <trkpt lat="38.332383" lon="-2.690417">
        <ele>1786.0</ele>
        <time>2015-05-30T14:36:13Z</time>
      </trkpt>
      <trkpt lat="38.332167" lon="-2.689717">
        <ele>1779.0</ele>
        <time>2015-05-30T14:36:18Z</time>
      </trkpt>
      <trkpt lat="38.332017" lon="-2.689083">
        <ele>1778.0</ele>
        <time>2015-05-30T14:36:23Z</time>
      </trkpt>
      <trkpt lat="38.331683" lon="-2.688883">
        <ele>1781.0</ele>
        <time>2015-05-30T14:36:28Z</time>
      </trkpt>
      <trkpt lat="38.331250" lon="-2.688550">
        <ele>1781.0</ele>
        <time>2015-05-30T14:36:33Z</time>
      </trkpt>
      <trkpt lat="38.330917" lon="-2.687983">
        <ele>1785.0</ele>
        <time>2015-05-30T14:36:38Z</time>
      </trkpt>
      <trkpt lat="38.330600" lon="-2.687633">
        <ele>1795.0</ele>
        <time>2015-05-30T14:36:43Z</time>
      </trkpt>
      <trkpt lat="38.330617" lon="-2.686900">
        <ele>1804.0</ele>
        <time>2015-05-30T14:36:48Z</time>
      </trkpt>
      <trkpt lat="38.331083" lon="-2.686700">
        <ele>1813.0</ele>
        <time>2015-05-30T14:36:53Z</time>
      </trkpt>
      <trkpt lat="38.331233" lon="-2.686917">
        <ele>1825.0</ele>
        <time>2015-05-30T14:36:58Z</time>
      </trkpt>
      <trkpt lat="38.330950" lon="-2.687033">
        <ele>1835.0</ele>
        <time>2015-05-30T14:37:03Z</time>
      </trkpt>
      <trkpt lat="38.330617" lon="-2.686633">
        <ele>1845.0</ele>
        <time>2015-05-30T14:37:08Z</time>
      </trkpt>
      <trkpt lat="38.330217" lon="-2.686233">
        <ele>1853.0</ele>
        <time>2015-05-30T14:37:13Z</time>
      </trkpt>
      <trkpt lat="38.329917" lon="-2.686300">
        <ele>1858.0</ele>
        <time>2015-05-30T14:37:18Z</time>
      </trkpt>
      <trkpt lat="38.329933" lon="-2.686550">
        <ele>1857.0</ele>
        <time>2015-05-30T14:37:23Z</time>
      </trkpt>
      <trkpt lat="38.330283" lon="-2.686533">
        <ele>1857.0</ele>
        <time>2015-05-30T14:37:28Z</time>
      </trkpt>
      <trkpt lat="38.330550" lon="-2.685917">
        <ele>1858.0</ele>
        <time>2015-05-30T14:37:33Z</time>
      </trkpt>
      <trkpt lat="38.330733" lon="-2.685300">
        <ele>1863.0</ele>
        <time>2015-05-30T14:37:38Z</time>
      </trkpt>
      <trkpt lat="38.330850" lon="-2.684583">
        <ele>1865.0</ele>
        <time>2015-05-30T14:37:43Z</time>
      </trkpt>
      <trkpt lat="38.330517" lon="-2.684150">
        <ele>1867.0</ele>
        <time>2015-05-30T14:37:48Z</time>
      </trkpt>
      <trkpt lat="38.330200" lon="-2.684250">
        <ele>1868.0</ele>
        <time>2015-05-30T14:37:53Z</time>
      </trkpt>
      <trkpt lat="38.330267" lon="-2.684517">
        <ele>1868.0</ele>
        <time>2015-05-30T14:37:58Z</time>
      </trkpt>
      <trkpt lat="38.330650" lon="-2.684617">
        <ele>1869.0</ele>
        <time>2015-05-30T14:38:03Z</time>
      </trkpt>
      <trkpt lat="38.331117" lon="-2.684450">
        <ele>1869.0</ele>
        <time>2015-05-30T14:38:08Z</time>
      </trkpt>
      <trkpt lat="38.331517" lon="-2.684133">
        <ele>1871.0</ele>
        <time>2015-05-30T14:38:13Z</time>
      </trkpt>
      <trkpt lat="38.331883" lon="-2.683667">
        <ele>1873.0</ele>
        <time>2015-05-30T14:38:18Z</time>
      </trkpt>
      <trkpt lat="38.332150" lon="-2.683050">
        <ele>1873.0</ele>
        <time>2015-05-30T14:38:23Z</time>
      </trkpt>
      <trkpt lat="38.332250" lon="-2.682300">
        <ele>1871.0</ele>
        <time>2015-05-30T14:38:28Z</time>
      </trkpt>
      <trkpt lat="38.332100" lon="-2.681633">
        <ele>1873.0</ele>
        <time>2015-05-30T14:38:33Z</time>
      </trkpt>
      <trkpt lat="38.332117" lon="-2.680833">
        <ele>1876.0</ele>
        <time>2015-05-30T14:38:38Z</time>
      </trkpt>
      <trkpt lat="38.332250" lon="-2.680117">
        <ele>1881.0</ele>
        <time>2015-05-30T14:38:43Z</time>
      </trkpt>
      <trkpt lat="38.332283" lon="-2.679350">
        <ele>1886.0</ele>
        <time>2015-05-30T14:38:48Z</time>
      </trkpt>
      <trkpt lat="38.332000" lon="-2.678650">
        <ele>1893.0</ele>
        <time>2015-05-30T14:38:53Z</time>
      </trkpt>
      <trkpt lat="38.331883" lon="-2.677867">
        <ele>1902.0</ele>
        <time>2015-05-30T14:38:58Z</time>
      </trkpt>
      <trkpt lat="38.332083" lon="-2.677017">
        <ele>1911.0</ele>
        <time>2015-05-30T14:39:03Z</time>
      </trkpt>
      <trkpt lat="38.332617" lon="-2.676917">
        <ele>1919.0</ele>
        <time>2015-05-30T14:39:08Z</time>
      </trkpt>
      <trkpt lat="38.332467" lon="-2.677067">
        <ele>1926.0</ele>
        <time>2015-05-30T14:39:13Z</time>
      </trkpt>
      <trkpt lat="38.332117" lon="-2.676900">
        <ele>1940.0</ele>
        <time>2015-05-30T14:39:18Z</time>
      </trkpt>
      <trkpt lat="38.331733" lon="-2.676450">
        <ele>1950.0</ele>
        <time>2015-05-30T14:39:23Z</time>
      </trkpt>
      <trkpt lat="38.331850" lon="-2.675517">
        <ele>1961.0</ele>
        <time>2015-05-30T14:39:28Z</time>
      </trkpt>
      <trkpt lat="38.332350" lon="-2.675300">
        <ele>1972.0</ele>
        <time>2015-05-30T14:39:33Z</time>
      </trkpt>
      <trkpt lat="38.332283" lon="-2.675633">
        <ele>1987.0</ele>
        <time>2015-05-30T14:39:38Z</time>
      </trkpt>
      <trkpt lat="38.331950" lon="-2.675533">
        <ele>1997.0</ele>
        <time>2015-05-30T14:39:43Z</time>
      </trkpt>
      <trkpt lat="38.331700" lon="-2.674783">
        <ele>2006.0</ele>
        <time>2015-05-30T14:39:48Z</time>
      </trkpt>
      <trkpt lat="38.331900" lon="-2.674100">
        <ele>2011.0</ele>
        <time>2015-05-30T14:39:53Z</time>
      </trkpt>
      <trkpt lat="38.332300" lon="-2.674017">
        <ele>2020.0</ele>
        <time>2015-05-30T14:39:58Z</time>
      </trkpt>
      <trkpt lat="38.332083" lon="-2.674100">
        <ele>2027.0</ele>
        <time>2015-05-30T14:40:03Z</time>
      </trkpt>
      <trkpt lat="38.331800" lon="-2.673533">
        <ele>2036.0</ele>
        <time>2015-05-30T14:40:08Z</time>
      </trkpt>
      <trkpt lat="38.331817" lon="-2.672833">
        <ele>2043.0</ele>
        <time>2015-05-30T14:40:13Z</time>
      </trkpt>
      <trkpt lat="38.332233" lon="-2.671950">
        <ele>2052.0</ele>
        <time>2015-05-30T14:40:18Z</time>
      </trkpt>
      <trkpt lat="38.332717" lon="-2.671800">
        <ele>2058.0</ele>
        <time>2015-05-30T14:40:23Z</time>
      </trkpt>
      <trkpt lat="38.332833" lon="-2.672000">
        <ele>2061.0</ele>
        <time>2015-05-30T14:40:28Z</time>
      </trkpt>
      <trkpt lat="38.332583" lon="-2.672067">
        <ele>2067.0</ele>
        <time>2015-05-30T14:40:33Z</time>
      </trkpt>
      <trkpt lat="38.332267" lon="-2.671983">
        <ele>2078.0</ele>
        <time>2015-05-30T14:40:38Z</time>
      </trkpt>
      <trkpt lat="38.331933" lon="-2.671533">
        <ele>2089.0</ele>
        <time>2015-05-30T14:40:43Z</time>
      </trkpt>
      <trkpt lat="38.331667" lon="-2.670833">
        <ele>2097.0</ele>
        <time>2015-05-30T14:40:48Z</time>
      </trkpt>
      <trkpt lat="38.331433" lon="-2.670317">
        <ele>2102.0</ele>
        <time>2015-05-30T14:40:53Z</time>
      </trkpt>
      <trkpt lat="38.331167" lon="-2.669433">
        <ele>2108.0</ele>
        <time>2015-05-30T14:40:58Z</time>
      </trkpt>
      <trkpt lat="38.331183" lon="-2.668733">
        <ele>2114.0</ele>
        <time>2015-05-30T14:41:03Z</time>
      </trkpt>
      <trkpt lat="38.331450" lon="-2.667900">
        <ele>2124.0</ele>
        <time>2015-05-30T14:41:08Z</time>
      </trkpt>
      <trkpt lat="38.331950" lon="-2.667467">
        <ele>2137.0</ele>
        <time>2015-05-30T14:41:13Z</time>
      </trkpt>
      <trkpt lat="38.332233" lon="-2.667567">
        <ele>2148.0</ele>
        <time>2015-05-30T14:41:18Z</time>
      </trkpt>
      <trkpt lat="38.331967" lon="-2.667517">
        <ele>2155.0</ele>
        <time>2015-05-30T14:41:23Z</time>
      </trkpt>
      <trkpt lat="38.331700" lon="-2.667117">
        <ele>2160.0</ele>
        <time>2015-05-30T14:41:28Z</time>
      </trkpt>
      <trkpt lat="38.331383" lon="-2.666550">
        <ele>2171.0</ele>
        <time>2015-05-30T14:41:33Z</time>
      </trkpt>
      <trkpt lat="38.331117" lon="-2.665883">
        <ele>2184.0</ele>
        <time>2015-05-30T14:41:38Z</time>
      </trkpt>
      <trkpt lat="38.331317" lon="-2.664917">
        <ele>2200.0</ele>
        <time>2015-05-30T14:41:43Z</time>
      </trkpt>
      <trkpt lat="38.331700" lon="-2.664817">
        <ele>2212.0</ele>
        <time>2015-05-30T14:41:48Z</time>
      </trkpt>
      <trkpt lat="38.331733" lon="-2.665117">
        <ele>2227.0</ele>
        <time>2015-05-30T14:41:53Z</time>
      </trkpt>
      <trkpt lat="38.331483" lon="-2.664983">
        <ele>2237.0</ele>
        <time>2015-05-30T14:41:58Z</time>
      </trkpt>
      <trkpt lat="38.331167" lon="-2.664350">
        <ele>2249.0</ele>
        <time>2015-05-30T14:42:03Z</time>
      </trkpt>
      <trkpt lat="38.331317" lon="-2.663567">
        <ele>2263.0</ele>
        <time>2015-05-30T14:42:08Z</time>
      </trkpt>
      <trkpt lat="38.331767" lon="-2.663000">
        <ele>2275.0</ele>
        <time>2015-05-30T14:42:13Z</time>
      </trkpt>
      <trkpt lat="38.332283" lon="-2.663067">
        <ele>2290.0</ele>
        <time>2015-05-30T14:42:18Z</time>
      </trkpt>
      <trkpt lat="38.332233" lon="-2.663300">
        <ele>2301.0</ele>
        <time>2015-05-30T14:42:23Z</time>
      </trkpt>
      <trkpt lat="38.331933" lon="-2.663133">
        <ele>2310.0</ele>
        <time>2015-05-30T14:42:28Z</time>
      </trkpt>
      <trkpt lat="38.331717" lon="-2.662433">
        <ele>2323.0</ele>
        <time>2015-05-30T14:42:33Z</time>
      </trkpt>
      <trkpt lat="38.331900" lon="-2.661600">
        <ele>2335.0</ele>
        <time>2015-05-30T14:42:38Z</time>
      </trkpt>
      <trkpt lat="38.332317" lon="-2.661033">
        <ele>2349.0</ele>
        <time>2015-05-30T14:42:43Z</time>
      </trkpt>
      <trkpt lat="38.332817" lon="-2.661067">
        <ele>2364.0</ele>
        <time>2015-05-30T14:42:48Z</time>
      </trkpt>
      <trkpt lat="38.332833" lon="-2.661267">
        <ele>2373.0</ele>
        <time>2015-05-30T14:42:53Z</time>
      </trkpt>
      <trkpt lat="38.332567" lon="-2.661267">
        <ele>2384.0</ele>
        <time>2015-05-30T14:42:58Z</time>
      </trkpt>
      <trkpt lat="38.332200" lon="-2.660733">
        <ele>2395.0</ele>
        <time>2015-05-30T14:43:03Z</time>
      </trkpt>
      <trkpt lat="38.332183" lon="-2.659867">
        <ele>2406.0</ele>
        <time>2015-05-30T14:43:08Z</time>
      </trkpt>
      <trkpt lat="38.332633" lon="-2.658983">
        <ele>2418.0</ele>
        <time>2015-05-30T14:43:13Z</time>
      </trkpt>
      <trkpt lat="38.333067" lon="-2.658717">
        <ele>2428.0</ele>
        <time>2015-05-30T14:43:18Z</time>
      </trkpt>
      <trkpt lat="38.333500" lon="-2.658833">
        <ele>2437.0</ele>
        <time>2015-05-30T14:43:23Z</time>
      </trkpt>
      <trkpt lat="38.333533" lon="-2.659100">
        <ele>2445.0</ele>
        <time>2015-05-30T14:43:28Z</time>
      </trkpt>
      <trkpt lat="38.333167" lon="-2.658933">
        <ele>2453.0</ele>
        <time>2015-05-30T14:43:33Z</time>
      </trkpt>
      <trkpt lat="38.332900" lon="-2.658183">
        <ele>2464.0</ele>
        <time>2015-05-30T14:43:38Z</time>
      </trkpt>
      <trkpt lat="38.332950" lon="-2.657317">
        <ele>2471.0</ele>
        <time>2015-05-30T14:43:43Z</time>
      </trkpt>
      <trkpt lat="38.333300" lon="-2.656500">
        <ele>2480.0</ele>
        <time>2015-05-30T14:43:48Z</time>
      </trkpt>
      <trkpt lat="38.333850" lon="-2.656150">
        <ele>2489.0</ele>
        <time>2015-05-30T14:43:53Z</time>
      </trkpt>
      <trkpt lat="38.334117" lon="-2.656350">
        <ele>2498.0</ele>
        <time>2015-05-30T14:43:58Z</time>
      </trkpt>
      <trkpt lat="38.333867" lon="-2.656300">
        <ele>2508.0</ele>
        <time>2015-05-30T14:44:03Z</time>
      </trkpt>
      <trkpt lat="38.333617" lon="-2.655700">
        <ele>2522.0</ele>
        <time>2015-05-30T14:44:08Z</time>
      </trkpt>
      <trkpt lat="38.333667" lon="-2.654817">
        <ele>2532.0</ele>
        <time>2015-05-30T14:44:13Z</time>
      </trkpt>
      <trkpt lat="38.334050" lon="-2.654217">
        <ele>2543.0</ele>
        <time>2015-05-30T14:44:18Z</time>
      </trkpt>
      <trkpt lat="38.334500" lon="-2.654200">
        <ele>2552.0</ele>
        <time>2015-05-30T14:44:23Z</time>
      </trkpt>
      <trkpt lat="38.334517" lon="-2.654483">
        <ele>2560.0</ele>
        <time>2015-05-30T14:44:28Z</time>
      </trkpt>
      <trkpt lat="38.334200" lon="-2.654100">
        <ele>2570.0</ele>
        <time>2015-05-30T14:44:33Z</time>
      </trkpt>
      <trkpt lat="38.334250" lon="-2.653367">
        <ele>2577.0</ele>
        <time>2015-05-30T14:44:38Z</time>
      </trkpt>
      <trkpt lat="38.334767" lon="-2.652533">
        <ele>2587.0</ele>
        <time>2015-05-30T14:44:43Z</time>
      </trkpt>
      <trkpt lat="38.335350" lon="-2.652350">
        <ele>2597.0</ele>
        <time>2015-05-30T14:44:48Z</time>
      </trkpt>
      <trkpt lat="38.335500" lon="-2.652550">
        <ele>2606.0</ele>
        <time>2015-05-30T14:44:53Z</time>
      </trkpt>
      <trkpt lat="38.335217" lon="-2.652433">
        <ele>2612.0</ele>
        <time>2015-05-30T14:44:58Z</time>
      </trkpt>
      <trkpt lat="38.334983" lon="-2.651800">
        <ele>2619.0</ele>
        <time>2015-05-30T14:45:03Z</time>
      </trkpt>
      <trkpt lat="38.334967" lon="-2.650967">
        <ele>2629.0</ele>
        <time>2015-05-30T14:45:08Z</time>
      </trkpt>
      <trkpt lat="38.335067" lon="-2.650100">
        <ele>2641.0</ele>
        <time>2015-05-30T14:45:13Z</time>
      </trkpt>
      <trkpt lat="38.335433" lon="-2.649267">
        <ele>2650.0</ele>
        <time>2015-05-30T14:45:18Z</time>
      </trkpt>
      <trkpt lat="38.336017" lon="-2.648967">
        <ele>2659.0</ele>
        <time>2015-05-30T14:45:23Z</time>
      </trkpt>
      <trkpt lat="38.336317" lon="-2.649133">
        <ele>2669.0</ele>
        <time>2015-05-30T14:45:28Z</time>
      </trkpt>
      <trkpt lat="38.336200" lon="-2.649267">
        <ele>2678.0</ele>
        <time>2015-05-30T14:45:33Z</time>
      </trkpt>
      <trkpt lat="38.335950" lon="-2.649150">
        <ele>2688.0</ele>
        <time>2015-05-30T14:45:38Z</time>
      </trkpt>
      <trkpt lat="38.335633" lon="-2.648783">
        <ele>2697.0</ele>
        <time>2015-05-30T14:45:43Z</time>
      </trkpt>
      <trkpt lat="38.335367" lon="-2.648183">
        <ele>2706.0</ele>
        <time>2015-05-30T14:45:48Z</time>
      </trkpt>
      <trkpt lat="38.335217" lon="-2.647500">
        <ele>2715.0</ele>
        <time>2015-05-30T14:45:53Z</time>
      </trkpt>
      <trkpt lat="38.335200" lon="-2.646683">
        <ele>2722.0</ele>
        <time>2015-05-30T14:45:58Z</time>
      </trkpt>
      <trkpt lat="38.335367" lon="-2.645817">
        <ele>2727.0</ele>
        <time>2015-05-30T14:46:03Z</time>
      </trkpt>
      <trkpt lat="38.335883" lon="-2.645017">
        <ele>2727.0</ele>
        <time>2015-05-30T14:46:08Z</time>
      </trkpt>
      <trkpt lat="38.336483" lon="-2.644700">
        <ele>2729.0</ele>
        <time>2015-05-30T14:46:13Z</time>
      </trkpt>
      <trkpt lat="38.337033" lon="-2.644250">
        <ele>2732.0</ele>
        <time>2015-05-30T14:46:18Z</time>
      </trkpt>
      <trkpt lat="38.337333" lon="-2.643300">
        <ele>2733.0</ele>
        <time>2015-05-30T14:46:23Z</time>
      </trkpt>
      <trkpt lat="38.337150" lon="-2.642533">
        <ele>2734.0</ele>
        <time>2015-05-30T14:46:28Z</time>
      </trkpt>
      <trkpt lat="38.336900" lon="-2.641883">
        <ele>2737.0</ele>
        <time>2015-05-30T14:46:33Z</time>
      </trkpt>
      <trkpt lat="38.336750" lon="-2.640983">
        <ele>2742.0</ele>
        <time>2015-05-30T14:46:38Z</time>
      </trkpt>
      <trkpt lat="38.336800" lon="-2.640033">
        <ele>2751.0</ele>
        <time>2015-05-30T14:46:43Z</time>
      </trkpt>
      <trkpt lat="38.336967" lon="-2.639117">
        <ele>2755.0</ele>
        <time>2015-05-30T14:46:48Z</time>
      </trkpt>
      <trkpt lat="38.337500" lon="-2.638767">
        <ele>2758.0</ele>
        <time>2015-05-30T14:46:53Z</time>
      </trkpt>
      <trkpt lat="38.337717" lon="-2.638950">
        <ele>2761.0</ele>
        <time>2015-05-30T14:46:58Z</time>
      </trkpt>
      <trkpt lat="38.337717" lon="-2.639133">
        <ele>2761.0</ele>
        <time>2015-05-30T14:47:03Z</time>
      </trkpt>
      <trkpt lat="38.337700" lon="-2.639300">
        <ele>2766.0</ele>
        <time>2015-05-30T14:47:08Z</time>
      </trkpt>
      <trkpt lat="38.337617" lon="-2.639467">
        <ele>2768.0</ele>
        <time>2015-05-30T14:47:13Z</time>
      </trkpt>
      <trkpt lat="38.337533" lon="-2.639617">
        <ele>2768.0</ele>
        <time>2015-05-30T14:47:18Z</time>
      </trkpt>
      <trkpt lat="38.337433" lon="-2.639817">
        <ele>2769.0</ele>
        <time>2015-05-30T14:47:23Z</time>
      </trkpt>
      <trkpt lat="38.337350" lon="-2.640000">
        <ele>2771.0</ele>
        <time>2015-05-30T14:47:28Z</time>
      </trkpt>
      <trkpt lat="38.337250" lon="-2.640067">
        <ele>2773.0</ele>
        <time>2015-05-30T14:47:33Z</time>
      </trkpt>
      <trkpt lat="38.337083" lon="-2.640167">
        <ele>2776.0</ele>
        <time>2015-05-30T14:47:38Z</time>
      </trkpt>
      <trkpt lat="38.336900" lon="-2.640350">
        <ele>2773.0</ele>
        <time>2015-05-30T14:47:43Z</time>
      </trkpt>
      <trkpt lat="38.336700" lon="-2.640467">
        <ele>2771.0</ele>
        <time>2015-05-30T14:47:48Z</time>
      </trkpt>
      <trkpt lat="38.336367" lon="-2.640533">
        <ele>2766.0</ele>
        <time>2015-05-30T14:47:53Z</time>
      </trkpt>
      <trkpt lat="38.336100" lon="-2.640667">
        <ele>2760.0</ele>
        <time>2015-05-30T14:47:58Z</time>
      </trkpt>
      <trkpt lat="38.335917" lon="-2.640850">
        <ele>2755.0</ele>
        <time>2015-05-30T14:48:03Z</time>
      </trkpt>
      <trkpt lat="38.335767" lon="-2.641050">
        <ele>2751.0</ele>
        <time>2015-05-30T14:48:08Z</time>
      </trkpt>
      <trkpt lat="38.335567" lon="-2.641217">
        <ele>2749.0</ele>
        <time>2015-05-30T14:48:13Z</time>
      </trkpt>
      <trkpt lat="38.335350" lon="-2.641383">
        <ele>2747.0</ele>
        <time>2015-05-30T14:48:18Z</time>
      </trkpt>
      <trkpt lat="38.335183" lon="-2.641467">
        <ele>2743.0</ele>
        <time>2015-05-30T14:48:23Z</time>
      </trkpt>
      <trkpt lat="38.334883" lon="-2.641550">
        <ele>2735.0</ele>
        <time>2015-05-30T14:48:28Z</time>
      </trkpt>
      <trkpt lat="38.334550" lon="-2.641683">
        <ele>2732.0</ele>
        <time>2015-05-30T14:48:33Z</time>
      </trkpt>
      <trkpt lat="38.334250" lon="-2.641750">
        <ele>2734.0</ele>
        <time>2015-05-30T14:48:38Z</time>
      </trkpt>
      <trkpt lat="38.333933" lon="-2.641950">
        <ele>2734.0</ele>
        <time>2015-05-30T14:48:43Z</time>
      </trkpt>
      <trkpt lat="38.333667" lon="-2.642167">
        <ele>2732.0</ele>
        <time>2015-05-30T14:48:48Z</time>
      </trkpt>
      <trkpt lat="38.333317" lon="-2.642400">
        <ele>2725.0</ele>
        <time>2015-05-30T14:48:53Z</time>
      </trkpt>
      <trkpt lat="38.332917" lon="-2.642633">
        <ele>2718.0</ele>
        <time>2015-05-30T14:48:58Z</time>
      </trkpt>
      <trkpt lat="38.332567" lon="-2.642867">
        <ele>2708.0</ele>
        <time>2015-05-30T14:49:03Z</time>
      </trkpt>
      <trkpt lat="38.332200" lon="-2.643100">
        <ele>2696.0</ele>
        <time>2015-05-30T14:49:08Z</time>
      </trkpt>
      <trkpt lat="38.331833" lon="-2.643367">
        <ele>2681.0</ele>
        <time>2015-05-30T14:49:13Z</time>
      </trkpt>
      <trkpt lat="38.331517" lon="-2.643667">
        <ele>2667.0</ele>
        <time>2015-05-30T14:49:18Z</time>
      </trkpt>
      <trkpt lat="38.331167" lon="-2.643950">
        <ele>2656.0</ele>
        <time>2015-05-30T14:49:23Z</time>
      </trkpt>
      <trkpt lat="38.330867" lon="-2.644183">
        <ele>2645.0</ele>
        <time>2015-05-30T14:49:28Z</time>
      </trkpt>
      <trkpt lat="38.330500" lon="-2.644383">
        <ele>2632.0</ele>
        <time>2015-05-30T14:49:33Z</time>
      </trkpt>
      <trkpt lat="38.330150" lon="-2.644567">
        <ele>2620.0</ele>
        <time>2015-05-30T14:49:38Z</time>
      </trkpt>
      <trkpt lat="38.329867" lon="-2.644800">
        <ele>2609.0</ele>
        <time>2015-05-30T14:49:43Z</time>
      </trkpt>
      <trkpt lat="38.329550" lon="-2.645017">
        <ele>2598.0</ele>
        <time>2015-05-30T14:49:48Z</time>
      </trkpt>
      <trkpt lat="38.329200" lon="-2.645167">
        <ele>2587.0</ele>
        <time>2015-05-30T14:49:53Z</time>
      </trkpt>
      <trkpt lat="38.328850" lon="-2.645283">
        <ele>2576.0</ele>
        <time>2015-05-30T14:49:58Z</time>
      </trkpt>
      <trkpt lat="38.328483" lon="-2.645367">
        <ele>2564.0</ele>
        <time>2015-05-30T14:50:03Z</time>
      </trkpt>
      <trkpt lat="38.328100" lon="-2.645450">
        <ele>2552.0</ele>
        <time>2015-05-30T14:50:08Z</time>
      </trkpt>
      <trkpt lat="38.327683" lon="-2.645500">
        <ele>2540.0</ele>
        <time>2015-05-30T14:50:13Z</time>
      </trkpt>
      <trkpt lat="38.327300" lon="-2.645533">
        <ele>2528.0</ele>
        <time>2015-05-30T14:50:18Z</time>
      </trkpt>
      <trkpt lat="38.326900" lon="-2.645633">
        <ele>2515.0</ele>
        <time>2015-05-30T14:50:23Z</time>
      </trkpt>
      <trkpt lat="38.326517" lon="-2.645717">
        <ele>2503.0</ele>
        <time>2015-05-30T14:50:28Z</time>
      </trkpt>
      <trkpt lat="38.326167" lon="-2.645717">
        <ele>2495.0</ele>
        <time>2015-05-30T14:50:33Z</time>
      </trkpt>
      <trkpt lat="38.325767" lon="-2.645717">
        <ele>2485.0</ele>
        <time>2015-05-30T14:50:38Z</time>
      </trkpt>
      <trkpt lat="38.325450" lon="-2.645683">
        <ele>2477.0</ele>
        <time>2015-05-30T14:50:43Z</time>
      </trkpt>
      <trkpt lat="38.325150" lon="-2.645683">
        <ele>2472.0</ele>
        <time>2015-05-30T14:50:48Z</time>
      </trkpt>
      <trkpt lat="38.324967" lon="-2.645750">
        <ele>2469.0</ele>
        <time>2015-05-30T14:50:53Z</time>
      </trkpt>
      <trkpt lat="38.324700" lon="-2.645917">
        <ele>2466.0</ele>
        <time>2015-05-30T14:50:58Z</time>
      </trkpt>
      <trkpt lat="38.324383" lon="-2.646017">
        <ele>2460.0</ele>
        <time>2015-05-30T14:51:03Z</time>
      </trkpt>
      <trkpt lat="38.324083" lon="-2.645983">
        <ele>2455.0</ele>
        <time>2015-05-30T14:51:08Z</time>
      </trkpt>
      <trkpt lat="38.323883" lon="-2.646033">
        <ele>2453.0</ele>
        <time>2015-05-30T14:51:13Z</time>
      </trkpt>
      <trkpt lat="38.323750" lon="-2.646267">
        <ele>2454.0</ele>
        <time>2015-05-30T14:51:18Z</time>
      </trkpt>
      <trkpt lat="38.323567" lon="-2.646483">
        <ele>2456.0</ele>
        <time>2015-05-30T14:51:23Z</time>
      </trkpt>
      <trkpt lat="38.323400" lon="-2.646600">
        <ele>2461.0</ele>
        <time>2015-05-30T14:51:28Z</time>
      </trkpt>
      <trkpt lat="38.323333" lon="-2.646950">
        <ele>2465.0</ele>
        <time>2015-05-30T14:51:33Z</time>
      </trkpt>
      <trkpt lat="38.323150" lon="-2.647050">
        <ele>2470.0</ele>
        <time>2015-05-30T14:51:38Z</time>
      </trkpt>
      <trkpt lat="38.322950" lon="-2.647100">
        <ele>2474.0</ele>
        <time>2015-05-30T14:51:43Z</time>
      </trkpt>
      <trkpt lat="38.322733" lon="-2.647350">
        <ele>2475.0</ele>
        <time>2015-05-30T14:51:48Z</time>
      </trkpt>
      <trkpt lat="38.322567" lon="-2.647567">
        <ele>2475.0</ele>
        <time>2015-05-30T14:51:53Z</time>
      </trkpt>
      <trkpt lat="38.322367" lon="-2.647783">
        <ele>2474.0</ele>
        <time>2015-05-30T14:51:58Z</time>
      </trkpt>
      <trkpt lat="38.322150" lon="-2.648000">
        <ele>2470.0</ele>
        <time>2015-05-30T14:52:03Z</time>
      </trkpt>
      <trkpt lat="38.321933" lon="-2.648217">
        <ele>2462.0</ele>
        <time>2015-05-30T14:52:08Z</time>
      </trkpt>
      <trkpt lat="38.321683" lon="-2.648450">
        <ele>2450.0</ele>
        <time>2015-05-30T14:52:13Z</time>
      </trkpt>
      <trkpt lat="38.321483" lon="-2.648700">
        <ele>2436.0</ele>
        <time>2015-05-30T14:52:18Z</time>
      </trkpt>
      <trkpt lat="38.321317" lon="-2.649000">
        <ele>2422.0</ele>
        <time>2015-05-30T14:52:23Z</time>
      </trkpt>
      <trkpt lat="38.321150" lon="-2.649333">
        <ele>2409.0</ele>
        <time>2015-05-30T14:52:28Z</time>
      </trkpt>
      <trkpt lat="38.320950" lon="-2.649567">
        <ele>2400.0</ele>
        <time>2015-05-30T14:52:33Z</time>
      </trkpt>
      <trkpt lat="38.320717" lon="-2.649767">
        <ele>2389.0</ele>
        <time>2015-05-30T14:52:38Z</time>
      </trkpt>
      <trkpt lat="38.320450" lon="-2.649950">
        <ele>2379.0</ele>
        <time>2015-05-30T14:52:43Z</time>
      </trkpt>
      <trkpt lat="38.320200" lon="-2.650133">
        <ele>2368.0</ele>
        <time>2015-05-30T14:52:48Z</time>
      </trkpt>
      <trkpt lat="38.319967" lon="-2.650367">
        <ele>2357.0</ele>
        <time>2015-05-30T14:52:53Z</time>
      </trkpt>
      <trkpt lat="38.319717" lon="-2.650600">
        <ele>2348.0</ele>
        <time>2015-05-30T14:52:58Z</time>
      </trkpt>
      <trkpt lat="38.319433" lon="-2.650817">
        <ele>2337.0</ele>
        <time>2015-05-30T14:53:03Z</time>
      </trkpt>
      <trkpt lat="38.319133" lon="-2.651000">
        <ele>2328.0</ele>
        <time>2015-05-30T14:53:08Z</time>
      </trkpt>
      <trkpt lat="38.318800" lon="-2.651200">
        <ele>2321.0</ele>
        <time>2015-05-30T14:53:13Z</time>
      </trkpt>
      <trkpt lat="38.318417" lon="-2.651367">
        <ele>2313.0</ele>
        <time>2015-05-30T14:53:18Z</time>
      </trkpt>
      <trkpt lat="38.318033" lon="-2.651483">
        <ele>2306.0</ele>
        <time>2015-05-30T14:53:23Z</time>
      </trkpt>
      <trkpt lat="38.317583" lon="-2.651567">
        <ele>2296.0</ele>
        <time>2015-05-30T14:53:28Z</time>
      </trkpt>
      <trkpt lat="38.317133" lon="-2.651667">
        <ele>2288.0</ele>
        <time>2015-05-30T14:53:33Z</time>
      </trkpt>
      <trkpt lat="38.316683" lon="-2.651683">
        <ele>2281.0</ele>
        <time>2015-05-30T14:53:38Z</time>
      </trkpt>
      <trkpt lat="38.316300" lon="-2.651800">
        <ele>2276.0</ele>
        <time>2015-05-30T14:53:43Z</time>
      </trkpt>
      <trkpt lat="38.316000" lon="-2.652000">
        <ele>2270.0</ele>
        <time>2015-05-30T14:53:48Z</time>
      </trkpt>
      <trkpt lat="38.315633" lon="-2.652217">
        <ele>2260.0</ele>
        <time>2015-05-30T14:53:53Z</time>
      </trkpt>
      <trkpt lat="38.315250" lon="-2.652400">
        <ele>2253.0</ele>
        <time>2015-05-30T14:53:58Z</time>
      </trkpt>
      <trkpt lat="38.314900" lon="-2.652583">
        <ele>2248.0</ele>
        <time>2015-05-30T14:54:03Z</time>
      </trkpt>
      <trkpt lat="38.314583" lon="-2.652867">
        <ele>2243.0</ele>
        <time>2015-05-30T14:54:08Z</time>
      </trkpt>
      <trkpt lat="38.314267" lon="-2.653100">
        <ele>2239.0</ele>
        <time>2015-05-30T14:54:13Z</time>
      </trkpt>
      <trkpt lat="38.313833" lon="-2.653283">
        <ele>2233.0</ele>
        <time>2015-05-30T14:54:18Z</time>
      </trkpt>
      <trkpt lat="38.313450" lon="-2.653417">
        <ele>2229.0</ele>
        <time>2015-05-30T14:54:23Z</time>
      </trkpt>
      <trkpt lat="38.313033" lon="-2.653583">
        <ele>2224.0</ele>
        <time>2015-05-30T14:54:28Z</time>
      </trkpt>
      <trkpt lat="38.312633" lon="-2.653733">
        <ele>2219.0</ele>
        <time>2015-05-30T14:54:33Z</time>
      </trkpt>
      <trkpt lat="38.312267" lon="-2.653867">
        <ele>2211.0</ele>
        <time>2015-05-30T14:54:38Z</time>
      </trkpt>
      <trkpt lat="38.311867" lon="-2.654017">
        <ele>2204.0</ele>
        <time>2015-05-30T14:54:43Z</time>
      </trkpt>
      <trkpt lat="38.311567" lon="-2.654133">
        <ele>2204.0</ele>
        <time>2015-05-30T14:54:48Z</time>
      </trkpt>
      <trkpt lat="38.311267" lon="-2.654283">
        <ele>2210.0</ele>
        <time>2015-05-30T14:54:53Z</time>
      </trkpt>
      <trkpt lat="38.310967" lon="-2.654467">
        <ele>2221.0</ele>
        <time>2015-05-30T14:54:58Z</time>
      </trkpt>
      <trkpt lat="38.310767" lon="-2.654650">
        <ele>2233.0</ele>
        <time>2015-05-30T14:55:03Z</time>
      </trkpt>
      <trkpt lat="38.310633" lon="-2.654917">
        <ele>2247.0</ele>
        <time>2015-05-30T14:55:08Z</time>
      </trkpt>
      <trkpt lat="38.310500" lon="-2.655200">
        <ele>2261.0</ele>
        <time>2015-05-30T14:55:13Z</time>
      </trkpt>
      <trkpt lat="38.310350" lon="-2.655483">
        <ele>2277.0</ele>
        <time>2015-05-30T14:55:18Z</time>
      </trkpt>
      <trkpt lat="38.310167" lon="-2.655783">
        <ele>2288.0</ele>
        <time>2015-05-30T14:55:23Z</time>
      </trkpt>
      <trkpt lat="38.309967" lon="-2.656067">
        <ele>2295.0</ele>
        <time>2015-05-30T14:55:28Z</time>
      </trkpt>
      <trkpt lat="38.309767" lon="-2.656417">
        <ele>2295.0</ele>
        <time>2015-05-30T14:55:33Z</time>
      </trkpt>
      <trkpt lat="38.309583" lon="-2.656750">
        <ele>2292.0</ele>
        <time>2015-05-30T14:55:38Z</time>
      </trkpt>
      <trkpt lat="38.309450" lon="-2.657100">
        <ele>2290.0</ele>
        <time>2015-05-30T14:55:43Z</time>
      </trkpt>
      <trkpt lat="38.309400" lon="-2.657433">
        <ele>2292.0</ele>
        <time>2015-05-30T14:55:48Z</time>
      </trkpt>
      <trkpt lat="38.309333" lon="-2.657633">
        <ele>2293.0</ele>
        <time>2015-05-30T14:55:53Z</time>
      </trkpt>
      <trkpt lat="38.309233" lon="-2.657933">
        <ele>2296.0</ele>
        <time>2015-05-30T14:55:58Z</time>
      </trkpt>
      <trkpt lat="38.309117" lon="-2.658167">
        <ele>2301.0</ele>
        <time>2015-05-30T14:56:03Z</time>
      </trkpt>
      <trkpt lat="38.308967" lon="-2.658433">
        <ele>2305.0</ele>
        <time>2015-05-30T14:56:08Z</time>
      </trkpt>
      <trkpt lat="38.308817" lon="-2.658733">
        <ele>2306.0</ele>
        <time>2015-05-30T14:56:13Z</time>
      </trkpt>
      <trkpt lat="38.308783" lon="-2.659050">
        <ele>2307.0</ele>
        <time>2015-05-30T14:56:18Z</time>
      </trkpt>
      <trkpt lat="38.308917" lon="-2.659250">
        <ele>2312.0</ele>
        <time>2015-05-30T14:56:23Z</time>
      </trkpt>
      <trkpt lat="38.308850" lon="-2.659433">
        <ele>2318.0</ele>
        <time>2015-05-30T14:56:28Z</time>
      </trkpt>
      <trkpt lat="38.308650" lon="-2.659467">
        <ele>2325.0</ele>
        <time>2015-05-30T14:56:33Z</time>
      </trkpt>
      <trkpt lat="38.308850" lon="-2.659667">
        <ele>2331.0</ele>
        <time>2015-05-30T14:56:38Z</time>
      </trkpt>
      <trkpt lat="38.309250" lon="-2.659733">
        <ele>2343.0</ele>
        <time>2015-05-30T14:56:43Z</time>
      </trkpt>
      <trkpt lat="38.309467" lon="-2.659950">
        <ele>2357.0</ele>
        <time>2015-05-30T14:56:48Z</time>
      </trkpt>
      <trkpt lat="38.309250" lon="-2.659967">
        <ele>2373.0</ele>
        <time>2015-05-30T14:56:53Z</time>
      </trkpt>
      <trkpt lat="38.308983" lon="-2.660150">
        <ele>2383.0</ele>
        <time>2015-05-30T14:56:58Z</time>
      </trkpt>
      <trkpt lat="38.308833" lon="-2.660400">
        <ele>2389.0</ele>
        <time>2015-05-30T14:57:03Z</time>
      </trkpt>
      <trkpt lat="38.308783" lon="-2.660700">
        <ele>2397.0</ele>
        <time>2015-05-30T14:57:08Z</time>
      </trkpt>
      <trkpt lat="38.308500" lon="-2.660800">
        <ele>2409.0</ele>
        <time>2015-05-30T14:57:13Z</time>
      </trkpt>
      <trkpt lat="38.308200" lon="-2.660917">
        <ele>2418.0</ele>
        <time>2015-05-30T14:57:18Z</time>
      </trkpt>
      <trkpt lat="38.307867" lon="-2.661067">
        <ele>2422.0</ele>
        <time>2015-05-30T14:57:23Z</time>
      </trkpt>
      <trkpt lat="38.307533" lon="-2.661267">
        <ele>2422.0</ele>
        <time>2015-05-30T14:57:28Z</time>
      </trkpt>
      <trkpt lat="38.307183" lon="-2.661450">
        <ele>2422.0</ele>
        <time>2015-05-30T14:57:33Z</time>
      </trkpt>
      <trkpt lat="38.306850" lon="-2.661583">
        <ele>2420.0</ele>
        <time>2015-05-30T14:57:38Z</time>
      </trkpt>
      <trkpt lat="38.306483" lon="-2.661750">
        <ele>2412.0</ele>
        <time>2015-05-30T14:57:43Z</time>
      </trkpt>
      <trkpt lat="38.306133" lon="-2.661917">
        <ele>2406.0</ele>
        <time>2015-05-30T14:57:48Z</time>
      </trkpt>
      <trkpt lat="38.305700" lon="-2.661950">
        <ele>2402.0</ele>
        <time>2015-05-30T14:57:53Z</time>
      </trkpt>
      <trkpt lat="38.305300" lon="-2.661917">
        <ele>2403.0</ele>
        <time>2015-05-30T14:57:58Z</time>
      </trkpt>
      <trkpt lat="38.304933" lon="-2.662017">
        <ele>2409.0</ele>
        <time>2015-05-30T14:58:03Z</time>
      </trkpt>
      <trkpt lat="38.304800" lon="-2.662267">
        <ele>2417.0</ele>
        <time>2015-05-30T14:58:08Z</time>
      </trkpt>
      <trkpt lat="38.304950" lon="-2.662500">
        <ele>2427.0</ele>
        <time>2015-05-30T14:58:13Z</time>
      </trkpt>
      <trkpt lat="38.305100" lon="-2.662667">
        <ele>2437.0</ele>
        <time>2015-05-30T14:58:18Z</time>
      </trkpt>
      <trkpt lat="38.304983" lon="-2.662767">
        <ele>2446.0</ele>
        <time>2015-05-30T14:58:23Z</time>
      </trkpt>
      <trkpt lat="38.304700" lon="-2.662800">
        <ele>2452.0</ele>
        <time>2015-05-30T14:58:28Z</time>
      </trkpt>
      <trkpt lat="38.304367" lon="-2.662750">
        <ele>2460.0</ele>
        <time>2015-05-30T14:58:33Z</time>
      </trkpt>
      <trkpt lat="38.304000" lon="-2.662667">
        <ele>2468.0</ele>
        <time>2015-05-30T14:58:38Z</time>
      </trkpt>
      <trkpt lat="38.303583" lon="-2.662583">
        <ele>2474.0</ele>
        <time>2015-05-30T14:58:43Z</time>
      </trkpt>
      <trkpt lat="38.303217" lon="-2.662500">
        <ele>2476.0</ele>
        <time>2015-05-30T14:58:48Z</time>
      </trkpt>
      <trkpt lat="38.302817" lon="-2.662467">
        <ele>2472.0</ele>
        <time>2015-05-30T14:58:53Z</time>
      </trkpt>
      <trkpt lat="38.302550" lon="-2.662633">
        <ele>2469.0</ele>
        <time>2015-05-30T14:58:58Z</time>
      </trkpt>
      <trkpt lat="38.302367" lon="-2.662867">
        <ele>2466.0</ele>
        <time>2015-05-30T14:59:03Z</time>
      </trkpt>
      <trkpt lat="38.302250" lon="-2.663133">
        <ele>2460.0</ele>
        <time>2015-05-30T14:59:08Z</time>
      </trkpt>
      <trkpt lat="38.302067" lon="-2.663483">
        <ele>2450.0</ele>
        <time>2015-05-30T14:59:13Z</time>
      </trkpt>
      <trkpt lat="38.301850" lon="-2.663767">
        <ele>2442.0</ele>
        <time>2015-05-30T14:59:18Z</time>
      </trkpt>
      <trkpt lat="38.301633" lon="-2.663883">
        <ele>2435.0</ele>
        <time>2015-05-30T14:59:23Z</time>
      </trkpt>
      <trkpt lat="38.301400" lon="-2.664083">
        <ele>2428.0</ele>
        <time>2015-05-30T14:59:28Z</time>
      </trkpt>
      <trkpt lat="38.301217" lon="-2.664383">
        <ele>2421.0</ele>
        <time>2015-05-30T14:59:33Z</time>
      </trkpt>
      <trkpt lat="38.301117" lon="-2.664633">
        <ele>2416.0</ele>
        <time>2015-05-30T14:59:38Z</time>
      </trkpt>
      <trkpt lat="38.300967" lon="-2.664950">
        <ele>2409.0</ele>
        <time>2015-05-30T14:59:43Z</time>
      </trkpt>
      <trkpt lat="38.300817" lon="-2.665250">
        <ele>2399.0</ele>
        <time>2015-05-30T14:59:48Z</time>
      </trkpt>
      <trkpt lat="38.300617" lon="-2.665533">
        <ele>2388.0</ele>
        <time>2015-05-30T14:59:53Z</time>
      </trkpt>
      <trkpt lat="38.300367" lon="-2.665867">
        <ele>2375.0</ele>
        <time>2015-05-30T14:59:58Z</time>
      </trkpt>
      <trkpt lat="38.300067" lon="-2.666150">
        <ele>2363.0</ele>
        <time>2015-05-30T15:00:03Z</time>
      </trkpt>
      <trkpt lat="38.299667" lon="-2.666417">
        <ele>2351.0</ele>
        <time>2015-05-30T15:00:08Z</time>
      </trkpt>
      <trkpt lat="38.299283" lon="-2.666500">
        <ele>2345.0</ele>
        <time>2015-05-30T15:00:13Z</time>
      </trkpt>
      <trkpt lat="38.298817" lon="-2.666683">
        <ele>2336.0</ele>
        <time>2015-05-30T15:00:18Z</time>
      </trkpt>
      <trkpt lat="38.298367" lon="-2.666850">
        <ele>2327.0</ele>
        <time>2015-05-30T15:00:23Z</time>
      </trkpt>
      <trkpt lat="38.297933" lon="-2.667017">
        <ele>2317.0</ele>
        <time>2015-05-30T15:00:28Z</time>
      </trkpt>
      <trkpt lat="38.297533" lon="-2.667083">
        <ele>2311.0</ele>
        <time>2015-05-30T15:00:33Z</time>
      </trkpt>
      <trkpt lat="38.297233" lon="-2.667250">
        <ele>2303.0</ele>
        <time>2015-05-30T15:00:38Z</time>
      </trkpt>
      <trkpt lat="38.296950" lon="-2.667333">
        <ele>2296.0</ele>
        <time>2015-05-30T15:00:43Z</time>
      </trkpt>
      <trkpt lat="38.296717" lon="-2.667300">
        <ele>2294.0</ele>
        <time>2015-05-30T15:00:48Z</time>
      </trkpt>
      <trkpt lat="38.296400" lon="-2.667283">
        <ele>2298.0</ele>
        <time>2015-05-30T15:00:53Z</time>
      </trkpt>
      <trkpt lat="38.296117" lon="-2.667283">
        <ele>2306.0</ele>
        <time>2015-05-30T15:00:58Z</time>
      </trkpt>
      <trkpt lat="38.295900" lon="-2.667400">
        <ele>2313.0</ele>
        <time>2015-05-30T15:01:03Z</time>
      </trkpt>
      <trkpt lat="38.295717" lon="-2.667467">
        <ele>2319.0</ele>
        <time>2015-05-30T15:01:08Z</time>
      </trkpt>
      <trkpt lat="38.295467" lon="-2.667500">
        <ele>2324.0</ele>
        <time>2015-05-30T15:01:13Z</time>
      </trkpt>
      <trkpt lat="38.295183" lon="-2.667567">
        <ele>2324.0</ele>
        <time>2015-05-30T15:01:18Z</time>
      </trkpt>
      <trkpt lat="38.294883" lon="-2.667683">
        <ele>2320.0</ele>
        <time>2015-05-30T15:01:23Z</time>
      </trkpt>
      <trkpt lat="38.294583" lon="-2.667750">
        <ele>2316.0</ele>
        <time>2015-05-30T15:01:28Z</time>
      </trkpt>
      <trkpt lat="38.294283" lon="-2.667850">
        <ele>2313.0</ele>
        <time>2015-05-30T15:01:33Z</time>
      </trkpt>
      <trkpt lat="38.294083" lon="-2.667967">
        <ele>2314.0</ele>
        <time>2015-05-30T15:01:38Z</time>
      </trkpt>
      <trkpt lat="38.293783" lon="-2.668100">
        <ele>2319.0</ele>
        <time>2015-05-30T15:01:43Z</time>
      </trkpt>
      <trkpt lat="38.293483" lon="-2.668117">
        <ele>2326.0</ele>
        <time>2015-05-30T15:01:48Z</time>
      </trkpt>
      <trkpt lat="38.293217" lon="-2.668250">
        <ele>2331.0</ele>
        <time>2015-05-30T15:01:53Z</time>
      </trkpt>
      <trkpt lat="38.293000" lon="-2.668400">
        <ele>2334.0</ele>
        <time>2015-05-30T15:01:58Z</time>
      </trkpt>
      <trkpt lat="38.292800" lon="-2.668483">
        <ele>2338.0</ele>
        <time>2015-05-30T15:02:03Z</time>
      </trkpt>
      <trkpt lat="38.292567" lon="-2.668483">
        <ele>2341.0</ele>
        <time>2015-05-30T15:02:08Z</time>
      </trkpt>
      <trkpt lat="38.292333" lon="-2.668533">
        <ele>2344.0</ele>
        <time>2015-05-30T15:02:13Z</time>
      </trkpt>
      <trkpt lat="38.292067" lon="-2.668600">
        <ele>2346.0</ele>
        <time>2015-05-30T15:02:18Z</time>
      </trkpt>
      <trkpt lat="38.291850" lon="-2.668683">
        <ele>2348.0</ele>
        <time>2015-05-30T15:02:23Z</time>
      </trkpt>
      <trkpt lat="38.291633" lon="-2.668800">
        <ele>2347.0</ele>
        <time>2015-05-30T15:02:28Z</time>
      </trkpt>
      <trkpt lat="38.291383" lon="-2.668867">
        <ele>2349.0</ele>
        <time>2015-05-30T15:02:33Z</time>
      </trkpt>
      <trkpt lat="38.291117" lon="-2.668950">
        <ele>2352.0</ele>
        <time>2015-05-30T15:02:38Z</time>
      </trkpt>
      <trkpt lat="38.290833" lon="-2.669100">
        <ele>2354.0</ele>
        <time>2015-05-30T15:02:43Z</time>
      </trkpt>
      <trkpt lat="38.290517" lon="-2.669250">
        <ele>2353.0</ele>
        <time>2015-05-30T15:02:48Z</time>
      </trkpt>
      <trkpt lat="38.290183" lon="-2.669283">
        <ele>2353.0</ele>
        <time>2015-05-30T15:02:53Z</time>
      </trkpt>
      <trkpt lat="38.289917" lon="-2.669383">
        <ele>2352.0</ele>
        <time>2015-05-30T15:02:58Z</time>
      </trkpt>
      <trkpt lat="38.289683" lon="-2.669533">
        <ele>2349.0</ele>
        <time>2015-05-30T15:03:03Z</time>
      </trkpt>
      <trkpt lat="38.289400" lon="-2.669617">
        <ele>2344.0</ele>
        <time>2015-05-30T15:03:08Z</time>
      </trkpt>
      <trkpt lat="38.289117" lon="-2.669733">
        <ele>2338.0</ele>
        <time>2015-05-30T15:03:13Z</time>
      </trkpt>
      <trkpt lat="38.288833" lon="-2.669850">
        <ele>2331.0</ele>
        <time>2015-05-30T15:03:18Z</time>
      </trkpt>
      <trkpt lat="38.288550" lon="-2.670000">
        <ele>2323.0</ele>
        <time>2015-05-30T15:03:23Z</time>
      </trkpt>
      <trkpt lat="38.288283" lon="-2.670167">
        <ele>2313.0</ele>
        <time>2015-05-30T15:03:28Z</time>
      </trkpt>
      <trkpt lat="38.288017" lon="-2.670367">
        <ele>2303.0</ele>
        <time>2015-05-30T15:03:33Z</time>
      </trkpt>
      <trkpt lat="38.287733" lon="-2.670517">
        <ele>2294.0</ele>
        <time>2015-05-30T15:03:38Z</time>
      </trkpt>
      <trkpt lat="38.287417" lon="-2.670700">
        <ele>2284.0</ele>
        <time>2015-05-30T15:03:43Z</time>
      </trkpt>
      <trkpt lat="38.287083" lon="-2.670850">
        <ele>2273.0</ele>
        <time>2015-05-30T15:03:48Z</time>
      </trkpt>
      <trkpt lat="38.286800" lon="-2.671000">
        <ele>2261.0</ele>
        <time>2015-05-30T15:03:53Z</time>
      </trkpt>
      <trkpt lat="38.286450" lon="-2.671183">
        <ele>2245.0</ele>
        <time>2015-05-30T15:03:58Z</time>
      </trkpt>
      <trkpt lat="38.286083" lon="-2.671433">
        <ele>2228.0</ele>
        <time>2015-05-30T15:04:03Z</time>
      </trkpt>
      <trkpt lat="38.285733" lon="-2.671617">
        <ele>2213.0</ele>
        <time>2015-05-30T15:04:08Z</time>
      </trkpt>
      <trkpt lat="38.285450" lon="-2.671750">
        <ele>2201.0</ele>
        <time>2015-05-30T15:04:13Z</time>
      </trkpt>
      <trkpt lat="38.285200" lon="-2.671967">
        <ele>2191.0</ele>
        <time>2015-05-30T15:04:18Z</time>
      </trkpt>
      <trkpt lat="38.284867" lon="-2.672233">
        <ele>2181.0</ele>
        <time>2015-05-30T15:04:23Z</time>
      </trkpt>
      <trkpt lat="38.284483" lon="-2.672467">
        <ele>2171.0</ele>
        <time>2015-05-30T15:04:28Z</time>
      </trkpt>
      <trkpt lat="38.284100" lon="-2.672650">
        <ele>2161.0</ele>
        <time>2015-05-30T15:04:33Z</time>
      </trkpt>
      <trkpt lat="38.283683" lon="-2.672817">
        <ele>2150.0</ele>
        <time>2015-05-30T15:04:38Z</time>
      </trkpt>
      <trkpt lat="38.283250" lon="-2.672950">
        <ele>2139.0</ele>
        <time>2015-05-30T15:04:43Z</time>
      </trkpt>
      <trkpt lat="38.282867" lon="-2.673083">
        <ele>2130.0</ele>
        <time>2015-05-30T15:04:48Z</time>
      </trkpt>
      <trkpt lat="38.282483" lon="-2.673283">
        <ele>2122.0</ele>
        <time>2015-05-30T15:04:53Z</time>
      </trkpt>
      <trkpt lat="38.282050" lon="-2.673500">
        <ele>2113.0</ele>
        <time>2015-05-30T15:04:58Z</time>
      </trkpt>
      <trkpt lat="38.281650" lon="-2.673650">
        <ele>2106.0</ele>
        <time>2015-05-30T15:05:03Z</time>
      </trkpt>
      <trkpt lat="38.281183" lon="-2.673750">
        <ele>2096.0</ele>
        <time>2015-05-30T15:05:08Z</time>
      </trkpt>
      <trkpt lat="38.280700" lon="-2.673850">
        <ele>2088.0</ele>
        <time>2015-05-30T15:05:13Z</time>
      </trkpt>
      <trkpt lat="38.280233" lon="-2.674033">
        <ele>2078.0</ele>
        <time>2015-05-30T15:05:18Z</time>
      </trkpt>
      <trkpt lat="38.279867" lon="-2.674333">
        <ele>2069.0</ele>
        <time>2015-05-30T15:05:23Z</time>
      </trkpt>
      <trkpt lat="38.279483" lon="-2.674567">
        <ele>2059.0</ele>
        <time>2015-05-30T15:05:28Z</time>
      </trkpt>
      <trkpt lat="38.279133" lon="-2.674767">
        <ele>2049.0</ele>
        <time>2015-05-30T15:05:33Z</time>
      </trkpt>
      <trkpt lat="38.278750" lon="-2.674967">
        <ele>2040.0</ele>
        <time>2015-05-30T15:05:38Z</time>
      </trkpt>
      <trkpt lat="38.278367" lon="-2.675200">
        <ele>2030.0</ele>
        <time>2015-05-30T15:05:43Z</time>
      </trkpt>
      <trkpt lat="38.278000" lon="-2.675417">
        <ele>2020.0</ele>
        <time>2015-05-30T15:05:48Z</time>
      </trkpt>
      <trkpt lat="38.277600" lon="-2.675550">
        <ele>2010.0</ele>
        <time>2015-05-30T15:05:53Z</time>
      </trkpt>
      <trkpt lat="38.277233" lon="-2.675683">
        <ele>2001.0</ele>
        <time>2015-05-30T15:05:58Z</time>
      </trkpt>
      <trkpt lat="38.276867" lon="-2.675817">
        <ele>1989.0</ele>
        <time>2015-05-30T15:06:03Z</time>
      </trkpt>
      <trkpt lat="38.276517" lon="-2.675967">
        <ele>1977.0</ele>
        <time>2015-05-30T15:06:08Z</time>
      </trkpt>
      <trkpt lat="38.276133" lon="-2.676033">
        <ele>1964.0</ele>
        <time>2015-05-30T15:06:13Z</time>
      </trkpt>
      <trkpt lat="38.275750" lon="-2.676067">
        <ele>1951.0</ele>
        <time>2015-05-30T15:06:18Z</time>
      </trkpt>
      <trkpt lat="38.275317" lon="-2.676050">
        <ele>1937.0</ele>
        <time>2015-05-30T15:06:23Z</time>
      </trkpt>
      <trkpt lat="38.274900" lon="-2.675933">
        <ele>1924.0</ele>
        <time>2015-05-30T15:06:28Z</time>
      </trkpt>
      <trkpt lat="38.274467" lon="-2.675917">
        <ele>1909.0</ele>
        <time>2015-05-30T15:06:33Z</time>
      </trkpt>
      <trkpt lat="38.274083" lon="-2.675967">
        <ele>1893.0</ele>
        <time>2015-05-30T15:06:38Z</time>
      </trkpt>
      <trkpt lat="38.273750" lon="-2.676083">
        <ele>1876.0</ele>
        <time>2015-05-30T15:06:43Z</time>
      </trkpt>
      <trkpt lat="38.273483" lon="-2.676150">
        <ele>1864.0</ele>
        <time>2015-05-30T15:06:48Z</time>
      </trkpt>
      <trkpt lat="38.273133" lon="-2.676233">
        <ele>1854.0</ele>
        <time>2015-05-30T15:06:53Z</time>
      </trkpt>
      <trkpt lat="38.272700" lon="-2.676200">
        <ele>1847.0</ele>
        <time>2015-05-30T15:06:58Z</time>
      </trkpt>
      <trkpt lat="38.272317" lon="-2.676183">
        <ele>1846.0</ele>
        <time>2015-05-30T15:07:03Z</time>
      </trkpt>
      <trkpt lat="38.271983" lon="-2.676317">
        <ele>1847.0</ele>
        <time>2015-05-30T15:07:08Z</time>
      </trkpt>
      <trkpt lat="38.271600" lon="-2.676533">
        <ele>1848.0</ele>
        <time>2015-05-30T15:07:13Z</time>
      </trkpt>
      <trkpt lat="38.271217" lon="-2.676550">
        <ele>1852.0</ele>
        <time>2015-05-30T15:07:18Z</time>
      </trkpt>
      <trkpt lat="38.270850" lon="-2.676600">
        <ele>1858.0</ele>
        <time>2015-05-30T15:07:23Z</time>
      </trkpt>
      <trkpt lat="38.270683" lon="-2.676733">
        <ele>1865.0</ele>
        <time>2015-05-30T15:07:28Z</time>
      </trkpt>
      <trkpt lat="38.270350" lon="-2.676817">
        <ele>1870.0</ele>
        <time>2015-05-30T15:07:33Z</time>
      </trkpt>
      <trkpt lat="38.270017" lon="-2.676983">
        <ele>1877.0</ele>
        <time>2015-05-30T15:07:38Z</time>
      </trkpt>
      <trkpt lat="38.269633" lon="-2.677183">
        <ele>1886.0</ele>
        <time>2015-05-30T15:07:43Z</time>
      </trkpt>
      <trkpt lat="38.269317" lon="-2.677483">
        <ele>1895.0</ele>
        <time>2015-05-30T15:07:48Z</time>
      </trkpt>
      <trkpt lat="38.268933" lon="-2.677617">
        <ele>1906.0</ele>
        <time>2015-05-30T15:07:53Z</time>
      </trkpt>
      <trkpt lat="38.268550" lon="-2.677667">
        <ele>1914.0</ele>
        <time>2015-05-30T15:07:58Z</time>
      </trkpt>
      <trkpt lat="38.268200" lon="-2.677733">
        <ele>1915.0</ele>
        <time>2015-05-30T15:08:03Z</time>
      </trkpt>
      <trkpt lat="38.267883" lon="-2.677850">
        <ele>1912.0</ele>
        <time>2015-05-30T15:08:08Z</time>
      </trkpt>
      <trkpt lat="38.267567" lon="-2.677950">
        <ele>1906.0</ele>
        <time>2015-05-30T15:08:13Z</time>
      </trkpt>
      <trkpt lat="38.267217" lon="-2.678000">
        <ele>1900.0</ele>
        <time>2015-05-30T15:08:18Z</time>
      </trkpt>
      <trkpt lat="38.266800" lon="-2.678117">
        <ele>1894.0</ele>
        <time>2015-05-30T15:08:23Z</time>
      </trkpt>
      <trkpt lat="38.266367" lon="-2.678267">
        <ele>1887.0</ele>
        <time>2015-05-30T15:08:28Z</time>
      </trkpt>
      <trkpt lat="38.265917" lon="-2.678333">
        <ele>1880.0</ele>
        <time>2015-05-30T15:08:33Z</time>
      </trkpt>
      <trkpt lat="38.265500" lon="-2.678350">
        <ele>1875.0</ele>
        <time>2015-05-30T15:08:38Z</time>
      </trkpt>
      <trkpt lat="38.265100" lon="-2.678367">
        <ele>1872.0</ele>
        <time>2015-05-30T15:08:43Z</time>
      </trkpt>
      <trkpt lat="38.264717" lon="-2.678367">
        <ele>1871.0</ele>
        <time>2015-05-30T15:08:48Z</time>
      </trkpt>
      <trkpt lat="38.264300" lon="-2.678283">
        <ele>1874.0</ele>
        <time>2015-05-30T15:08:53Z</time>
      </trkpt>
      <trkpt lat="38.263933" lon="-2.678283">
        <ele>1879.0</ele>
        <time>2015-05-30T15:08:58Z</time>
      </trkpt>
      <trkpt lat="38.263517" lon="-2.678283">
        <ele>1879.0</ele>
        <time>2015-05-30T15:09:03Z</time>
      </trkpt>
      <trkpt lat="38.263200" lon="-2.678267">
        <ele>1876.0</ele>
        <time>2015-05-30T15:09:08Z</time>
      </trkpt>
      <trkpt lat="38.262883" lon="-2.678300">
        <ele>1869.0</ele>
        <time>2015-05-30T15:09:13Z</time>
      </trkpt>
      <trkpt lat="38.262567" lon="-2.678300">
        <ele>1862.0</ele>
        <time>2015-05-30T15:09:18Z</time>
      </trkpt>
      <trkpt lat="38.262317" lon="-2.678417">
        <ele>1857.0</ele>
        <time>2015-05-30T15:09:23Z</time>
      </trkpt>
      <trkpt lat="38.262100" lon="-2.678633">
        <ele>1852.0</ele>
        <time>2015-05-30T15:09:28Z</time>
      </trkpt>
      <trkpt lat="38.261783" lon="-2.678800">
        <ele>1845.0</ele>
        <time>2015-05-30T15:09:33Z</time>
      </trkpt>
      <trkpt lat="38.261500" lon="-2.678900">
        <ele>1841.0</ele>
        <time>2015-05-30T15:09:38Z</time>
      </trkpt>
      <trkpt lat="38.261233" lon="-2.679100">
        <ele>1836.0</ele>
        <time>2015-05-30T15:09:43Z</time>
      </trkpt>
      <trkpt lat="38.261017" lon="-2.679400">
        <ele>1830.0</ele>
        <time>2015-05-30T15:09:48Z</time>
      </trkpt>
      <trkpt lat="38.260767" lon="-2.679717">
        <ele>1823.0</ele>
        <time>2015-05-30T15:09:53Z</time>
      </trkpt>
      <trkpt lat="38.260533" lon="-2.680050">
        <ele>1815.0</ele>
        <time>2015-05-30T15:09:58Z</time>
      </trkpt>
      <trkpt lat="38.260300" lon="-2.680350">
        <ele>1808.0</ele>
        <time>2015-05-30T15:10:03Z</time>
      </trkpt>
      <trkpt lat="38.260133" lon="-2.680583">
        <ele>1806.0</ele>
        <time>2015-05-30T15:10:08Z</time>
      </trkpt>
      <trkpt lat="38.259967" lon="-2.680900">
        <ele>1806.0</ele>
        <time>2015-05-30T15:10:13Z</time>
      </trkpt>
      <trkpt lat="38.259800" lon="-2.681083">
        <ele>1812.0</ele>
        <time>2015-05-30T15:10:18Z</time>
      </trkpt>
      <trkpt lat="38.259483" lon="-2.681200">
        <ele>1815.0</ele>
        <time>2015-05-30T15:10:23Z</time>
      </trkpt>
      <trkpt lat="38.259333" lon="-2.681467">
        <ele>1820.0</ele>
        <time>2015-05-30T15:10:28Z</time>
      </trkpt>
      <trkpt lat="38.259300" lon="-2.681717">
        <ele>1829.0</ele>
        <time>2015-05-30T15:10:33Z</time>
      </trkpt>
      <trkpt lat="38.258967" lon="-2.681683">
        <ele>1842.0</ele>
        <time>2015-05-30T15:10:38Z</time>
      </trkpt>
      <trkpt lat="38.258517" lon="-2.681317">
        <ele>1858.0</ele>
        <time>2015-05-30T15:10:43Z</time>
      </trkpt>
      <trkpt lat="38.258133" lon="-2.681367">
        <ele>1877.0</ele>
        <time>2015-05-30T15:10:48Z</time>
      </trkpt>
      <trkpt lat="38.258133" lon="-2.681617">
        <ele>1903.0</ele>
        <time>2015-05-30T15:10:53Z</time>
      </trkpt>
      <trkpt lat="38.258283" lon="-2.681850">
        <ele>1934.0</ele>
        <time>2015-05-30T15:10:58Z</time>
      </trkpt>
      <trkpt lat="38.258000" lon="-2.681783">
        <ele>1961.0</ele>
        <time>2015-05-30T15:11:03Z</time>
      </trkpt>
      <trkpt lat="38.257600" lon="-2.681667">
        <ele>1979.0</ele>
        <time>2015-05-30T15:11:08Z</time>
      </trkpt>
      <trkpt lat="38.257233" lon="-2.681700">
        <ele>1988.0</ele>
        <time>2015-05-30T15:11:13Z</time>
      </trkpt>
      <trkpt lat="38.256900" lon="-2.681783">
        <ele>1991.0</ele>
        <time>2015-05-30T15:11:18Z</time>
      </trkpt>
      <trkpt lat="38.256600" lon="-2.681917">
        <ele>1989.0</ele>
        <time>2015-05-30T15:11:23Z</time>
      </trkpt>
      <trkpt lat="38.256333" lon="-2.682100">
        <ele>1981.0</ele>
        <time>2015-05-30T15:11:28Z</time>
      </trkpt>
      <trkpt lat="38.256117" lon="-2.682400">
        <ele>1968.0</ele>
        <time>2015-05-30T15:11:33Z</time>
      </trkpt>
      <trkpt lat="38.255950" lon="-2.682733">
        <ele>1951.0</ele>
        <time>2015-05-30T15:11:38Z</time>
      </trkpt>
      <trkpt lat="38.255767" lon="-2.683100">
        <ele>1935.0</ele>
        <time>2015-05-30T15:11:43Z</time>
      </trkpt>
      <trkpt lat="38.255533" lon="-2.683533">
        <ele>1920.0</ele>
        <time>2015-05-30T15:11:48Z</time>
      </trkpt>
      <trkpt lat="38.255300" lon="-2.683850">
        <ele>1907.0</ele>
        <time>2015-05-30T15:11:53Z</time>
      </trkpt>
      <trkpt lat="38.254967" lon="-2.684117">
        <ele>1891.0</ele>
        <time>2015-05-30T15:11:58Z</time>
      </trkpt>
      <trkpt lat="38.254650" lon="-2.684333">
        <ele>1874.0</ele>
        <time>2015-05-30T15:12:03Z</time>
      </trkpt>
      <trkpt lat="38.254450" lon="-2.684617">
        <ele>1856.0</ele>
        <time>2015-05-30T15:12:08Z</time>
      </trkpt>
      <trkpt lat="38.254283" lon="-2.684950">
        <ele>1839.0</ele>
        <time>2015-05-30T15:12:13Z</time>
      </trkpt>
      <trkpt lat="38.254133" lon="-2.685217">
        <ele>1825.0</ele>
        <time>2015-05-30T15:12:18Z</time>
      </trkpt>
      <trkpt lat="38.253850" lon="-2.685567">
        <ele>1813.0</ele>
        <time>2015-05-30T15:12:23Z</time>
      </trkpt>
      <trkpt lat="38.253500" lon="-2.685850">
        <ele>1801.0</ele>
        <time>2015-05-30T15:12:28Z</time>
      </trkpt>
      <trkpt lat="38.253217" lon="-2.686267">
        <ele>1791.0</ele>
        <time>2015-05-30T15:12:33Z</time>
      </trkpt>
      <trkpt lat="38.252950" lon="-2.686617">
        <ele>1786.0</ele>
        <time>2015-05-30T15:12:38Z</time>
      </trkpt>
      <trkpt lat="38.252700" lon="-2.687033">
        <ele>1785.0</ele>
        <time>2015-05-30T15:12:43Z</time>
      </trkpt>
      <trkpt lat="38.252467" lon="-2.687367">
        <ele>1786.0</ele>
        <time>2015-05-30T15:12:48Z</time>
      </trkpt>
      <trkpt lat="38.252183" lon="-2.687650">
        <ele>1788.0</ele>
        <time>2015-05-30T15:12:53Z</time>
      </trkpt>
      <trkpt lat="38.252033" lon="-2.687917">
        <ele>1790.0</ele>
        <time>2015-05-30T15:12:58Z</time>
      </trkpt>
      <trkpt lat="38.251733" lon="-2.688017">
        <ele>1794.0</ele>
        <time>2015-05-30T15:13:03Z</time>
      </trkpt>
      <trkpt lat="38.251417" lon="-2.688183">
        <ele>1795.0</ele>
        <time>2015-05-30T15:13:08Z</time>
      </trkpt>
      <trkpt lat="38.251250" lon="-2.688350">
        <ele>1794.0</ele>
        <time>2015-05-30T15:13:13Z</time>
      </trkpt>
      <trkpt lat="38.251050" lon="-2.688633">
        <ele>1794.0</ele>
        <time>2015-05-30T15:13:18Z</time>
      </trkpt>
      <trkpt lat="38.250883" lon="-2.688867">
        <ele>1797.0</ele>
        <time>2015-05-30T15:13:23Z</time>
      </trkpt>
      <trkpt lat="38.250750" lon="-2.689183">
        <ele>1800.0</ele>
        <time>2015-05-30T15:13:28Z</time>
      </trkpt>
      <trkpt lat="38.250450" lon="-2.689400">
        <ele>1806.0</ele>
        <time>2015-05-30T15:13:33Z</time>
      </trkpt>
      <trkpt lat="38.250233" lon="-2.689617">
        <ele>1818.0</ele>
        <time>2015-05-30T15:13:38Z</time>
      </trkpt>
      <trkpt lat="38.249950" lon="-2.689867">
        <ele>1831.0</ele>
        <time>2015-05-30T15:13:43Z</time>
      </trkpt>
      <trkpt lat="38.249667" lon="-2.690117">
        <ele>1846.0</ele>
        <time>2015-05-30T15:13:48Z</time>
      </trkpt>
      <trkpt lat="38.249367" lon="-2.690400">
        <ele>1861.0</ele>
        <time>2015-05-30T15:13:53Z</time>
      </trkpt>
      <trkpt lat="38.249017" lon="-2.690600">
        <ele>1875.0</ele>
        <time>2015-05-30T15:13:58Z</time>
      </trkpt>
      <trkpt lat="38.248767" lon="-2.690783">
        <ele>1889.0</ele>
        <time>2015-05-30T15:14:03Z</time>
      </trkpt>
      <trkpt lat="38.248667" lon="-2.691133">
        <ele>1895.0</ele>
        <time>2015-05-30T15:14:08Z</time>
      </trkpt>
      <trkpt lat="38.248567" lon="-2.691517">
        <ele>1894.0</ele>
        <time>2015-05-30T15:14:13Z</time>
      </trkpt>
      <trkpt lat="38.248500" lon="-2.691917">
        <ele>1890.0</ele>
        <time>2015-05-30T15:14:18Z</time>
      </trkpt>
      <trkpt lat="38.248300" lon="-2.692183">
        <ele>1890.0</ele>
        <time>2015-05-30T15:14:23Z</time>
      </trkpt>
      <trkpt lat="38.248050" lon="-2.692417">
        <ele>1888.0</ele>
        <time>2015-05-30T15:14:28Z</time>
      </trkpt>
      <trkpt lat="38.247800" lon="-2.692650">
        <ele>1883.0</ele>
        <time>2015-05-30T15:14:33Z</time>
      </trkpt>
      <trkpt lat="38.247617" lon="-2.693017">
        <ele>1875.0</ele>
        <time>2015-05-30T15:14:38Z</time>
      </trkpt>
      <trkpt lat="38.247400" lon="-2.693300">
        <ele>1869.0</ele>
        <time>2015-05-30T15:14:43Z</time>
      </trkpt>
      <trkpt lat="38.247150" lon="-2.693533">
        <ele>1860.0</ele>
        <time>2015-05-30T15:14:48Z</time>
      </trkpt>
      <trkpt lat="38.246833" lon="-2.693767">
        <ele>1849.0</ele>
        <time>2015-05-30T15:14:53Z</time>
      </trkpt>
      <trkpt lat="38.246533" lon="-2.694033">
        <ele>1838.0</ele>
        <time>2015-05-30T15:14:58Z</time>
      </trkpt>
      <trkpt lat="38.246250" lon="-2.694283">
        <ele>1829.0</ele>
        <time>2015-05-30T15:15:03Z</time>
      </trkpt>
      <trkpt lat="38.245983" lon="-2.694350">
        <ele>1824.0</ele>
        <time>2015-05-30T15:15:08Z</time>
      </trkpt>
      <trkpt lat="38.245767" lon="-2.694517">
        <ele>1822.0</ele>
        <time>2015-05-30T15:15:13Z</time>
      </trkpt>
      <trkpt lat="38.245683" lon="-2.694767">
        <ele>1827.0</ele>
        <time>2015-05-30T15:15:18Z</time>
      </trkpt>
      <trkpt lat="38.245383" lon="-2.694850">
        <ele>1835.0</ele>
        <time>2015-05-30T15:15:23Z</time>
      </trkpt>
      <trkpt lat="38.245350" lon="-2.695233">
        <ele>1844.0</ele>
        <time>2015-05-30T15:15:28Z</time>
      </trkpt>
      <trkpt lat="38.245367" lon="-2.695650">
        <ele>1856.0</ele>
        <time>2015-05-30T15:15:33Z</time>
      </trkpt>
      <trkpt lat="38.245433" lon="-2.695967">
        <ele>1866.0</ele>
        <time>2015-05-30T15:15:38Z</time>
      </trkpt>
      <trkpt lat="38.245550" lon="-2.696300">
        <ele>1874.0</ele>
        <time>2015-05-30T15:15:43Z</time>
      </trkpt>
      <trkpt lat="38.245700" lon="-2.696667">
        <ele>1878.0</ele>
        <time>2015-05-30T15:15:48Z</time>
      </trkpt>
      <trkpt lat="38.245800" lon="-2.697067">
        <ele>1879.0</ele>
        <time>2015-05-30T15:15:53Z</time>
      </trkpt>
      <trkpt lat="38.245767" lon="-2.697483">
        <ele>1881.0</ele>
        <time>2015-05-30T15:15:58Z</time>
      </trkpt>
      <trkpt lat="38.245800" lon="-2.697917">
        <ele>1881.0</ele>
        <time>2015-05-30T15:16:03Z</time>
      </trkpt>
      <trkpt lat="38.245783" lon="-2.698317">
        <ele>1882.0</ele>
        <time>2015-05-30T15:16:08Z</time>
      </trkpt>
      <trkpt lat="38.245717" lon="-2.698783">
        <ele>1886.0</ele>
        <time>2015-05-30T15:16:13Z</time>
      </trkpt>
      <trkpt lat="38.245583" lon="-2.699217">
        <ele>1893.0</ele>
        <time>2015-05-30T15:16:18Z</time>
      </trkpt>
      <trkpt lat="38.245450" lon="-2.699517">
        <ele>1902.0</ele>
        <time>2015-05-30T15:16:23Z</time>
      </trkpt>
      <trkpt lat="38.245250" lon="-2.699933">
        <ele>1910.0</ele>
        <time>2015-05-30T15:16:28Z</time>
      </trkpt>
      <trkpt lat="38.245217" lon="-2.700317">
        <ele>1919.0</ele>
        <time>2015-05-30T15:16:33Z</time>
      </trkpt>
      <trkpt lat="38.245450" lon="-2.700233">
        <ele>1924.0</ele>
        <time>2015-05-30T15:16:38Z</time>
      </trkpt>
      <trkpt lat="38.245483" lon="-2.700217">
        <ele>1927.0</ele>
        <time>2015-05-30T15:16:43Z</time>
      </trkpt>
      <trkpt lat="38.245567" lon="-2.700517">
        <ele>1929.0</ele>
        <time>2015-05-30T15:16:48Z</time>
      </trkpt>
      <trkpt lat="38.245483" lon="-2.700950">
        <ele>1934.0</ele>
        <time>2015-05-30T15:16:53Z</time>
      </trkpt>
      <trkpt lat="38.245333" lon="-2.701383">
        <ele>1936.0</ele>
        <time>2015-05-30T15:16:58Z</time>
      </trkpt>
      <trkpt lat="38.245167" lon="-2.701783">
        <ele>1937.0</ele>
        <time>2015-05-30T15:17:03Z</time>
      </trkpt>
      <trkpt lat="38.245150" lon="-2.702200">
        <ele>1935.0</ele>
        <time>2015-05-30T15:17:08Z</time>
      </trkpt>
      <trkpt lat="38.244983" lon="-2.702450">
        <ele>1939.0</ele>
        <time>2015-05-30T15:17:13Z</time>
      </trkpt>
      <trkpt lat="38.244883" lon="-2.702733">
        <ele>1947.0</ele>
        <time>2015-05-30T15:17:18Z</time>
      </trkpt>
      <trkpt lat="38.244817" lon="-2.702983">
        <ele>1954.0</ele>
        <time>2015-05-30T15:17:23Z</time>
      </trkpt>
      <trkpt lat="38.244750" lon="-2.703283">
        <ele>1957.0</ele>
        <time>2015-05-30T15:17:28Z</time>
      </trkpt>
      <trkpt lat="38.244700" lon="-2.703667">
        <ele>1957.0</ele>
        <time>2015-05-30T15:17:33Z</time>
      </trkpt>
      <trkpt lat="38.244617" lon="-2.704117">
        <ele>1951.0</ele>
        <time>2015-05-30T15:17:38Z</time>
      </trkpt>
      <trkpt lat="38.244550" lon="-2.704517">
        <ele>1940.0</ele>
        <time>2015-05-30T15:17:43Z</time>
      </trkpt>
      <trkpt lat="38.244483" lon="-2.704933">
        <ele>1931.0</ele>
        <time>2015-05-30T15:17:48Z</time>
      </trkpt>
      <trkpt lat="38.244417" lon="-2.705267">
        <ele>1925.0</ele>
        <time>2015-05-30T15:17:53Z</time>
      </trkpt>
      <trkpt lat="38.244367" lon="-2.705633">
        <ele>1921.0</ele>
        <time>2015-05-30T15:17:58Z</time>
      </trkpt>
      <trkpt lat="38.244267" lon="-2.706033">
        <ele>1918.0</ele>
        <time>2015-05-30T15:18:03Z</time>
      </trkpt>
      <trkpt lat="38.244133" lon="-2.706267">
        <ele>1917.0</ele>
        <time>2015-05-30T15:18:08Z</time>
      </trkpt>
      <trkpt lat="38.243933" lon="-2.706467">
        <ele>1917.0</ele>
        <time>2015-05-30T15:18:13Z</time>
      </trkpt>
      <trkpt lat="38.243950" lon="-2.706633">
        <ele>1921.0</ele>
        <time>2015-05-30T15:18:18Z</time>
      </trkpt>
      <trkpt lat="38.243933" lon="-2.706883">
        <ele>1929.0</ele>
        <time>2015-05-30T15:18:23Z</time>
      </trkpt>
      <trkpt lat="38.243833" lon="-2.707100">
        <ele>1935.0</ele>
        <time>2015-05-30T15:18:28Z</time>
      </trkpt>
      <trkpt lat="38.243717" lon="-2.707283">
        <ele>1940.0</ele>
        <time>2015-05-30T15:18:33Z</time>
      </trkpt>
      <trkpt lat="38.243733" lon="-2.707533">
        <ele>1943.0</ele>
        <time>2015-05-30T15:18:38Z</time>
      </trkpt>
      <trkpt lat="38.243700" lon="-2.707717">
        <ele>1946.0</ele>
        <time>2015-05-30T15:18:43Z</time>
      </trkpt>
      <trkpt lat="38.243650" lon="-2.707933">
        <ele>1948.0</ele>
        <time>2015-05-30T15:18:48Z</time>
      </trkpt>
      <trkpt lat="38.243667" lon="-2.708100">
        <ele>1949.0</ele>
        <time>2015-05-30T15:18:53Z</time>
      </trkpt>
      <trkpt lat="38.243717" lon="-2.708267">
        <ele>1948.0</ele>
        <time>2015-05-30T15:18:58Z</time>
      </trkpt>
      <trkpt lat="38.243717" lon="-2.708367">
        <ele>1945.0</ele>
        <time>2015-05-30T15:19:03Z</time>
      </trkpt>
      <trkpt lat="38.243533" lon="-2.708517">
        <ele>1938.0</ele>
        <time>2015-05-30T15:19:08Z</time>
      </trkpt>
      <trkpt lat="38.243367" lon="-2.708617">
        <ele>1938.0</ele>
        <time>2015-05-30T15:19:13Z</time>
      </trkpt>
      <trkpt lat="38.243267" lon="-2.708733">
        <ele>1943.0</ele>
        <time>2015-05-30T15:19:18Z</time>
      </trkpt>
      <trkpt lat="38.243133" lon="-2.708867">
        <ele>1953.0</ele>
        <time>2015-05-30T15:19:23Z</time>
      </trkpt>
      <trkpt lat="38.243050" lon="-2.709133">
        <ele>1962.0</ele>
        <time>2015-05-30T15:19:28Z</time>
      </trkpt>
      <trkpt lat="38.243117" lon="-2.709467">
        <ele>1972.0</ele>
        <time>2015-05-30T15:19:33Z</time>
      </trkpt>
      <trkpt lat="38.243250" lon="-2.709800">
        <ele>1979.0</ele>
        <time>2015-05-30T15:19:38Z</time>
      </trkpt>
      <trkpt lat="38.243283" lon="-2.710200">
        <ele>1982.0</ele>
        <time>2015-05-30T15:19:43Z</time>
      </trkpt>
      <trkpt lat="38.243267" lon="-2.710650">
        <ele>1982.0</ele>
        <time>2015-05-30T15:19:48Z</time>
      </trkpt>
      <trkpt lat="38.243300" lon="-2.711133">
        <ele>1979.0</ele>
        <time>2015-05-30T15:19:53Z</time>
      </trkpt>
      <trkpt lat="38.243417" lon="-2.711517">
        <ele>1977.0</ele>
        <time>2015-05-30T15:19:58Z</time>
      </trkpt>
      <trkpt lat="38.243583" lon="-2.711900">
        <ele>1980.0</ele>
        <time>2015-05-30T15:20:03Z</time>
      </trkpt>
      <trkpt lat="38.243783" lon="-2.712117">
        <ele>1983.0</ele>
        <time>2015-05-30T15:20:08Z</time>
      </trkpt>
      <trkpt lat="38.243850" lon="-2.711617">
        <ele>1982.0</ele>
        <time>2015-05-30T15:20:13Z</time>
      </trkpt>
      <trkpt lat="38.243800" lon="-2.711817">
        <ele>1981.0</ele>
        <time>2015-05-30T15:20:18Z</time>
      </trkpt>
      <trkpt lat="38.243417" lon="-2.711700">
        <ele>1977.0</ele>
        <time>2015-05-30T15:20:23Z</time>
      </trkpt>
      <trkpt lat="38.243350" lon="-2.711500">
        <ele>1967.0</ele>
        <time>2015-05-30T15:20:28Z</time>
      </trkpt>
      <trkpt lat="38.243117" lon="-2.711333">
        <ele>1959.0</ele>
        <time>2015-05-30T15:20:33Z</time>
      </trkpt>
      <trkpt lat="38.243033" lon="-2.711417">
        <ele>1948.0</ele>
        <time>2015-05-30T15:20:38Z</time>
      </trkpt>
      <trkpt lat="38.242933" lon="-2.711117">
        <ele>1934.0</ele>
        <time>2015-05-30T15:20:43Z</time>
      </trkpt>
      <trkpt lat="38.242667" lon="-2.710767">
        <ele>1923.0</ele>
        <time>2015-05-30T15:20:48Z</time>
      </trkpt>
      <trkpt lat="38.242517" lon="-2.710167">
        <ele>1909.0</ele>
        <time>2015-05-30T15:20:53Z</time>
      </trkpt>
      <trkpt lat="38.242517" lon="-2.710183">
        <ele>1898.0</ele>
        <time>2015-05-30T15:20:58Z</time>
      </trkpt>
      <trkpt lat="38.242500" lon="-2.710517">
        <ele>1889.0</ele>
        <time>2015-05-30T15:21:03Z</time>
      </trkpt>
      <trkpt lat="38.242467" lon="-2.710767">
        <ele>1885.0</ele>
        <time>2015-05-30T15:21:08Z</time>
      </trkpt>
      <trkpt lat="38.242233" lon="-2.710600">
        <ele>1880.0</ele>
        <time>2015-05-30T15:21:13Z</time>
      </trkpt>
      <trkpt lat="38.241850" lon="-2.710117">
        <ele>1874.0</ele>
        <time>2015-05-30T15:21:18Z</time>
      </trkpt>
      <trkpt lat="38.241483" lon="-2.709717">
        <ele>1869.0</ele>
        <time>2015-05-30T15:21:23Z</time>
      </trkpt>
      <trkpt lat="38.241267" lon="-2.709950">
        <ele>1863.0</ele>
        <time>2015-05-30T15:21:28Z</time>
      </trkpt>
      <trkpt lat="38.241300" lon="-2.710283">
        <ele>1862.0</ele>
        <time>2015-05-30T15:21:33Z</time>
      </trkpt>
      <trkpt lat="38.241417" lon="-2.710550">
        <ele>1866.0</ele>
        <time>2015-05-30T15:21:38Z</time>
      </trkpt>
      <trkpt lat="38.241583" lon="-2.710817">
        <ele>1875.0</ele>
        <time>2015-05-30T15:21:43Z</time>
      </trkpt>
      <trkpt lat="38.241567" lon="-2.711033">
        <ele>1884.0</ele>
        <time>2015-05-30T15:21:48Z</time>
      </trkpt>
      <trkpt lat="38.241600" lon="-2.711317">
        <ele>1892.0</ele>
        <time>2015-05-30T15:21:53Z</time>
      </trkpt>
      <trkpt lat="38.241633" lon="-2.711517">
        <ele>1904.0</ele>
        <time>2015-05-30T15:21:58Z</time>
      </trkpt>
      <trkpt lat="38.241817" lon="-2.711683">
        <ele>1916.0</ele>
        <time>2015-05-30T15:22:03Z</time>
      </trkpt>
      <trkpt lat="38.241783" lon="-2.711950">
        <ele>1928.0</ele>
        <time>2015-05-30T15:22:08Z</time>
      </trkpt>
      <trkpt lat="38.241750" lon="-2.712283">
        <ele>1937.0</ele>
        <time>2015-05-30T15:22:13Z</time>
      </trkpt>
      <trkpt lat="38.242167" lon="-2.712400">
        <ele>1937.0</ele>
        <time>2015-05-30T15:22:18Z</time>
      </trkpt>
      <trkpt lat="38.242650" lon="-2.712167">
        <ele>1931.0</ele>
        <time>2015-05-30T15:22:23Z</time>
      </trkpt>
      <trkpt lat="38.243067" lon="-2.711667">
        <ele>1923.0</ele>
        <time>2015-05-30T15:22:28Z</time>
      </trkpt>
      <trkpt lat="38.243067" lon="-2.710767">
        <ele>1912.0</ele>
        <time>2015-05-30T15:22:33Z</time>
      </trkpt>
      <trkpt lat="38.243017" lon="-2.710700">
        <ele>1899.0</ele>
        <time>2015-05-30T15:22:38Z</time>
      </trkpt>
      <trkpt lat="38.243183" lon="-2.710033">
        <ele>1885.0</ele>
        <time>2015-05-30T15:22:43Z</time>
      </trkpt>
      <trkpt lat="38.242917" lon="-2.709733">
        <ele>1869.0</ele>
        <time>2015-05-30T15:22:48Z</time>
      </trkpt>
      <trkpt lat="38.243150" lon="-2.709517">
        <ele>1855.0</ele>
        <time>2015-05-30T15:22:53Z</time>
      </trkpt>
      <trkpt lat="38.243067" lon="-2.708633">
        <ele>1844.0</ele>
        <time>2015-05-30T15:22:58Z</time>
      </trkpt>
      <trkpt lat="38.242617" lon="-2.708333">
        <ele>1833.0</ele>
        <time>2015-05-30T15:23:03Z</time>
      </trkpt>
      <trkpt lat="38.242333" lon="-2.708617">
        <ele>1827.0</ele>
        <time>2015-05-30T15:23:08Z</time>
      </trkpt>
      <trkpt lat="38.242333" lon="-2.708867">
        <ele>1829.0</ele>
        <time>2015-05-30T15:23:13Z</time>
      </trkpt>
      <trkpt lat="38.242567" lon="-2.708917">
        <ele>1837.0</ele>
        <time>2015-05-30T15:23:18Z</time>
      </trkpt>
      <trkpt lat="38.243017" lon="-2.708850">
        <ele>1843.0</ele>
        <time>2015-05-30T15:23:23Z</time>
      </trkpt>
      <trkpt lat="38.243350" lon="-2.708883">
        <ele>1847.0</ele>
        <time>2015-05-30T15:23:28Z</time>
      </trkpt>
      <trkpt lat="38.243650" lon="-2.708817">
        <ele>1846.0</ele>
        <time>2015-05-30T15:23:33Z</time>
      </trkpt>
      <trkpt lat="38.243950" lon="-2.708150">
        <ele>1841.0</ele>
        <time>2015-05-30T15:23:38Z</time>
      </trkpt>
      <trkpt lat="38.244017" lon="-2.707833">
        <ele>1831.0</ele>
        <time>2015-05-30T15:23:43Z</time>
      </trkpt>
      <trkpt lat="38.243950" lon="-2.707283">
        <ele>1817.0</ele>
        <time>2015-05-30T15:23:48Z</time>
      </trkpt>
      <trkpt lat="38.243633" lon="-2.707183">
        <ele>1803.0</ele>
        <time>2015-05-30T15:23:53Z</time>
      </trkpt>
      <trkpt lat="38.243300" lon="-2.706617">
        <ele>1782.0</ele>
        <time>2015-05-30T15:23:58Z</time>
      </trkpt>
      <trkpt lat="38.243200" lon="-2.706167">
        <ele>1754.0</ele>
        <time>2015-05-30T15:24:03Z</time>
      </trkpt>
      <trkpt lat="38.243467" lon="-2.706050">
        <ele>1727.0</ele>
        <time>2015-05-30T15:24:08Z</time>
      </trkpt>
      <trkpt lat="38.243633" lon="-2.706217">
        <ele>1707.0</ele>
        <time>2015-05-30T15:24:13Z</time>
      </trkpt>
      <trkpt lat="38.243933" lon="-2.706500">
        <ele>1696.0</ele>
        <time>2015-05-30T15:24:18Z</time>
      </trkpt>
      <trkpt lat="38.244300" lon="-2.706733">
        <ele>1690.0</ele>
        <time>2015-05-30T15:24:23Z</time>
      </trkpt>
      <trkpt lat="38.244667" lon="-2.706833">
        <ele>1688.0</ele>
        <time>2015-05-30T15:24:28Z</time>
      </trkpt>
      <trkpt lat="38.245033" lon="-2.706933">
        <ele>1688.0</ele>
        <time>2015-05-30T15:24:33Z</time>
      </trkpt>
      <trkpt lat="38.245017" lon="-2.707117">
        <ele>1690.0</ele>
        <time>2015-05-30T15:24:38Z</time>
      </trkpt>
      <trkpt lat="38.244900" lon="-2.707333">
        <ele>1693.0</ele>
        <time>2015-05-30T15:24:43Z</time>
      </trkpt>
      <trkpt lat="38.244800" lon="-2.707550">
        <ele>1700.0</ele>
        <time>2015-05-30T15:24:48Z</time>
      </trkpt>
      <trkpt lat="38.244733" lon="-2.707883">
        <ele>1706.0</ele>
        <time>2015-05-30T15:24:53Z</time>
      </trkpt>
      <trkpt lat="38.244967" lon="-2.708217">
        <ele>1711.0</ele>
        <time>2015-05-30T15:24:58Z</time>
      </trkpt>
      <trkpt lat="38.245283" lon="-2.708450">
        <ele>1716.0</ele>
        <time>2015-05-30T15:25:03Z</time>
      </trkpt>
      <trkpt lat="38.245600" lon="-2.708750">
        <ele>1718.0</ele>
        <time>2015-05-30T15:25:08Z</time>
      </trkpt>
      <trkpt lat="38.245867" lon="-2.709100">
        <ele>1720.0</ele>
        <time>2015-05-30T15:25:13Z</time>
      </trkpt>
      <trkpt lat="38.245983" lon="-2.709450">
        <ele>1725.0</ele>
        <time>2015-05-30T15:25:18Z</time>
      </trkpt>
      <trkpt lat="38.246033" lon="-2.709917">
        <ele>1731.0</ele>
        <time>2015-05-30T15:25:23Z</time>
      </trkpt>
      <trkpt lat="38.246350" lon="-2.710200">
        <ele>1740.0</ele>
        <time>2015-05-30T15:25:28Z</time>
      </trkpt>
      <trkpt lat="38.246850" lon="-2.710167">
        <ele>1749.0</ele>
        <time>2015-05-30T15:25:33Z</time>
      </trkpt>
      <trkpt lat="38.247050" lon="-2.710583">
        <ele>1755.0</ele>
        <time>2015-05-30T15:25:38Z</time>
      </trkpt>
      <trkpt lat="38.246917" lon="-2.710950">
        <ele>1759.0</ele>
        <time>2015-05-30T15:25:43Z</time>
      </trkpt>
      <trkpt lat="38.247017" lon="-2.711433">
        <ele>1765.0</ele>
        <time>2015-05-30T15:25:48Z</time>
      </trkpt>
      <trkpt lat="38.247117" lon="-2.711883">
        <ele>1772.0</ele>
        <time>2015-05-30T15:25:53Z</time>
      </trkpt>
      <trkpt lat="38.247283" lon="-2.712267">
        <ele>1783.0</ele>
        <time>2015-05-30T15:25:58Z</time>
      </trkpt>
      <trkpt lat="38.247667" lon="-2.712467">
        <ele>1799.0</ele>
        <time>2015-05-30T15:26:03Z</time>
      </trkpt>
      <trkpt lat="38.248283" lon="-2.712317">
        <ele>1817.0</ele>
        <time>2015-05-30T15:26:08Z</time>
      </trkpt>
      <trkpt lat="38.248767" lon="-2.712567">
        <ele>1835.0</ele>
        <time>2015-05-30T15:26:13Z</time>
      </trkpt>
      <trkpt lat="38.249150" lon="-2.713000">
        <ele>1851.0</ele>
        <time>2015-05-30T15:26:18Z</time>
      </trkpt>
      <trkpt lat="38.249417" lon="-2.713400">
        <ele>1867.0</ele>
        <time>2015-05-30T15:26:23Z</time>
      </trkpt>
      <trkpt lat="38.249733" lon="-2.713783">
        <ele>1883.0</ele>
        <time>2015-05-30T15:26:28Z</time>
      </trkpt>
      <trkpt lat="38.250083" lon="-2.714117">
        <ele>1897.0</ele>
        <time>2015-05-30T15:26:33Z</time>
      </trkpt>
      <trkpt lat="38.250467" lon="-2.714283">
        <ele>1907.0</ele>
        <time>2015-05-30T15:26:38Z</time>
      </trkpt>
      <trkpt lat="38.250983" lon="-2.714283">
        <ele>1913.0</ele>
        <time>2015-05-30T15:26:43Z</time>
      </trkpt>
      <trkpt lat="38.251383" lon="-2.714567">
        <ele>1916.0</ele>
        <time>2015-05-30T15:26:48Z</time>
      </trkpt>
      <trkpt lat="38.251717" lon="-2.714367">
        <ele>1919.0</ele>
        <time>2015-05-30T15:26:53Z</time>
      </trkpt>
      <trkpt lat="38.251717" lon="-2.713783">
        <ele>1917.0</ele>
        <time>2015-05-30T15:26:58Z</time>
      </trkpt>
      <trkpt lat="38.251883" lon="-2.713400">
        <ele>1910.0</ele>
        <time>2015-05-30T15:27:03Z</time>
      </trkpt>
      <trkpt lat="38.251650" lon="-2.713250">
        <ele>1902.0</ele>
        <time>2015-05-30T15:27:08Z</time>
      </trkpt>
      <trkpt lat="38.251733" lon="-2.713333">
        <ele>1893.0</ele>
        <time>2015-05-30T15:27:13Z</time>
      </trkpt>
      <trkpt lat="38.251683" lon="-2.712933">
        <ele>1882.0</ele>
        <time>2015-05-30T15:27:18Z</time>
      </trkpt>
      <trkpt lat="38.251900" lon="-2.712983">
        <ele>1876.0</ele>
        <time>2015-05-30T15:27:23Z</time>
      </trkpt>
      <trkpt lat="38.252200" lon="-2.712417">
        <ele>1870.0</ele>
        <time>2015-05-30T15:27:28Z</time>
      </trkpt>
      <trkpt lat="38.252167" lon="-2.712267">
        <ele>1864.0</ele>
        <time>2015-05-30T15:27:33Z</time>
      </trkpt>
      <trkpt lat="38.252367" lon="-2.711883">
        <ele>1853.0</ele>
        <time>2015-05-30T15:27:38Z</time>
      </trkpt>
      <trkpt lat="38.252183" lon="-2.711783">
        <ele>1843.0</ele>
        <time>2015-05-30T15:27:43Z</time>
      </trkpt>
      <trkpt lat="38.252417" lon="-2.711517">
        <ele>1838.0</ele>
        <time>2015-05-30T15:27:48Z</time>
      </trkpt>
      <trkpt lat="38.252300" lon="-2.711267">
        <ele>1832.0</ele>
        <time>2015-05-30T15:27:53Z</time>
      </trkpt>
      <trkpt lat="38.252500" lon="-2.711000">
        <ele>1826.0</ele>
        <time>2015-05-30T15:27:58Z</time>
      </trkpt>
      <trkpt lat="38.252267" lon="-2.710383">
        <ele>1823.0</ele>
        <time>2015-05-30T15:28:03Z</time>
      </trkpt>
      <trkpt lat="38.251867" lon="-2.710133">
        <ele>1827.0</ele>
        <time>2015-05-30T15:28:08Z</time>
      </trkpt>
      <trkpt lat="38.251483" lon="-2.710167">
        <ele>1832.0</ele>
        <time>2015-05-30T15:28:13Z</time>
      </trkpt>
      <trkpt lat="38.251050" lon="-2.710233">
        <ele>1835.0</ele>
        <time>2015-05-30T15:28:18Z</time>
      </trkpt>
      <trkpt lat="38.250700" lon="-2.710183">
        <ele>1842.0</ele>
        <time>2015-05-30T15:28:23Z</time>
      </trkpt>
      <trkpt lat="38.250333" lon="-2.710250">
        <ele>1845.0</ele>
        <time>2015-05-30T15:28:28Z</time>
      </trkpt>
      <trkpt lat="38.250517" lon="-2.710167">
        <ele>1846.0</ele>
        <time>2015-05-30T15:28:33Z</time>
      </trkpt>
      <trkpt lat="38.250500" lon="-2.709900">
        <ele>1841.0</ele>
        <time>2015-05-30T15:28:38Z</time>
      </trkpt>
      <trkpt lat="38.250683" lon="-2.709367">
        <ele>1831.0</ele>
        <time>2015-05-30T15:28:43Z</time>
      </trkpt>
      <trkpt lat="38.250483" lon="-2.709167">
        <ele>1821.0</ele>
        <time>2015-05-30T15:28:48Z</time>
      </trkpt>
      <trkpt lat="38.250783" lon="-2.709100">
        <ele>1813.0</ele>
        <time>2015-05-30T15:28:53Z</time>
      </trkpt>
      <trkpt lat="38.250900" lon="-2.708333">
        <ele>1805.0</ele>
        <time>2015-05-30T15:28:58Z</time>
      </trkpt>
      <trkpt lat="38.250550" lon="-2.708200">
        <ele>1801.0</ele>
        <time>2015-05-30T15:29:03Z</time>
      </trkpt>
      <trkpt lat="38.250150" lon="-2.708333">
        <ele>1799.0</ele>
        <time>2015-05-30T15:29:08Z</time>
      </trkpt>
      <trkpt lat="38.249683" lon="-2.708350">
        <ele>1798.0</ele>
        <time>2015-05-30T15:29:13Z</time>
      </trkpt>
      <trkpt lat="38.249233" lon="-2.708350">
        <ele>1796.0</ele>
        <time>2015-05-30T15:29:18Z</time>
      </trkpt>
      <trkpt lat="38.248750" lon="-2.708250">
        <ele>1793.0</ele>
        <time>2015-05-30T15:29:23Z</time>
      </trkpt>
      <trkpt lat="38.248467" lon="-2.708400">
        <ele>1789.0</ele>
        <time>2015-05-30T15:29:28Z</time>
      </trkpt>
      <trkpt lat="38.248683" lon="-2.708083">
        <ele>1784.0</ele>
        <time>2015-05-30T15:29:33Z</time>
      </trkpt>
      <trkpt lat="38.248633" lon="-2.707700">
        <ele>1777.0</ele>
        <time>2015-05-30T15:29:38Z</time>
      </trkpt>
      <trkpt lat="38.248883" lon="-2.707333">
        <ele>1769.0</ele>
        <time>2015-05-30T15:29:43Z</time>
      </trkpt>
      <trkpt lat="38.248667" lon="-2.707017">
        <ele>1760.0</ele>
        <time>2015-05-30T15:29:48Z</time>
      </trkpt>
      <trkpt lat="38.248317" lon="-2.706883">
        <ele>1754.0</ele>
        <time>2015-05-30T15:29:53Z</time>
      </trkpt>
      <trkpt lat="38.247967" lon="-2.706700">
        <ele>1754.0</ele>
        <time>2015-05-30T15:29:58Z</time>
      </trkpt>
      <trkpt lat="38.247633" lon="-2.706483">
        <ele>1757.0</ele>
        <time>2015-05-30T15:30:03Z</time>
      </trkpt>
      <trkpt lat="38.247350" lon="-2.706383">
        <ele>1760.0</ele>
        <time>2015-05-30T15:30:08Z</time>
      </trkpt>
      <trkpt lat="38.247033" lon="-2.706133">
        <ele>1760.0</ele>
        <time>2015-05-30T15:30:13Z</time>
      </trkpt>
      <trkpt lat="38.246833" lon="-2.705450">
        <ele>1760.0</ele>
        <time>2015-05-30T15:30:18Z</time>
      </trkpt>
      <trkpt lat="38.247083" lon="-2.705050">
        <ele>1759.0</ele>
        <time>2015-05-30T15:30:23Z</time>
      </trkpt>
      <trkpt lat="38.247117" lon="-2.704700">
        <ele>1753.0</ele>
        <time>2015-05-30T15:30:28Z</time>
      </trkpt>
      <trkpt lat="38.247150" lon="-2.704500">
        <ele>1746.0</ele>
        <time>2015-05-30T15:30:33Z</time>
      </trkpt>
      <trkpt lat="38.247167" lon="-2.704133">
        <ele>1736.0</ele>
        <time>2015-05-30T15:30:38Z</time>
      </trkpt>
      <trkpt lat="38.247050" lon="-2.704083">
        <ele>1727.0</ele>
        <time>2015-05-30T15:30:43Z</time>
      </trkpt>
      <trkpt lat="38.246733" lon="-2.703533">
        <ele>1725.0</ele>
        <time>2015-05-30T15:30:48Z</time>
      </trkpt>
      <trkpt lat="38.246400" lon="-2.703483">
        <ele>1721.0</ele>
        <time>2015-05-30T15:30:53Z</time>
      </trkpt>
      <trkpt lat="38.246250" lon="-2.703567">
        <ele>1722.0</ele>
        <time>2015-05-30T15:30:58Z</time>
      </trkpt>
      <trkpt lat="38.246150" lon="-2.703717">
        <ele>1726.0</ele>
        <time>2015-05-30T15:31:03Z</time>
      </trkpt>
      <trkpt lat="38.246100" lon="-2.703900">
        <ele>1727.0</ele>
        <time>2015-05-30T15:31:08Z</time>
      </trkpt>
      <trkpt lat="38.245867" lon="-2.704067">
        <ele>1723.0</ele>
        <time>2015-05-30T15:31:13Z</time>
      </trkpt>
      <trkpt lat="38.245717" lon="-2.704250">
        <ele>1711.0</ele>
        <time>2015-05-30T15:31:18Z</time>
      </trkpt>
      <trkpt lat="38.245817" lon="-2.704217">
        <ele>1696.0</ele>
        <time>2015-05-30T15:31:23Z</time>
      </trkpt>
      <trkpt lat="38.245817" lon="-2.703683">
        <ele>1675.0</ele>
        <time>2015-05-30T15:31:28Z</time>
      </trkpt>
      <trkpt lat="38.245950" lon="-2.703100">
        <ele>1648.0</ele>
        <time>2015-05-30T15:31:33Z</time>
      </trkpt>
      <trkpt lat="38.246083" lon="-2.702733">
        <ele>1617.0</ele>
        <time>2015-05-30T15:31:38Z</time>
      </trkpt>
      <trkpt lat="38.245933" lon="-2.702150">
        <ele>1587.0</ele>
        <time>2015-05-30T15:31:43Z</time>
      </trkpt>
      <trkpt lat="38.245800" lon="-2.702000">
        <ele>1560.0</ele>
        <time>2015-05-30T15:31:48Z</time>
      </trkpt>
      <trkpt lat="38.245500" lon="-2.701500">
        <ele>1531.0</ele>
        <time>2015-05-30T15:31:53Z</time>
      </trkpt>
      <trkpt lat="38.245383" lon="-2.701200">
        <ele>1502.0</ele>
        <time>2015-05-30T15:31:58Z</time>
      </trkpt>
      <trkpt lat="38.245650" lon="-2.700683">
        <ele>1475.0</ele>
        <time>2015-05-30T15:32:03Z</time>
      </trkpt>
      <trkpt lat="38.245667" lon="-2.700567">
        <ele>1452.0</ele>
        <time>2015-05-30T15:32:08Z</time>
      </trkpt>
      <trkpt lat="38.245533" lon="-2.699783">
        <ele>1433.0</ele>
        <time>2015-05-30T15:32:13Z</time>
      </trkpt>
      <trkpt lat="38.245883" lon="-2.699467">
        <ele>1417.0</ele>
        <time>2015-05-30T15:32:18Z</time>
      </trkpt>
      <trkpt lat="38.245917" lon="-2.699650">
        <ele>1406.0</ele>
        <time>2015-05-30T15:32:23Z</time>
      </trkpt>
      <trkpt lat="38.245983" lon="-2.699967">
        <ele>1399.0</ele>
        <time>2015-05-30T15:32:28Z</time>
      </trkpt>
      <trkpt lat="38.246100" lon="-2.700250">
        <ele>1395.0</ele>
        <time>2015-05-30T15:32:33Z</time>
      </trkpt>
      <trkpt lat="38.246217" lon="-2.700483">
        <ele>1394.0</ele>
        <time>2015-05-30T15:32:38Z</time>
      </trkpt>
      <trkpt lat="38.246333" lon="-2.700750">
        <ele>1396.0</ele>
        <time>2015-05-30T15:32:43Z</time>
      </trkpt>
      <trkpt lat="38.246433" lon="-2.701050">
        <ele>1403.0</ele>
        <time>2015-05-30T15:32:48Z</time>
      </trkpt>
      <trkpt lat="38.246500" lon="-2.701317">
        <ele>1411.0</ele>
        <time>2015-05-30T15:32:53Z</time>
      </trkpt>
      <trkpt lat="38.246567" lon="-2.701650">
        <ele>1419.0</ele>
        <time>2015-05-30T15:32:58Z</time>
      </trkpt>
      <trkpt lat="38.246633" lon="-2.701983">
        <ele>1430.0</ele>
        <time>2015-05-30T15:33:03Z</time>
      </trkpt>
      <trkpt lat="38.246733" lon="-2.702250">
        <ele>1442.0</ele>
        <time>2015-05-30T15:33:08Z</time>
      </trkpt>
      <trkpt lat="38.246933" lon="-2.702567">
        <ele>1452.0</ele>
        <time>2015-05-30T15:33:13Z</time>
      </trkpt>
      <trkpt lat="38.247300" lon="-2.702700">
        <ele>1461.0</ele>
        <time>2015-05-30T15:33:18Z</time>
      </trkpt>
      <trkpt lat="38.247583" lon="-2.702950">
        <ele>1465.0</ele>
        <time>2015-05-30T15:33:23Z</time>
      </trkpt>
      <trkpt lat="38.247767" lon="-2.703250">
        <ele>1465.0</ele>
        <time>2015-05-30T15:33:28Z</time>
      </trkpt>
      <trkpt lat="38.247967" lon="-2.703533">
        <ele>1461.0</ele>
        <time>2015-05-30T15:33:33Z</time>
      </trkpt>
      <trkpt lat="38.248133" lon="-2.703767">
        <ele>1456.0</ele>
        <time>2015-05-30T15:33:38Z</time>
      </trkpt>
      <trkpt lat="38.248317" lon="-2.704067">
        <ele>1451.0</ele>
        <time>2015-05-30T15:33:43Z</time>
      </trkpt>
      <trkpt lat="38.248283" lon="-2.704200">
        <ele>1448.0</ele>
        <time>2015-05-30T15:33:48Z</time>
      </trkpt>
      <trkpt lat="38.248400" lon="-2.704300">
        <ele>1445.0</ele>
        <time>2015-05-30T15:33:53Z</time>
      </trkpt>
      <trkpt lat="38.248650" lon="-2.704367">
        <ele>1445.0</ele>
        <time>2015-05-30T15:33:58Z</time>
      </trkpt>
      <trkpt lat="38.248650" lon="-2.704517">
        <ele>1446.0</ele>
        <time>2015-05-30T15:34:03Z</time>
      </trkpt>
      <trkpt lat="38.248783" lon="-2.704683">
        <ele>1442.0</ele>
        <time>2015-05-30T15:34:08Z</time>
      </trkpt>
      <trkpt lat="38.249183" lon="-2.704667">
        <ele>1438.0</ele>
        <time>2015-05-30T15:34:13Z</time>
      </trkpt>
      <trkpt lat="38.249667" lon="-2.704467">
        <ele>1431.0</ele>
        <time>2015-05-30T15:34:18Z</time>
      </trkpt>
      <trkpt lat="38.250117" lon="-2.704433">
        <ele>1422.0</ele>
        <time>2015-05-30T15:34:23Z</time>
      </trkpt>
      <trkpt lat="38.250400" lon="-2.704617">
        <ele>1409.0</ele>
        <time>2015-05-30T15:34:28Z</time>
      </trkpt>
      <trkpt lat="38.250533" lon="-2.704900">
        <ele>1394.0</ele>
        <time>2015-05-30T15:34:33Z</time>
      </trkpt>
      <trkpt lat="38.250583" lon="-2.705133">
        <ele>1379.0</ele>
        <time>2015-05-30T15:34:38Z</time>
      </trkpt>
      <trkpt lat="38.250500" lon="-2.705333">
        <ele>1362.0</ele>
        <time>2015-05-30T15:34:43Z</time>
      </trkpt>
      <trkpt lat="38.250267" lon="-2.705517">
        <ele>1345.0</ele>
        <time>2015-05-30T15:34:48Z</time>
      </trkpt>
      <trkpt lat="38.250050" lon="-2.705767">
        <ele>1328.0</ele>
        <time>2015-05-30T15:34:53Z</time>
      </trkpt>
      <trkpt lat="38.249850" lon="-2.706050">
        <ele>1312.0</ele>
        <time>2015-05-30T15:34:58Z</time>
      </trkpt>
      <trkpt lat="38.249667" lon="-2.706350">
        <ele>1298.0</ele>
        <time>2015-05-30T15:35:03Z</time>
      </trkpt>
      <trkpt lat="38.249450" lon="-2.706667">
        <ele>1285.0</ele>
        <time>2015-05-30T15:35:08Z</time>
      </trkpt>
      <trkpt lat="38.249183" lon="-2.706867">
        <ele>1274.0</ele>
        <time>2015-05-30T15:35:13Z</time>
      </trkpt>
      <trkpt lat="38.249317" lon="-2.707233">
        <ele>1263.0</ele>
        <time>2015-05-30T15:35:18Z</time>
      </trkpt>
      <trkpt lat="38.249200" lon="-2.707417">
        <ele>1253.0</ele>
        <time>2015-05-30T15:35:23Z</time>
      </trkpt>
      <trkpt lat="38.249167" lon="-2.707783">
        <ele>1243.0</ele>
        <time>2015-05-30T15:35:28Z</time>
      </trkpt>
      <trkpt lat="38.249267" lon="-2.708067">
        <ele>1233.0</ele>
        <time>2015-05-30T15:35:33Z</time>
      </trkpt>
      <trkpt lat="38.249333" lon="-2.708317">
        <ele>1222.0</ele>
        <time>2015-05-30T15:35:38Z</time>
      </trkpt>
      <trkpt lat="38.249117" lon="-2.708517">
        <ele>1210.0</ele>
        <time>2015-05-30T15:35:43Z</time>
      </trkpt>
      <trkpt lat="38.249083" lon="-2.708867">
        <ele>1200.0</ele>
        <time>2015-05-30T15:35:48Z</time>
      </trkpt>
      <trkpt lat="38.248967" lon="-2.709117">
        <ele>1192.0</ele>
        <time>2015-05-30T15:35:53Z</time>
      </trkpt>
      <trkpt lat="38.248867" lon="-2.709367">
        <ele>1185.0</ele>
        <time>2015-05-30T15:35:58Z</time>
      </trkpt>
      <trkpt lat="38.248917" lon="-2.709650">
        <ele>1181.0</ele>
        <time>2015-05-30T15:36:03Z</time>
      </trkpt>
      <trkpt lat="38.248850" lon="-2.709933">
        <ele>1179.0</ele>
        <time>2015-05-30T15:36:08Z</time>
      </trkpt>
      <trkpt lat="38.248900" lon="-2.710283">
        <ele>1179.0</ele>
        <time>2015-05-30T15:36:13Z</time>
      </trkpt>
      <trkpt lat="38.249000" lon="-2.710667">
        <ele>1177.0</ele>
        <time>2015-05-30T15:36:18Z</time>
      </trkpt>
      <trkpt lat="38.249050" lon="-2.711033">
        <ele>1172.0</ele>
        <time>2015-05-30T15:36:23Z</time>
      </trkpt>
      <trkpt lat="38.249050" lon="-2.711367">
        <ele>1167.0</ele>
        <time>2015-05-30T15:36:28Z</time>
      </trkpt>
      <trkpt lat="38.249117" lon="-2.711667">
        <ele>1161.0</ele>
        <time>2015-05-30T15:36:33Z</time>
      </trkpt>
      <trkpt lat="38.249050" lon="-2.711983">
        <ele>1149.0</ele>
        <time>2015-05-30T15:36:38Z</time>
      </trkpt>
      <trkpt lat="38.249050" lon="-2.712267">
        <ele>1131.0</ele>
        <time>2015-05-30T15:36:43Z</time>
      </trkpt>
      <trkpt lat="38.249067" lon="-2.712517">
        <ele>1114.0</ele>
        <time>2015-05-30T15:36:48Z</time>
      </trkpt>
      <trkpt lat="38.249000" lon="-2.712800">
        <ele>1097.0</ele>
        <time>2015-05-30T15:36:53Z</time>
      </trkpt>
      <trkpt lat="38.248867" lon="-2.712967">
        <ele>1086.0</ele>
        <time>2015-05-30T15:36:58Z</time>
      </trkpt>
      <trkpt lat="38.248667" lon="-2.713167">
        <ele>1077.0</ele>
        <time>2015-05-30T15:37:03Z</time>
      </trkpt>
      <trkpt lat="38.248533" lon="-2.713367">
        <ele>1071.0</ele>
        <time>2015-05-30T15:37:08Z</time>
      </trkpt>
      <trkpt lat="38.248533" lon="-2.713750">
        <ele>1066.0</ele>
        <time>2015-05-30T15:37:13Z</time>
      </trkpt>
      <trkpt lat="38.248650" lon="-2.714150">
        <ele>1064.0</ele>
        <time>2015-05-30T15:37:18Z</time>
      </trkpt>
      <trkpt lat="38.248733" lon="-2.714483">
        <ele>1066.0</ele>
        <time>2015-05-30T15:37:23Z</time>
      </trkpt>
      <trkpt lat="38.249067" lon="-2.714783">
        <ele>1071.0</ele>
        <time>2015-05-30T15:37:28Z</time>
      </trkpt>
      <trkpt lat="38.248983" lon="-2.714950">
        <ele>1077.0</ele>
        <time>2015-05-30T15:37:33Z</time>
      </trkpt>
      <trkpt lat="38.248717" lon="-2.714950">
        <ele>1079.0</ele>
        <time>2015-05-30T15:37:38Z</time>
      </trkpt>
      <trkpt lat="38.248500" lon="-2.715167">
        <ele>1084.0</ele>
        <time>2015-05-30T15:37:43Z</time>
      </trkpt>
      <trkpt lat="38.248383" lon="-2.715483">
        <ele>1089.0</ele>
        <time>2015-05-30T15:37:48Z</time>
      </trkpt>
      <trkpt lat="38.248633" lon="-2.715817">
        <ele>1092.0</ele>
        <time>2015-05-30T15:37:53Z</time>
      </trkpt>
      <trkpt lat="38.248900" lon="-2.715183">
        <ele>1091.0</ele>
        <time>2015-05-30T15:37:58Z</time>
      </trkpt>
      <trkpt lat="38.248800" lon="-2.715133">
        <ele>1088.0</ele>
        <time>2015-05-30T15:38:03Z</time>
      </trkpt>
      <trkpt lat="38.248817" lon="-2.715467">
        <ele>1089.0</ele>
        <time>2015-05-30T15:38:08Z</time>
      </trkpt>
      <trkpt lat="38.248800" lon="-2.715883">
        <ele>1090.0</ele>
        <time>2015-05-30T15:38:13Z</time>
      </trkpt>
      <trkpt lat="38.248983" lon="-2.716217">
        <ele>1089.0</ele>
        <time>2015-05-30T15:38:18Z</time>
      </trkpt>
      <trkpt lat="38.249100" lon="-2.716350">
        <ele>1090.0</ele>
        <time>2015-05-30T15:38:23Z</time>
      </trkpt>
      <trkpt lat="38.249333" lon="-2.716450">
        <ele>1093.0</ele>
        <time>2015-05-30T15:38:28Z</time>
      </trkpt>
      <trkpt lat="38.249467" lon="-2.716550">
        <ele>1096.0</ele>
        <time>2015-05-30T15:38:33Z</time>
      </trkpt>
      <trkpt lat="38.249800" lon="-2.716317">
        <ele>1097.0</ele>
        <time>2015-05-30T15:38:38Z</time>
      </trkpt>
      <trkpt lat="38.249833" lon="-2.715850">
        <ele>1097.0</ele>
        <time>2015-05-30T15:38:43Z</time>
      </trkpt>
      <trkpt lat="38.249933" lon="-2.715983">
        <ele>1095.0</ele>
        <time>2015-05-30T15:38:48Z</time>
      </trkpt>
      <trkpt lat="38.250083" lon="-2.716083">
        <ele>1094.0</ele>
        <time>2015-05-30T15:38:53Z</time>
      </trkpt>
      <trkpt lat="38.250250" lon="-2.716283">
        <ele>1090.0</ele>
        <time>2015-05-30T15:38:58Z</time>
      </trkpt>
      <trkpt lat="38.250333" lon="-2.716550">
        <ele>1081.0</ele>
        <time>2015-05-30T15:39:03Z</time>
      </trkpt>
      <trkpt lat="38.250467" lon="-2.716783">
        <ele>1065.0</ele>
        <time>2015-05-30T15:39:08Z</time>
      </trkpt>
      <trkpt lat="38.250567" lon="-2.717033">
        <ele>1045.0</ele>
        <time>2015-05-30T15:39:13Z</time>
      </trkpt>
      <trkpt lat="38.250533" lon="-2.717267">
        <ele>1028.0</ele>
        <time>2015-05-30T15:39:18Z</time>
      </trkpt>
      <trkpt lat="38.250467" lon="-2.717483">
        <ele>1017.0</ele>
        <time>2015-05-30T15:39:23Z</time>
      </trkpt>
      <trkpt lat="38.250433" lon="-2.717717">
        <ele>1012.0</ele>
        <time>2015-05-30T15:39:28Z</time>
      </trkpt>
      <trkpt lat="38.250567" lon="-2.717983">
        <ele>1011.0</ele>
        <time>2015-05-30T15:39:33Z</time>
      </trkpt>
      <trkpt lat="38.250517" lon="-2.718183">
        <ele>1008.0</ele>
        <time>2015-05-30T15:39:38Z</time>
      </trkpt>
      <trkpt lat="38.250400" lon="-2.718183">
        <ele>1003.0</ele>
        <time>2015-05-30T15:39:43Z</time>
      </trkpt>
      <trkpt lat="38.250450" lon="-2.718250">
        <ele>993.0</ele>
        <time>2015-05-30T15:39:48Z</time>
      </trkpt>
      <trkpt lat="38.250417" lon="-2.718317">
        <ele>978.0</ele>
        <time>2015-05-30T15:39:53Z</time>
      </trkpt>
      <trkpt lat="38.250417" lon="-2.718417">
        <ele>960.0</ele>
        <time>2015-05-30T15:39:58Z</time>
      </trkpt>
      <trkpt lat="38.250433" lon="-2.718583">
        <ele>945.0</ele>
        <time>2015-05-30T15:40:03Z</time>
      </trkpt>
      <trkpt lat="38.250433" lon="-2.718850">
        <ele>933.0</ele>
        <time>2015-05-30T15:40:08Z</time>
      </trkpt>
      <trkpt lat="38.250333" lon="-2.719050">
        <ele>927.0</ele>
        <time>2015-05-30T15:40:13Z</time>
      </trkpt>
      <trkpt lat="38.250400" lon="-2.719333">
        <ele>923.0</ele>
        <time>2015-05-30T15:40:18Z</time>
      </trkpt>
      <trkpt lat="38.250483" lon="-2.719550">
        <ele>915.0</ele>
        <time>2015-05-30T15:40:23Z</time>
      </trkpt>
      <trkpt lat="38.250533" lon="-2.719783">
        <ele>906.0</ele>
        <time>2015-05-30T15:40:28Z</time>
      </trkpt>
      <trkpt lat="38.250567" lon="-2.720067">
        <ele>895.0</ele>
        <time>2015-05-30T15:40:33Z</time>
      </trkpt>
      <trkpt lat="38.250433" lon="-2.720283">
        <ele>880.0</ele>
        <time>2015-05-30T15:40:38Z</time>
      </trkpt>
      <trkpt lat="38.250383" lon="-2.720433">
        <ele>863.0</ele>
        <time>2015-05-30T15:40:43Z</time>
      </trkpt>
      <trkpt lat="38.250317" lon="-2.720567">
        <ele>845.0</ele>
        <time>2015-05-30T15:40:48Z</time>
      </trkpt>
      <trkpt lat="38.250183" lon="-2.720750">
        <ele>829.0</ele>
        <time>2015-05-30T15:40:53Z</time>
      </trkpt>
      <trkpt lat="38.250217" lon="-2.720950">
        <ele>815.0</ele>
        <time>2015-05-30T15:40:58Z</time>
      </trkpt>
      <trkpt lat="38.250267" lon="-2.721100">
        <ele>805.0</ele>
        <time>2015-05-30T15:41:03Z</time>
      </trkpt>
      <trkpt lat="38.250283" lon="-2.721267">
        <ele>797.0</ele>
        <time>2015-05-30T15:41:08Z</time>
      </trkpt>
      <trkpt lat="38.250267" lon="-2.721500">
        <ele>787.0</ele>
        <time>2015-05-30T15:41:13Z</time>
      </trkpt>
      <trkpt lat="38.250033" lon="-2.721400">
        <ele>777.0</ele>
        <time>2015-05-30T15:41:18Z</time>
      </trkpt>
      <trkpt lat="38.249833" lon="-2.721233">
        <ele>767.0</ele>
        <time>2015-05-30T15:41:23Z</time>
      </trkpt>
      <trkpt lat="38.249683" lon="-2.721267">
        <ele>759.0</ele>
        <time>2015-05-30T15:41:28Z</time>
      </trkpt>
      <trkpt lat="38.249683" lon="-2.721283">
        <ele>756.0</ele>
        <time>2015-05-30T15:41:33Z</time>
      </trkpt>
      <trkpt lat="38.249683" lon="-2.721283">
        <ele>756.0</ele>
        <time>2015-05-30T15:41:38Z</time>
      </trkpt>
      <trkpt lat="38.249683" lon="-2.721283">
        <ele>756.0</ele>
        <time>2015-05-30T15:41:43Z</time>
      </trkpt>
      <trkpt lat="38.249683" lon="-2.721283">
        <ele>756.0</ele>
        <time>2015-05-30T15:41:48Z</time>
      </trkpt>
      <trkpt lat="38.249683" lon="-2.721283">
        <ele>756.0</ele>
        <time>2015-05-30T15:41:53Z</time>
      </trkpt>
      <trkpt lat="38.249683" lon="-2.721283">
        <ele>756.0</ele>
        <time>2015-05-30T15:41:58Z</time>
      </trkpt>
      <trkpt lat="38.249683" lon="-2.721283">
        <ele>756.0</ele>
        <time>2015-05-30T15:42:03Z</time>
      </trkpt>
      <trkpt lat="38.249683" lon="-2.721283">
        <ele>756.0</ele>
        <time>2015-05-30T15:42:08Z</time>
      </trkpt>
      <trkpt lat="38.249683" lon="-2.721283">
        <ele>756.0</ele>
        <time>2015-05-30T15:42:13Z</time>
      </trkpt>
      <trkpt lat="38.249683" lon="-2.721283">
        <ele>756.0</ele>
        <time>2015-05-30T15:42:18Z</time>
      </trkpt>
      <trkpt lat="38.249683" lon="-2.721283">
        <ele>756.0</ele>
        <time>2015-05-30T15:42:23Z</time>
      </trkpt>
      <trkpt lat="38.249683" lon="-2.721283">
        <ele>756.0</ele>
        <time>2015-05-30T15:42:28Z</time>
      </trkpt>
      <trkpt lat="38.249683" lon="-2.721283">
        <ele>756.0</ele>
        <time>2015-05-30T15:42:33Z</time>
      </trkpt>
      <trkpt lat="38.249683" lon="-2.721283">
        <ele>756.0</ele>
        <time>2015-05-30T15:42:38Z</time>
      </trkpt>
      <trkpt lat="38.249683" lon="-2.721283">
        <ele>756.0</ele>
        <time>2015-05-30T15:42:43Z</time>
      </trkpt>
      <trkpt lat="38.249683" lon="-2.721283">
        <ele>756.0</ele>
        <time>2015-05-30T15:42:48Z</time>
      </trkpt>
      <trkpt lat="38.249683" lon="-2.721283">
        <ele>756.0</ele>
        <time>2015-05-30T15:42:53Z</time>
      </trkpt>
      <trkpt lat="38.249683" lon="-2.721283">
        <ele>756.0</ele>
        <time>2015-05-30T15:42:58Z</time>
      </trkpt>
      <trkpt lat="38.249683" lon="-2.721283">
        <ele>756.0</ele>
        <time>2015-05-30T15:43:03Z</time>
      </trkpt>
      <trkpt lat="38.249683" lon="-2.721283">
        <ele>756.0</ele>
        <time>2015-05-30T15:43:08Z</time>
      </trkpt>
      <trkpt lat="38.249683" lon="-2.721283">
        <ele>756.0</ele>
        <time>2015-05-30T15:43:13Z</time>
      </trkpt>
      <trkpt lat="38.249683" lon="-2.721283">
        <ele>756.0</ele>
        <time>2015-05-30T15:43:18Z</time>
      </trkpt>
      <trkpt lat="38.249683" lon="-2.721283">
        <ele>756.0</ele>
        <time>2015-05-30T15:43:23Z</time>
      </trkpt>
      <trkpt lat="38.249683" lon="-2.721283">
        <ele>756.0</ele>
        <time>2015-05-30T15:43:28Z</time>
      </trkpt>
      <trkpt lat="38.249683" lon="-2.721283">
        <ele>756.0</ele>
        <time>2015-05-30T15:43:33Z</time>
      </trkpt>
      <trkpt lat="38.249683" lon="-2.721283">
        <ele>756.0</ele>
        <time>2015-05-30T15:43:38Z</time>
      </trkpt>
      <trkpt lat="38.249683" lon="-2.721283">
        <ele>756.0</ele>
        <time>2015-05-30T15:43:43Z</time>
      </trkpt>
      <trkpt lat="38.249683" lon="-2.721283">
        <ele>756.0</ele>
        <time>2015-05-30T15:43:48Z</time>
      </trkpt>
      <trkpt lat="38.249683" lon="-2.721283">
        <ele>756.0</ele>
        <time>2015-05-30T15:43:53Z</time>
      </trkpt>
      <trkpt lat="38.249683" lon="-2.721283">
        <ele>756.0</ele>
        <time>2015-05-30T15:43:58Z</time>
      </trkpt>
      <trkpt lat="38.249683" lon="-2.721283">
        <ele>756.0</ele>
        <time>2015-05-30T15:44:03Z</time>
      </trkpt>
      <trkpt lat="38.249683" lon="-2.721283">
        <ele>756.0</ele>
        <time>2015-05-30T15:44:08Z</time>
      </trkpt>
      <trkpt lat="38.249683" lon="-2.721283">
        <ele>756.0</ele>
        <time>2015-05-30T15:44:13Z</time>
      </trkpt>
      <trkpt lat="38.249683" lon="-2.721283">
        <ele>756.0</ele>
        <time>2015-05-30T15:44:18Z</time>
      </trkpt>
      <trkpt lat="38.249683" lon="-2.721283">
        <ele>756.0</ele>
        <time>2015-05-30T15:44:23Z</time>
      </trkpt>
      <trkpt lat="38.249683" lon="-2.721283">
        <ele>756.0</ele>
        <time>2015-05-30T15:44:28Z</time>
      </trkpt>
      <trkpt lat="38.249683" lon="-2.721283">
        <ele>756.0</ele>
        <time>2015-05-30T15:44:33Z</time>
      </trkpt>
      <trkpt lat="38.249683" lon="-2.721283">
        <ele>756.0</ele>
        <time>2015-05-30T15:44:38Z</time>
      </trkpt>
      <trkpt lat="38.249683" lon="-2.721283">
        <ele>756.0</ele>
        <time>2015-05-30T15:44:43Z</time>
      </trkpt>
      <trkpt lat="38.249683" lon="-2.721283">
        <ele>756.0</ele>
        <time>2015-05-30T15:44:48Z</time>
      </trkpt>
      <trkpt lat="38.249683" lon="-2.721283">
        <ele>756.0</ele>
        <time>2015-05-30T15:44:53Z</time>
      </trkpt>
      <trkpt lat="38.249683" lon="-2.721283">
        <ele>756.0</ele>
        <time>2015-05-30T15:44:58Z</time>
      </trkpt>
      <trkpt lat="38.249683" lon="-2.721283">
        <ele>756.0</ele>
        <time>2015-05-30T15:45:03Z</time>
      </trkpt>
      <trkpt lat="38.249683" lon="-2.721283">
        <ele>756.0</ele>
        <time>2015-05-30T15:45:08Z</time>
      </trkpt>
      <trkpt lat="38.249683" lon="-2.721283">
        <ele>756.0</ele>
        <time>2015-05-30T15:45:13Z</time>
      </trkpt>
      <trkpt lat="38.249683" lon="-2.721283">
        <ele>756.0</ele>
        <time>2015-05-30T15:45:18Z</time>
      </trkpt>
      <trkpt lat="38.249683" lon="-2.721283">
        <ele>756.0</ele>
        <time>2015-05-30T15:45:23Z</time>
      </trkpt>
      <trkpt lat="38.249683" lon="-2.721283">
        <ele>756.0</ele>
        <time>2015-05-30T15:45:28Z</time>
      </trkpt>
      <trkpt lat="38.249683" lon="-2.721283">
        <ele>756.0</ele>
        <time>2015-05-30T15:45:33Z</time>
      </trkpt>
      <trkpt lat="38.249683" lon="-2.721283">
        <ele>756.0</ele>
        <time>2015-05-30T15:45:38Z</time>
      </trkpt>
      <trkpt lat="38.249683" lon="-2.721283">
        <ele>756.0</ele>
        <time>2015-05-30T15:45:43Z</time>
      </trkpt>
      <trkpt lat="38.249683" lon="-2.721283">
        <ele>756.0</ele>
        <time>2015-05-30T15:45:48Z</time>
      </trkpt>
      <trkpt lat="38.249683" lon="-2.721283">
        <ele>756.0</ele>
        <time>2015-05-30T15:45:53Z</time>
      </trkpt>
      <trkpt lat="38.249683" lon="-2.721283">
        <ele>756.0</ele>
        <time>2015-05-30T15:45:58Z</time>
      </trkpt>
      <trkpt lat="38.249683" lon="-2.721283">
        <ele>756.0</ele>
        <time>2015-05-30T15:46:03Z</time>
      </trkpt>
      <trkpt lat="38.249683" lon="-2.721283">
        <ele>756.0</ele>
        <time>2015-05-30T15:46:08Z</time>
      </trkpt>
      <trkpt lat="38.249683" lon="-2.721283">
        <ele>756.0</ele>
        <time>2015-05-30T15:46:13Z</time>
      </trkpt>
      <trkpt lat="38.249683" lon="-2.721283">
        <ele>756.0</ele>
        <time>2015-05-30T15:46:18Z</time>
      </trkpt>
      <trkpt lat="38.249683" lon="-2.721283">
        <ele>756.0</ele>
        <time>2015-05-30T15:46:23Z</time>
      </trkpt>
      <trkpt lat="38.249683" lon="-2.721283">
        <ele>756.0</ele>
        <time>2015-05-30T15:46:28Z</time>
      </trkpt>
      <trkpt lat="38.249683" lon="-2.721283">
        <ele>756.0</ele>
        <time>2015-05-30T15:46:33Z</time>
      </trkpt>
      <trkpt lat="38.249683" lon="-2.721283">
        <ele>756.0</ele>
        <time>2015-05-30T15:46:38Z</time>
      </trkpt>
      <trkpt lat="38.249683" lon="-2.721283">
        <ele>756.0</ele>
        <time>2015-05-30T15:46:43Z</time>
      </trkpt>
      <trkpt lat="38.249683" lon="-2.721283">
        <ele>756.0</ele>
        <time>2015-05-30T15:46:48Z</time>
      </trkpt>
      <trkpt lat="38.249683" lon="-2.721283">
        <ele>756.0</ele>
        <time>2015-05-30T15:46:53Z</time>
      </trkpt>
      <trkpt lat="38.249683" lon="-2.721283">
        <ele>756.0</ele>
        <time>2015-05-30T15:46:58Z</time>
      </trkpt>
      <trkpt lat="38.249683" lon="-2.721283">
        <ele>756.0</ele>
        <time>2015-05-30T15:47:03Z</time>
      </trkpt>
      <trkpt lat="38.249683" lon="-2.721283">
        <ele>756.0</ele>
        <time>2015-05-30T15:47:08Z</time>
      </trkpt>
      <trkpt lat="38.249683" lon="-2.721283">
        <ele>756.0</ele>
        <time>2015-05-30T15:47:13Z</time>
      </trkpt>
      <trkpt lat="38.249683" lon="-2.721283">
        <ele>756.0</ele>
        <time>2015-05-30T15:47:18Z</time>
      </trkpt>
      <trkpt lat="38.249683" lon="-2.721283">
        <ele>756.0</ele>
        <time>2015-05-30T15:47:23Z</time>
      </trkpt>
      <trkpt lat="38.249683" lon="-2.721283">
        <ele>756.0</ele>
        <time>2015-05-30T15:47:28Z</time>
      </trkpt>
      <trkpt lat="38.249683" lon="-2.721283">
        <ele>756.0</ele>
        <time>2015-05-30T15:47:33Z</time>
      </trkpt>
      <trkpt lat="38.249683" lon="-2.721283">
        <ele>756.0</ele>
        <time>2015-05-30T15:47:38Z</time>
      </trkpt>
      <trkpt lat="38.249683" lon="-2.721283">
        <ele>756.0</ele>
        <time>2015-05-30T15:47:43Z</time>
      </trkpt>
      <trkpt lat="38.249683" lon="-2.721283">
        <ele>756.0</ele>
        <time>2015-05-30T15:47:48Z</time>
      </trkpt>
      <trkpt lat="38.249683" lon="-2.721283">
        <ele>756.0</ele>
        <time>2015-05-30T15:47:53Z</time>
      </trkpt>
      <trkpt lat="38.249683" lon="-2.721283">
        <ele>756.0</ele>
        <time>2015-05-30T15:47:58Z</time>
      </trkpt>
      <trkpt lat="38.249683" lon="-2.721283">
        <ele>756.0</ele>
        <time>2015-05-30T15:48:03Z</time>
      </trkpt>
      <trkpt lat="38.249683" lon="-2.721283">
        <ele>756.0</ele>
        <time>2015-05-30T15:48:08Z</time>
      </trkpt>
      <trkpt lat="38.249683" lon="-2.721283">
        <ele>756.0</ele>
        <time>2015-05-30T15:48:13Z</time>
      </trkpt>
      <trkpt lat="38.249683" lon="-2.721283">
        <ele>756.0</ele>
        <time>2015-05-30T15:48:18Z</time>
      </trkpt>
      <trkpt lat="38.249683" lon="-2.721283">
        <ele>756.0</ele>
        <time>2015-05-30T15:48:23Z</time>
      </trkpt>
      <trkpt lat="38.249683" lon="-2.721283">
        <ele>756.0</ele>
        <time>2015-05-30T15:48:28Z</time>
      </trkpt>
      <trkpt lat="38.249683" lon="-2.721283">
        <ele>756.0</ele>
        <time>2015-05-30T15:48:33Z</time>
      </trkpt>
      <trkpt lat="38.249683" lon="-2.721283">
        <ele>756.0</ele>
        <time>2015-05-30T15:48:38Z</time>
      </trkpt>
      <trkpt lat="38.249683" lon="-2.721283">
        <ele>756.0</ele>
        <time>2015-05-30T15:48:43Z</time>
      </trkpt>
      <trkpt lat="38.249683" lon="-2.721283">
        <ele>756.0</ele>
        <time>2015-05-30T15:48:48Z</time>
      </trkpt>
      <trkpt lat="38.249683" lon="-2.721283">
        <ele>756.0</ele>
        <time>2015-05-30T15:48:53Z</time>
      </trkpt>
      <trkpt lat="38.249683" lon="-2.721283">
        <ele>756.0</ele>
        <time>2015-05-30T15:48:58Z</time>
      </trkpt>
    </trkseg>
  </trk>
</gpx>
